[[{"header":{"parameterUnit":"m.s-1","parameterCategory":1,"la1":30.6,"la2":29.2853,"lo1":-89.7004,"lo2":-87.6739,"dy":0.0162,"dx":0.0183,"nx":112,"ny":82,"refTime":"2023-10-04T06:00:00:Z","depth":0,"parameterNumber":2,"parameterNumberName":"U-component_of_WINDS"},"data":[0.0,0.0,0.0,0.0,0.0,0.0,0.0,0.0,0.0,0.0,0.0,0.0,0.0,0.0,0.0,0.0,0.0,0.0,0.0,0.0,0.0,0.0,0.0,0.0,0.0,0.0,0.0,0.0,0.0,0.0,0.0,0.0,0.0,0.0,0.0,0.0,0.0,0.0,0.0,0.0,0.0,0.0,0.0,0.0,0.0,0.0,0.0,0.0,0.0,0.0,0.0,0.0,0.0,0.0,0.0,0.0,0.0,0.0,0.0,0.0,0.0,0.0,0.0,0.0,0.0,0.0,0.0,0.0,0.0,0.0,0.0,0.0,0.0,0.0,0.0,0.0,0.0,0.0,0.0,0.0,0.0,0.0,0.0,0.0,0.0,0.0,0.0,0.0,0.0,0.0,6.2287,6.2287,6.2895,6.3314,6.3314,6.3314,6.3314,6.3314,0.0,0.0,0.0,0.0,0.0,0.0,0.0,0.0,0.0,0.0,0.0,0.0,0.0,0.0,0.0,0.0,0.0,0.0,0.0,0.0,0.0,0.0,0.0,0.0,0.0,0.0,0.0,0.0,0.0,0.0,0.0,0.0,0.0,0.0,0.0,0.0,0.0,0.0,0.0,0.0,0.0,0.0,0.0,0.0,0.0,0.0,0.0,0.0,0.0,0.0,0.0,0.0,0.0,0.0,0.0,0.0,0.0,0.0,0.0,0.0,0.0,0.0,0.0,0.0,0.0,0.0,0.0,0.0,0.0,0.0,0.0,0.0,0.0,0.0,0.0,0.0,0.0,0.0,0.0,0.0,0.0,0.0,0.0,0.0,0.0,0.0,0.0,0.0,0.0,0.0,0.0,0.0,0.0,0.0,0.0,0.0,0.0,0.0,0.0,0.0,0.0,0.0,0.0,0.0,6.3125,6.3125,6.3238,6.3314,6.3314,6.3314,6.3314,6.3314,0.0,0.0,0.0,0.0,0.0,0.0,0.0,0.0,0.0,0.0,0.0,0.0,0.0,0.0,0.0,0.0,0.0,0.0,0.0,0.0,0.0,0.0,0.0,0.0,0.0,0.0,0.0,0.0,0.0,0.0,0.0,0.0,0.0,0.0,0.0,0.0,0.0,0.0,0.0,0.0,0.0,0.0,0.0,0.0,0.0,0.0,0.0,0.0,0.0,0.0,0.0,0.0,0.0,0.0,0.0,0.0,0.0,0.0,0.0,0.0,0.0,0.0,0.0,0.0,0.0,0.0,0.0,0.0,0.0,0.0,0.0,0.0,0.0,0.0,0.0,0.0,0.0,0.0,0.0,0.0,0.0,0.0,0.0,0.0,0.0,0.0,0.0,0.0,0.0,0.0,0.0,0.0,0.0,0.0,0.0,0.0,0.0,0.0,0.0,0.0,0.0,0.0,0.0,6.3782,6.4202,6.4665,6.4703,6.4703,6.4703,6.4703,6.4703,6.4703,6.3937,0.0,0.0,0.0,0.0,0.0,0.0,0.0,0.0,0.0,0.0,0.0,0.0,0.0,0.0,0.0,0.0,0.0,0.0,0.0,0.0,0.0,0.0,0.0,0.0,0.0,0.0,0.0,0.0,0.0,0.0,0.0,0.0,0.0,0.0,0.0,0.0,0.0,0.0,0.0,0.0,0.0,0.0,0.0,0.0,0.0,0.0,0.0,0.0,0.0,0.0,0.0,0.0,0.0,0.0,0.0,0.0,0.0,0.0,0.0,0.0,0.0,0.0,0.0,0.0,0.0,0.0,0.0,0.0,0.0,0.0,0.0,0.0,0.0,0.0,0.0,0.0,0.0,0.0,0.0,0.0,0.0,0.0,0.0,0.0,0.0,0.0,0.0,0.0,0.0,0.0,0.0,0.0,0.0,0.0,0.0,0.0,0.0,0.0,0.0,0.0,0.0,0.0,6.4896,6.5166,6.5824,6.59,6.59,6.59,6.59,6.59,6.59,6.5283,0.0,0.0,0.0,0.0,0.0,0.0,0.0,0.0,0.0,0.0,0.0,0.0,0.0,0.0,0.0,0.0,0.0,0.0,0.0,0.0,0.0,0.0,0.0,0.0,0.0,0.0,0.0,0.0,0.0,0.0,0.0,0.0,0.0,0.0,0.0,0.0,0.0,0.0,0.0,0.0,0.0,0.0,0.0,0.0,0.0,0.0,0.0,0.0,0.0,0.0,0.0,0.0,0.0,0.0,0.0,0.0,0.0,0.0,0.0,0.0,0.0,0.0,0.0,0.0,0.0,0.0,0.0,0.0,0.0,0.0,0.0,0.0,0.0,0.0,0.0,0.0,0.0,0.0,0.0,0.0,0.0,0.0,0.0,0.0,0.0,0.0,0.0,0.0,0.0,0.0,0.0,0.0,0.0,0.0,0.0,0.0,0.0,0.0,0.0,0.0,0.0,0.0,6.5824,6.5824,6.59,6.59,6.59,6.59,6.59,6.59,6.59,6.5824,0.0,0.0,0.0,0.0,0.0,0.0,0.0,0.0,0.0,0.0,0.0,0.0,0.0,0.0,0.0,0.0,0.0,0.0,0.0,0.0,0.0,0.0,0.0,0.0,0.0,0.0,0.0,0.0,0.0,0.0,0.0,0.0,0.0,0.0,0.0,0.0,0.0,0.0,0.0,0.0,0.0,0.0,0.0,0.0,0.0,0.0,0.0,0.0,0.0,0.0,0.0,0.0,0.0,0.0,0.0,0.0,0.0,0.0,0.0,0.0,0.0,0.0,0.0,0.0,0.0,0.0,0.0,0.0,0.0,0.0,0.0,0.0,0.0,0.0,0.0,0.0,0.0,0.0,0.0,0.0,0.0,0.0,0.0,0.0,0.0,0.0,0.0,0.0,0.0,0.0,0.0,0.0,0.0,0.0,0.0,0.0,0.0,0.0,0.0,0.0,0.0,0.0,6.6633,6.6862,6.7394,6.7471,6.7471,6.7471,6.7471,6.7471,6.7471,0.0,0.0,0.0,0.0,0.0,0.0,0.0,0.0,0.0,0.0,0.0,0.0,0.0,0.0,0.0,0.0,0.0,0.0,0.0,0.0,0.0,0.0,0.0,0.0,0.0,0.0,0.0,0.0,0.0,0.0,0.0,0.0,0.0,0.0,0.0,0.0,0.0,0.0,0.0,0.0,0.0,0.0,0.0,0.0,0.0,0.0,0.0,0.0,0.0,0.0,0.0,0.0,0.0,0.0,0.0,0.0,0.0,0.0,0.0,0.0,0.0,0.0,0.0,0.0,0.0,0.0,0.0,0.0,0.0,0.0,0.0,0.0,0.0,0.0,0.0,0.0,0.0,0.0,0.0,0.0,0.0,0.0,0.0,0.0,0.0,0.0,0.0,0.0,0.0,0.0,0.0,0.0,0.0,0.0,0.0,0.0,0.0,0.0,0.0,0.0,0.0,0.0,6.7399,6.7513,6.7742,6.8353,6.8391,6.8391,6.8391,6.8391,6.8391,6.8391,0.0,0.0,0.0,0.0,0.0,0.0,0.0,0.0,0.0,0.0,0.0,0.0,0.0,0.0,0.0,0.0,0.0,0.0,0.0,0.0,0.0,0.0,0.0,0.0,0.0,0.0,0.0,0.0,0.0,0.0,0.0,0.0,0.0,0.0,0.0,0.0,0.0,0.0,0.0,0.0,0.0,0.0,0.0,0.0,0.0,0.0,0.0,0.0,0.0,0.0,0.0,0.0,0.0,0.0,0.0,0.0,0.0,0.0,0.0,0.0,0.0,0.0,0.0,0.0,0.0,0.0,0.0,0.0,0.0,0.0,0.0,0.0,0.0,0.0,0.0,0.0,0.0,0.0,0.0,0.0,0.0,0.0,0.0,0.0,0.0,0.0,0.0,0.0,0.0,0.0,0.0,0.0,0.0,0.0,0.0,0.0,0.0,0.0,0.0,0.0,0.0,0.0,6.8314,6.8391,6.8428,6.8423,6.8423,6.8423,6.8423,6.842,6.842,0.0,0.0,0.0,0.0,0.0,0.0,0.0,0.0,0.0,0.0,0.0,0.0,0.0,0.0,0.0,0.0,0.0,0.0,0.0,0.0,0.0,0.0,0.0,0.0,0.0,0.0,0.0,0.0,0.0,0.0,0.0,0.0,0.0,0.0,0.0,0.0,0.0,0.0,0.0,0.0,0.0,0.0,0.0,0.0,0.0,0.0,0.0,0.0,0.0,0.0,0.0,0.0,0.0,0.0,0.0,0.0,0.0,0.0,0.0,0.0,0.0,0.0,0.0,0.0,0.0,0.0,0.0,0.0,0.0,0.0,0.0,0.0,0.0,0.0,0.0,0.0,0.0,0.0,0.0,0.0,0.0,0.0,0.0,0.0,0.0,0.0,0.0,0.0,0.0,0.0,0.0,0.0,0.0,0.0,0.0,0.0,0.0,0.0,0.0,0.0,0.0,0.0,0.0,6.9202,6.9318,6.9372,6.9591,6.96,6.96,6.96,6.9266,6.9216,6.958,0.0,0.0,0.0,0.0,0.0,0.0,0.0,0.0,0.0,0.0,0.0,0.0,0.0,0.0,0.0,0.0,0.0,0.0,0.0,0.0,0.0,0.0,0.0,0.0,0.0,0.0,0.0,0.0,0.0,0.0,0.0,0.0,0.0,0.0,0.0,0.0,0.0,0.0,0.0,0.0,0.0,0.0,0.0,0.0,0.0,0.0,0.0,0.0,0.0,0.0,0.0,0.0,0.0,0.0,0.0,0.0,0.0,0.0,0.0,0.0,0.0,0.0,0.0,0.0,0.0,0.0,0.0,0.0,0.0,0.0,0.0,0.0,0.0,0.0,0.0,0.0,0.0,0.0,0.0,0.0,0.0,0.0,0.0,0.0,0.0,0.0,0.0,0.0,0.0,0.0,0.0,0.0,0.0,0.0,0.0,0.0,0.0,0.0,0.0,0.0,0.0,0.0,6.9729,6.9679,6.9586,6.9771,6.9777,6.9777,6.9777,6.9494,6.9445,6.9759,0.0,0.0,0.0,0.0,0.0,0.0,0.0,0.0,0.0,0.0,0.0,0.0,0.0,0.0,0.0,0.0,0.0,0.0,0.0,0.0,0.0,0.0,0.0,0.0,0.0,0.0,0.0,0.0,0.0,0.0,0.0,0.0,0.0,0.0,0.0,0.0,0.0,0.0,0.0,0.0,0.0,0.0,0.0,0.0,0.0,0.0,0.0,0.0,0.0,0.0,0.0,0.0,0.0,0.0,0.0,0.0,0.0,0.0,0.0,0.0,0.0,0.0,0.0,0.0,0.0,0.0,0.0,0.0,0.0,0.0,0.0,0.0,0.0,0.0,0.0,0.0,0.0,0.0,0.0,0.0,0.0,0.0,0.0,0.0,0.0,0.0,0.0,0.0,0.0,0.0,0.0,0.0,0.0,0.0,0.0,0.0,0.0,0.0,0.0,0.0,0.0,0.0,7.0055,6.9754,6.9433,6.9454,6.9449,6.9449,6.9449,6.9402,6.9357,6.9336,0.0,0.0,0.0,0.0,0.0,0.0,0.0,0.0,0.0,0.0,0.0,0.0,0.0,0.0,0.0,0.0,0.0,0.0,0.0,0.0,0.0,0.0,0.0,0.0,0.0,0.0,0.0,0.0,0.0,0.0,0.0,0.0,0.0,0.0,0.0,0.0,0.0,0.0,0.0,0.0,0.0,0.0,0.0,0.0,0.0,0.0,0.0,0.0,0.0,0.0,0.0,0.0,0.0,0.0,0.0,0.0,0.0,0.0,0.0,0.0,5.8422,5.7757,0.0,0.0,0.0,0.0,0.0,0.0,0.0,0.0,0.0,0.0,0.0,0.0,0.0,0.0,0.0,0.0,0.0,0.0,0.0,0.0,0.0,0.0,0.0,0.0,0.0,0.0,0.0,0.0,0.0,0.0,0.0,0.0,0.0,0.0,0.0,0.0,0.0,0.0,0.0,0.0,7.1171,7.0715,7.0323,7.0554,7.0575,7.0575,7.0575,7.0158,6.9829,6.9639,6.9227,0.0,0.0,0.0,0.0,0.0,0.0,0.0,0.0,0.0,0.0,0.0,0.0,0.0,0.0,0.0,0.0,0.0,0.0,0.0,0.0,0.0,0.0,0.0,0.0,0.0,0.0,0.0,0.0,0.0,0.0,0.0,0.0,0.0,0.0,0.0,0.0,0.0,0.0,0.0,0.0,0.0,0.0,0.0,0.0,0.0,0.0,0.0,0.0,0.0,0.0,0.0,0.0,0.0,0.0,0.0,0.0,0.0,0.0,0.0,5.9476,5.9271,0.0,0.0,0.0,0.0,0.0,0.0,0.0,0.0,0.0,0.0,0.0,0.0,0.0,0.0,0.0,0.0,0.0,0.0,0.0,0.0,0.0,0.0,0.0,0.0,0.0,0.0,0.0,0.0,0.0,0.0,0.0,0.0,0.0,0.0,0.0,0.0,0.0,0.0,0.0,0.0,7.1153,7.0717,7.0369,7.0501,7.0539,7.0539,7.0539,7.0249,7.0051,6.99,6.9617,0.0,0.0,0.0,0.0,0.0,0.0,0.0,0.0,0.0,0.0,0.0,0.0,0.0,0.0,0.0,0.0,0.0,0.0,0.0,0.0,0.0,0.0,0.0,0.0,0.0,0.0,0.0,0.0,0.0,0.0,0.0,0.0,0.0,0.0,0.0,0.0,0.0,0.0,0.0,0.0,0.0,0.0,0.0,0.0,0.0,0.0,0.0,0.0,0.0,0.0,0.0,0.0,0.0,6.1566,6.1344,6.1007,6.1374,6.1209,6.062,6.0714,6.1133,6.1686,6.1602,0.0,0.0,0.0,0.0,0.0,0.0,0.0,0.0,0.0,0.0,0.0,0.0,0.0,0.0,0.0,0.0,0.0,0.0,0.0,0.0,0.0,0.0,6.3922,6.4574,6.5303,6.5888,6.6218,0.0,0.0,0.0,0.0,0.0,0.0,0.0,0.0,0.0,0.0,0.0,7.1098,7.0686,7.0367,7.0517,7.0517,7.0517,7.0517,7.0517,7.044,7.033,7.0293,7.026,0.0,0.0,0.0,0.0,0.0,0.0,0.0,0.0,0.0,0.0,0.0,0.0,0.0,0.0,0.0,0.0,0.0,0.0,0.0,0.0,0.0,0.0,0.0,0.0,0.0,0.0,0.0,0.0,0.0,0.0,0.0,0.0,5.5699,5.5959,0.0,0.0,0.0,0.0,0.0,0.0,0.0,0.0,0.0,0.0,0.0,0.0,0.0,6.0086,6.0241,6.0313,6.0426,6.0579,6.0579,6.0538,6.0498,6.0544,6.0902,6.1422,6.1475,0.0,6.1166,6.0754,0.0,0.0,0.0,0.0,0.0,0.0,0.0,0.0,0.0,0.0,0.0,0.0,0.0,0.0,0.0,0.0,0.0,0.0,0.0,0.0,0.0,0.0,6.6358,6.6431,6.6547,6.6855,6.7572,6.7175,6.6733,6.6893,6.7457,6.8045,0.0,0.0,0.0,0.0,0.0,0.0,7.2106,7.1628,7.1421,7.2125,7.2162,7.2162,7.2162,7.2162,7.1905,7.1197,7.1127,7.0837,7.0113,7.0003,0.0,0.0,0.0,0.0,0.0,0.0,0.0,0.0,0.0,0.0,0.0,0.0,0.0,0.0,0.0,0.0,0.0,0.0,0.0,0.0,0.0,0.0,0.0,0.0,0.0,0.0,0.0,0.0,0.0,5.5757,5.5949,5.5883,5.5858,5.5987,0.0,0.0,0.0,0.0,0.0,0.0,0.0,0.0,0.0,6.0376,6.0413,6.0636,6.1083,6.1514,6.1991,6.2478,6.2949,6.3163,6.3163,6.3163,6.3349,6.3683,6.3683,6.3613,6.3352,6.2209,6.1886,6.2023,0.0,0.0,0.0,0.0,6.2478,6.2588,6.3213,6.3447,6.3489,6.3705,0.0,0.0,0.0,0.0,0.0,0.0,0.0,6.4876,6.4876,6.5408,6.6054,6.6535,6.6646,6.6981,6.8248,6.8236,6.8074,6.8356,6.8693,6.903,6.9297,7.004,0.0,0.0,0.0,7.1688,7.2419,7.2195,7.2121,7.2455,7.2492,7.2492,7.2492,7.2492,7.2342,7.2011,7.1975,7.1828,7.1468,7.1024,7.0763,0.0,0.0,0.0,0.0,0.0,0.0,0.0,0.0,0.0,0.0,0.0,0.0,0.0,0.0,0.0,0.0,0.0,0.0,0.0,0.0,0.0,0.0,0.0,0.0,0.0,0.0,0.0,0.0,5.6424,5.6385,5.6508,5.6531,5.6825,0.0,0.0,0.0,0.0,0.0,0.0,6.071,6.089,6.1114,6.1337,6.1551,6.1955,6.2548,6.3126,6.3866,6.4723,6.5335,6.5698,6.5922,6.5922,6.5922,6.5922,6.5922,6.5809,6.5478,6.4044,6.3453,6.3453,6.3453,6.3453,6.353,6.4166,6.4423,6.4497,6.5074,6.5291,6.5291,6.5291,6.5291,6.5291,6.5291,0.0,0.0,0.0,0.0,6.5625,6.5625,6.5915,6.6359,6.699,6.7283,6.776,6.8968,6.9225,6.9312,6.9717,6.9815,6.9913,7.035,7.091,0.0,7.1567,7.2121,7.2492,7.2492,7.2492,7.2492,7.2492,7.2492,7.2492,7.2492,7.2492,7.2492,7.2492,7.2492,7.2492,7.2492,7.1934,7.1604,7.1604,0.0,0.0,0.0,0.0,0.0,0.0,0.0,0.0,0.0,0.0,0.0,0.0,0.0,0.0,0.0,0.0,0.0,0.0,0.0,0.0,0.0,0.0,0.0,0.0,0.0,0.0,0.0,0.0,0.0,5.8829,5.901,0.0,0.0,0.0,0.0,6.034,6.0379,6.0747,6.1487,6.2248,6.3056,6.3876,6.4674,6.5068,6.5108,6.5141,6.5588,6.6369,6.6402,6.6849,6.759,6.759,6.759,6.759,6.759,6.7143,6.6366,6.5515,6.5181,6.5181,6.5181,6.5181,6.5178,6.5218,6.5258,6.5255,6.5291,6.5291,6.5291,6.5291,6.5291,6.5291,6.5291,6.5291,0.0,0.0,6.5848,6.6439,6.6439,6.757,6.8745,6.8781,6.9376,6.993,7.0003,7.004,7.005,7.0052,7.0095,7.0338,7.1094,0.0,7.1564,7.2305,7.2455,7.2492,7.2492,7.2492,7.2492,7.2492,7.2492,7.2492,7.2492,7.2492,7.2492,7.2492,7.2492,7.2492,7.2492,7.2455,7.2455,7.2455,7.1641,0.0,0.0,0.0,0.0,0.0,0.0,0.0,0.0,0.0,0.0,0.0,0.0,0.0,0.0,0.0,0.0,0.0,0.0,0.0,0.0,0.0,0.0,0.0,0.0,0.0,0.0,0.0,0.0,5.9896,5.9967,0.0,6.0376,6.0857,6.137,6.1915,6.2472,6.3139,6.394,6.4264,6.4781,6.5635,6.5922,6.6329,6.6849,6.7353,6.7754,6.8051,6.8571,6.8975,6.9236,6.9236,6.9236,6.9236,6.9236,6.9089,6.8792,6.8498,6.717,6.5291,6.5291,6.5291,6.5365,6.5885,6.6069,6.6145,6.6663,6.6849,6.6849,6.6849,6.6849,6.6953,6.746,6.7604,6.7717,6.8234,6.8608,6.8828,6.8828,6.9229,6.9669,6.9669,6.9893,7.022,7.0763,7.0874,7.102,7.1538,7.1244,7.113,7.1934,7.2081,7.2158,7.2455,7.2492,7.2492,7.2492,7.2492,7.2492,7.2492,7.2492,7.2492,7.2492,7.2492,7.2492,7.2492,7.2492,7.2492,7.2492,7.2492,7.2492,7.2492,7.2232,7.1824,0.0,0.0,0.0,0.0,0.0,0.0,0.0,0.0,0.0,0.0,0.0,0.0,0.0,0.0,0.0,0.0,0.0,0.0,0.0,0.0,0.0,0.0,0.0,0.0,0.0,6.0043,6.049,6.0786,6.104,6.1331,6.163,6.2365,6.3062,6.36,6.442,6.5158,6.5665,6.6209,6.6763,6.728,6.7577,6.7987,6.8505,6.9049,6.9446,6.9732,7.0253,7.0657,7.0921,7.0921,7.0921,7.0921,7.0921,7.077,7.051,7.051,6.9079,6.6913,6.6913,6.6913,6.6983,6.7507,6.7724,6.7801,6.8321,6.8505,6.8505,6.8505,6.8505,6.8612,6.9155,6.9299,6.9412,6.9966,7.0113,7.0113,7.0113,7.0297,7.051,7.051,7.0697,7.1064,7.1604,7.1714,7.1861,7.2415,7.2081,7.1861,7.2419,7.2492,7.2492,7.2492,7.2492,7.2492,7.2492,7.2492,7.2492,7.2492,7.2492,7.2492,7.2492,7.2492,7.2492,7.2492,7.2492,7.2492,7.2492,7.2492,7.2492,7.2492,7.2492,7.2232,7.1714,0.0,0.0,0.0,0.0,0.0,0.0,0.0,0.0,0.0,0.0,0.0,0.0,0.0,0.0,0.0,0.0,0.0,0.0,0.0,0.0,0.0,0.0,0.0,6.0597,6.0487,6.082,6.1637,6.2395,6.3203,6.4099,6.4894,6.5365,6.5402,6.6142,6.6589,6.6623,6.8087,6.8965,6.8962,6.9743,7.015,7.0187,7.0187,7.0587,7.1344,7.1344,7.1751,7.2529,7.2529,7.2565,7.2565,7.2565,7.2085,7.138,7.134,7.0874,7.0187,7.0113,7.0113,7.0113,7.0113,7.0113,7.0113,7.0113,7.0113,7.0113,7.0113,7.0113,7.0113,7.0113,7.015,7.015,7.0187,7.0187,7.0187,7.0187,7.0763,7.1344,7.1344,7.1934,7.2492,7.2492,7.2492,7.2492,7.2529,7.2529,7.2529,7.2492,7.2492,7.2492,7.2529,7.2529,0.0,7.2565,7.2565,7.2565,7.2565,7.2565,7.2565,7.2565,7.2565,7.2565,7.2529,7.2529,7.2529,7.2492,7.2492,7.2492,7.2492,7.2492,7.2492,7.2492,0.0,0.0,0.0,0.0,0.0,0.0,0.0,0.0,0.0,0.0,0.0,0.0,0.0,0.0,0.0,0.0,0.0,0.0,0.0,0.0,0.0,6.3255,6.3102,6.2245,6.2692,6.3396,6.4194,6.4484,6.4928,6.5742,6.6035,6.6656,6.7827,6.8121,6.8491,6.9085,6.9526,7.0033,7.0613,7.0833,7.1241,7.1831,7.1835,7.1941,7.2158,7.2158,7.2602,7.338,7.338,7.3707,7.421,7.3634,7.3233,7.2976,7.2419,7.2048,7.1721,7.0554,7.0113,7.0113,7.0113,7.0113,7.0113,7.0113,7.0113,7.0113,7.0113,7.0113,7.022,7.08,7.098,7.1094,7.1685,7.1835,7.1835,7.1835,7.2015,7.2158,7.2158,7.2342,7.2492,7.2492,7.2492,7.2676,7.327,7.338,7.3193,7.2602,7.2492,7.2712,7.327,7.338,7.3597,7.4177,7.4247,7.4247,7.4247,7.4247,7.4247,7.4247,7.4247,7.3993,7.3417,7.338,7.3123,7.2529,7.2492,7.2492,7.2492,7.2492,7.2492,0.0,0.0,0.0,0.0,0.0,0.0,0.0,0.0,0.0,0.0,0.0,0.0,0.0,0.0,0.0,0.0,0.0,0.0,0.0,0.0,0.0,0.0,6.4604,6.464,6.4824,6.4714,6.4897,6.5702,6.6105,6.6623,6.7427,6.7797,6.8388,6.9335,6.9696,7.0099,7.0583,7.0914,7.1317,7.1788,7.2121,7.2529,7.301,7.3336,7.3516,7.3516,7.3516,7.3736,7.4184,7.4184,7.447,7.487,7.4401,7.4184,7.4184,7.3703,7.3516,7.3333,0.0,0.0,0.0,0.0,7.1101,7.1101,7.1101,7.1101,7.1101,7.1101,7.1101,7.1174,7.1641,7.1788,7.1898,7.2378,7.2492,7.2492,7.2492,7.2492,7.2565,7.2936,7.301,7.3083,7.3443,7.3516,7.3626,7.4107,7.4184,0.0,7.3593,7.3516,7.3663,7.4144,7.4184,7.4364,7.4834,7.4907,7.4907,7.4907,7.4907,7.4907,7.4907,7.4907,0.0,0.0,0.0,7.3854,7.3046,7.301,0.0,0.0,0.0,7.2492,7.2492,7.2492,0.0,0.0,7.1117,7.0865,0.0,0.0,0.0,0.0,0.0,0.0,0.0,0.0,0.0,0.0,0.0,0.0,0.0,0.0,0.0,0.0,6.5588,6.6142,6.7734,6.6733,6.6102,6.6806,6.7547,6.8281,6.9075,6.9813,7.026,7.037,7.102,7.1454,7.1564,7.2268,0.0,0.0,0.0,7.3821,7.3821,7.4544,7.4907,7.4907,7.4907,7.4944,7.5054,7.5054,7.5087,7.5164,7.5054,7.5054,7.5017,7.4944,7.4907,7.476,7.3333,7.2786,7.2786,7.2786,7.2786,7.2786,7.2786,0.0,0.0,7.2639,7.2639,7.2639,7.2639,7.2712,7.2786,7.2786,7.2786,7.2786,7.2786,7.2786,7.2933,7.3674,7.3821,7.4037,7.476,7.4907,7.4944,7.5017,7.5124,7.5201,7.5311,7.5091,7.4944,7.5017,7.5054,7.5091,7.5274,7.5311,7.5348,7.5421,7.5461,0.0,7.5461,7.5388,7.5274,7.5164,7.5014,7.4584,7.3868,7.3835,7.3465,7.2653,7.2653,7.2576,7.2492,7.2492,7.2492,7.2492,7.2492,7.2492,0.0,0.0,0.0,0.0,0.0,0.0,0.0,0.0,0.0,0.0,0.0,0.0,0.0,0.0,0.0,6.7033,6.7253,6.7807,6.9419,6.9379,6.9232,6.9379,6.9529,6.9963,7.076,7.098,7.1351,7.1978,7.2195,7.2565,7.3197,7.3384,7.378,7.443,7.4577,7.4654,7.4654,7.4834,7.4907,7.4907,7.4907,0.0,7.5873,7.5873,7.6232,7.6808,7.6159,7.5873,7.5832,7.5164,7.4907,7.487,7.4577,7.443,7.443,7.443,7.443,7.443,7.443,7.3997,7.3457,7.3457,7.3457,7.3457,7.3457,7.3927,0.0,7.443,7.443,7.443,7.443,7.443,7.4467,7.4617,7.4654,7.4727,7.487,7.4907,7.5091,7.5722,7.6375,7.7069,7.7741,7.6232,7.5131,7.5759,7.5873,7.6346,7.7708,7.7892,7.8116,7.878,7.8854,7.8854,7.8854,7.8262,7.759,7.6881,7.5637,7.4819,7.4654,7.4658,7.4305,7.3485,7.3485,7.3155,7.2492,7.2492,7.2492,7.2492,7.2492,7.2492,0.0,0.0,0.0,0.0,0.0,0.0,0.0,0.0,0.0,0.0,0.0,6.6142,6.6946,0.0,6.75,6.8682,6.8909,6.9309,7.0547,7.069,7.069,7.069,7.069,7.102,7.1824,7.2268,7.2676,7.3083,7.3479,7.3883,7.4294,7.4291,7.447,7.4907,7.5278,7.5678,7.6114,7.6526,7.6933,7.7341,7.7341,7.7565,7.7936,7.7936,7.8152,7.8512,7.8116,7.7936,7.7936,7.7524,7.7341,7.7341,7.7341,7.6346,7.4907,7.4907,7.4907,7.4907,7.4907,7.4654,7.4291,7.4291,7.4291,7.4291,7.4291,7.4581,7.4907,7.4907,7.4907,7.4907,7.4907,7.4907,7.5017,7.5388,7.5825,7.6225,7.6673,7.708,7.7455,7.7863,7.8295,7.8699,7.9147,7.8152,7.7488,7.7899,7.7936,7.8266,7.9074,7.9184,7.9335,7.9775,7.9816,7.9816,7.9816,7.9441,7.8997,7.8585,7.744,7.6566,7.6123,7.5711,7.5102,7.4311,7.4315,7.4109,7.3694,7.3694,7.3694,7.3694,7.3694,7.328,0.0,0.0,0.0,0.0,0.0,0.0,0.0,6.5658,6.5992,6.6803,6.6953,6.7393,6.8858,6.9112,6.9409,7.0183,7.033,7.062,7.1421,7.1527,7.16,7.1751,7.1637,7.1861,7.2679,7.3307,7.3747,7.3931,7.4544,7.4981,7.5131,7.5274,7.5454,7.5604,7.6387,7.7117,7.777,7.8479,7.9147,7.9816,7.9816,7.9816,7.9816,7.9816,7.9816,7.9816,7.9816,7.9816,7.9816,7.9816,7.9816,7.9816,7.9816,7.8189,7.5865,7.5865,7.5751,7.5608,7.5608,7.5421,7.5127,7.5127,7.5127,7.5127,7.5127,7.5237,7.5417,7.5568,7.5608,7.5645,7.5828,7.5865,7.6016,7.6644,7.7297,7.7994,7.8666,7.9331,7.9816,7.9816,7.9922,8.0028,8.0028,8.0143,8.0143,7.9849,7.9816,7.9853,7.9996,8.0028,8.0102,8.0253,8.0257,8.0216,8.0032,8.0028,7.9967,7.9795,7.9188,7.8523,7.7816,7.6994,7.6203,7.5386,7.5227,7.5062,7.4897,7.4897,7.4897,7.4897,7.4897,7.4198,6.5255,6.5218,6.5185,6.5291,6.5845,6.6366,0.0,6.6923,6.766,6.8455,6.8635,6.8895,6.9816,6.9966,7.022,7.1017,7.1164,7.1457,7.2268,7.2378,7.2642,7.3347,7.2789,7.2676,7.3494,7.3641,7.4004,7.4727,7.4834,7.5204,7.5946,7.6628,7.7399,7.8148,7.8968,7.9445,7.9518,7.9629,7.9702,7.9816,7.9816,7.9816,7.9816,7.9816,7.9816,7.9816,7.9816,7.9816,7.9816,7.9816,7.9816,7.9816,7.9816,7.9596,7.9261,7.9261,7.8817,7.8189,7.8189,7.7194,7.5979,7.5979,7.5979,7.5979,7.5979,7.6449,7.7175,7.7961,7.8189,7.8336,7.9074,7.9261,7.9261,7.9372,7.9445,7.9555,7.9629,7.9739,7.9816,7.9816,8.0392,8.0865,8.0865,8.1456,8.146,8.0036,7.9816,8.0065,8.0787,8.0865,8.1154,8.1864,8.1937,8.164,8.0938,8.0865,8.0562,7.9862,7.9715,7.9607,7.952,7.8736,7.7924,7.7063,7.6318,7.5607,7.4897,7.4897,7.4897,7.4897,7.4897,7.4782,6.5882,6.6329,6.6699,6.6699,6.7283,6.7904,6.7904,6.8535,6.9199,6.9526,6.9596,6.9849,7.0657,7.08,7.1057,7.1865,7.2011,7.2268,7.3083,7.3197,7.3487,7.4291,7.4103,7.403,7.4364,7.4808,7.5432,7.6225,7.6783,7.7414,7.8193,7.8556,7.8919,7.9294,7.9629,8.0032,8.0498,8.0502,8.0975,8.1893,8.1893,8.215,8.2594,8.2594,8.2594,8.2594,8.2594,8.2594,8.2557,8.2076,8.1893,8.1852,8.1387,8.1207,8.1093,8.0143,7.9592,7.9298,7.9298,7.8854,7.8266,7.8266,7.8266,7.8266,7.8266,7.8483,7.8846,7.9184,7.9298,7.9372,7.9702,7.9816,7.9816,7.9816,8.0175,8.0502,8.0502,8.0873,8.1207,8.1207,8.1856,8.2398,8.2398,8.3063,8.3361,8.2704,8.1791,8.1497,8.2288,8.2398,8.2692,8.3508,8.3585,8.3283,8.2468,8.2386,8.2068,8.1239,8.0755,8.0486,8.0493,7.9745,7.9116,7.8773,7.8404,7.8071,7.7739,7.7739,7.7739,7.7739,7.7739,7.7753,6.728,6.7914,6.8358,6.8358,6.8792,6.9225,6.9225,6.9669,7.015,7.0403,7.0437,7.0697,7.1494,7.1637,7.1898,7.2712,7.2826,7.312,7.3927,7.4037,7.4401,7.5454,7.5564,7.5747,7.6199,7.6346,7.6783,7.7582,7.8438,7.9184,7.9779,7.9996,8.0216,8.0436,8.0689,8.1199,8.1999,8.1999,8.2582,8.3715,8.3715,8.405,8.4605,8.4605,8.4605,8.4605,8.4605,8.4605,8.4535,8.3976,8.3715,8.3679,8.3104,8.2851,8.2704,8.1534,8.0693,8.0139,8.0139,7.9996,7.9816,7.9816,7.9816,7.9816,7.9816,7.9816,7.9849,8.0069,8.0139,8.0179,8.04,8.0473,8.051,8.0726,8.1232,8.1738,8.1925,8.2443,8.2851,8.2851,8.332,8.3715,8.3715,8.4197,8.4605,8.4605,8.3618,8.3067,8.3646,8.3732,8.3965,8.4556,8.4617,8.4348,8.3789,8.3716,8.3492,8.2892,8.2109,8.1652,8.1652,8.0691,8.0129,8.0134,7.9897,7.9808,7.9808,7.9808,7.9808,7.9808,7.9808,7.9808,6.9779,7.0003,7.0043,7.0043,7.004,7.0076,7.0076,7.008,7.033,7.1087,7.127,7.1527,7.2305,7.2455,7.2712,7.3531,7.3678,7.3931,7.476,7.487,7.5454,7.7028,7.7248,7.788,7.9482,7.8214,7.7619,7.8516,7.9294,7.9779,7.9816,8.0534,8.1305,8.2084,8.2875,8.3679,8.4495,8.4495,8.4531,8.4568,8.4568,8.4572,8.4605,8.4605,8.4605,8.4605,8.4605,8.4605,8.4605,8.4568,8.4568,8.4568,8.4531,8.4535,8.4531,8.4462,8.2953,8.0971,8.0971,8.0465,7.9816,7.9816,7.9816,7.9816,7.9816,7.9816,7.9959,8.0755,8.0971,8.1154,8.1933,8.2121,8.2337,8.3096,8.3308,8.3532,8.4311,8.4495,8.4535,8.4535,8.4535,8.4568,8.4568,8.4572,8.4605,8.4605,8.4572,8.4531,8.4568,8.4549,8.4554,8.4591,8.461,8.4605,8.4568,8.4555,8.4551,8.4518,8.377,8.3313,8.3313,8.1815,8.0951,8.096,8.0211,7.9796,7.9796,7.9796,7.9796,7.9796,7.9796,7.9796,7.004,7.0113,7.0113,7.0113,7.051,7.091,7.091,7.1317,7.1758,7.2048,7.2085,7.2195,7.2455,7.2936,7.3384,7.3678,7.4147,7.4768,7.5575,7.6155,7.6922,7.8031,7.8626,7.9184,7.9743,7.9294,7.9286,8.0131,8.0424,8.1044,8.2145,8.2435,8.2949,8.3765,8.4054,8.4348,8.4605,8.4605,8.4866,8.5384,8.5926,8.6179,8.6179,8.6179,8.6179,8.6179,8.6179,8.6179,8.6142,8.5637,8.5384,8.5347,8.4792,8.4605,8.4605,8.4605,8.4095,8.3393,8.3393,8.3214,8.2998,8.2998,8.2998,8.2998,8.2998,8.2998,8.303,8.332,8.3393,8.343,8.3728,8.3801,8.3871,8.4127,8.4197,8.4274,8.4531,8.4605,8.4605,8.4605,8.5017,8.5384,8.5384,8.5853,8.6179,8.6179,8.5747,8.5384,8.5384,8.5874,8.6172,8.6172,8.6192,8.5969,8.5428,8.5411,8.5166,8.4621,8.4332,8.4212,8.4212,8.3684,8.3145,8.2606,8.2317,8.1942,8.1399,8.1399,8.1399,8.1399,8.1399,8.1399,7.0881,7.0957,7.0957,7.0957,7.1354,7.1714,7.1714,7.2121,7.2492,7.2492,7.2492,7.2602,7.2899,7.3347,7.3898,7.4445,7.4988,7.5718,7.6827,7.7443,7.8174,7.9319,7.9914,8.0304,8.0442,8.0482,8.0587,8.0793,8.1476,8.2254,8.3167,8.3613,8.4009,8.4408,8.4802,8.4965,8.4845,8.5246,8.5706,8.6228,8.6766,8.6982,8.6982,8.6982,8.6982,8.6982,8.6982,8.6982,8.6949,8.644,8.6224,8.6192,8.5669,8.5449,8.5449,8.5449,8.5449,8.5375,8.4792,8.4605,8.4605,8.4605,8.4605,8.4605,8.4605,8.4605,8.4605,8.4605,8.4605,8.4605,8.4605,8.4605,8.4682,8.4976,8.5017,8.5123,8.5412,8.5449,8.5449,8.5449,8.5894,8.6224,8.6224,8.666,8.6982,8.6982,8.655,8.6224,8.6224,8.6693,8.6982,8.6982,8.6982,8.6777,8.6272,8.6231,8.6019,8.5474,8.5185,8.5028,8.502,8.4742,8.4369,8.383,8.3815,8.3562,8.3064,8.3071,8.3078,8.3078,8.3075,8.3059,7.2305,7.2492,7.2492,7.2492,7.2492,7.2492,7.2492,7.2492,7.2492,7.2492,7.2492,7.2753,7.3567,7.3714,7.4261,7.584,7.6163,7.679,7.8373,7.8662,7.9271,0.0,0.0,0.0,0.0,8.173,8.1414,8.0564,8.2229,8.3209,8.2956,8.3933,8.4346,8.4088,8.5135,8.5549,8.522,8.6288,8.6843,8.6843,8.6895,8.6917,8.6917,8.696,8.6982,8.6982,8.6982,8.6982,8.6982,8.6982,8.6982,8.6982,8.6982,8.6982,8.6982,8.6982,8.6982,8.6762,8.5265,8.4715,8.4715,8.4715,8.4715,8.4715,8.4715,8.4715,8.4715,8.4715,8.4715,8.4715,8.4715,8.4715,8.4903,8.5678,8.5865,8.6081,8.6839,8.6982,8.6982,8.6982,8.6982,8.6982,8.6982,8.6982,8.6982,8.6982,8.6982,8.6982,8.6982,8.6982,8.6982,8.6982,8.6982,8.6982,8.6982,8.6982,8.6982,8.6982,8.6276,8.5858,8.5858,8.5149,8.4694,8.4649,8.4647,8.4649,8.4608,8.4605,8.4608,8.4608,8.4585,8.4603,7.2455,7.2492,7.2492,7.2492,7.2492,7.2492,7.2492,7.2492,7.2492,7.2492,7.2492,7.2753,7.3567,7.4184,7.4911,7.5946,7.7157,7.8116,7.8556,7.9613,0.0,8.061,0.0,8.241,8.1407,8.2114,8.2063,8.0756,8.1337,8.2345,8.371,8.3257,8.3208,8.3726,8.4029,8.411,8.4016,8.4324,8.4462,8.4472,8.5338,8.5745,8.5768,8.6598,8.6982,8.6982,8.6982,8.6982,8.6982,8.6982,8.6982,8.6982,8.6982,8.6982,8.6982,8.6982,8.6982,8.6945,8.6546,8.6399,8.6399,8.6399,8.6399,8.6399,8.6399,8.6399,8.6399,8.6399,8.6399,8.6399,8.6399,8.6399,8.6436,8.6656,8.6697,8.6766,8.6949,8.6982,8.6982,8.6982,8.6982,8.6982,8.6982,8.6982,8.6982,8.6982,8.6982,8.6982,8.6982,8.6982,8.6982,8.6982,8.6982,8.6982,8.6982,8.6982,8.6982,8.6982,8.6813,8.669,8.669,8.6485,8.6108,8.5521,8.5469,8.5197,8.4612,8.4582,8.4608,8.4608,8.4616,8.4598,7.2492,7.2492,7.2492,7.2492,7.2492,7.2492,7.2492,7.2492,7.2492,7.2492,7.2492,7.2859,7.4001,7.4581,7.5274,7.6452,7.7745,7.8703,7.9074,8.0071,8.084,0.0,8.186,0.0,8.1083,8.1544,8.1759,8.1245,8.1537,8.2144,8.3086,8.3001,8.2916,8.2843,8.3353,8.3616,8.3616,8.4109,8.4355,8.4365,8.5501,8.6051,8.6069,8.6709,8.6982,8.6982,8.6982,8.6982,8.6982,8.6982,8.6982,8.6982,8.6982,8.6982,8.6982,8.6982,8.6982,8.6982,8.6982,8.6982,8.6982,8.6982,8.6982,8.6982,8.6982,8.6982,8.6982,8.6982,8.6982,8.6982,8.6982,8.6982,8.6982,8.6982,8.6982,8.6982,8.6982,8.6982,8.6982,8.6982,8.6982,8.6982,8.6982,8.6982,8.6982,8.6982,8.6982,8.6982,8.6982,8.6982,8.6982,8.6982,8.6982,8.6982,8.6982,8.6982,8.6982,8.6982,8.6982,8.6982,8.6982,8.6982,8.6777,8.6354,8.6317,8.6108,8.5649,8.5649,8.5649,8.5653,8.5653,8.565,7.2492,7.2565,7.2642,7.2529,7.2565,7.2642,7.2529,7.2492,7.2492,7.2492,7.2565,7.3116,7.461,7.4981,7.5604,7.7212,7.8218,7.9033,7.9849,8.0376,8.0891,8.1567,8.1458,8.1158,8.0686,8.0772,8.1101,8.1647,8.1931,8.2061,8.1904,8.2689,8.2695,8.1711,8.2628,8.3158,8.3158,8.4114,8.4623,8.4638,8.5778,8.6419,8.6544,8.6709,8.6869,8.6982,8.6982,8.6982,8.6982,8.6982,8.6982,8.6982,8.6982,8.6982,8.6982,8.6982,8.6982,8.6982,8.6982,8.6982,8.6982,8.6982,8.6982,8.6982,8.6982,8.6982,8.6982,8.6982,8.6982,8.6982,8.6982,8.6982,8.6982,8.6982,8.6982,8.6982,8.6982,8.6982,8.6982,8.6982,8.6982,8.6982,8.6982,8.6982,8.6982,8.6982,8.6982,8.6982,8.6982,8.6982,8.6982,8.6982,8.6982,8.6982,8.6982,8.6982,8.6982,8.6982,8.6982,8.6982,8.6982,8.6982,8.6982,8.6982,8.6982,8.6982,8.6982,8.6982,8.6982,8.6982,8.6982,8.6982,7.2492,7.2976,7.3344,7.2676,7.301,7.3307,7.2639,7.2492,7.2492,7.2492,7.3046,7.378,7.4724,7.5425,7.6456,7.8112,7.907,7.9882,8.0681,8.1217,8.1434,0.0,8.1837,8.1683,8.0396,8.1153,8.1372,8.0573,8.0554,8.0958,8.1846,8.1192,8.0693,8.0498,8.0681,8.0798,8.0798,8.099,8.1065,8.1083,8.225,8.3264,8.4227,8.5162,8.6101,8.6982,8.6982,8.6982,8.6982,8.6982,8.6982,8.6982,8.6982,8.6982,8.6982,8.6982,8.6982,8.6982,8.6982,8.6982,8.6982,8.6982,8.6982,8.6982,8.6982,8.6982,8.6982,8.6982,8.6982,8.6982,8.6982,8.6982,8.6982,8.6982,8.6982,8.6982,8.6982,8.6982,8.6982,8.6982,8.6982,8.6982,8.6982,8.6982,8.6982,8.6982,8.6982,8.6982,8.6982,8.6982,8.6982,8.6982,8.6982,8.6982,8.6982,8.6982,8.6982,8.6982,8.6982,8.6982,8.6982,8.6982,8.6982,8.6982,8.6982,8.6982,8.6982,8.6982,8.6982,8.6982,8.6982,8.6982,7.301,7.3421,7.3604,7.3233,7.3421,7.3494,7.2676,7.2492,7.2602,7.3046,7.3417,7.4078,7.5318,7.5832,7.6644,7.8336,7.9294,8.0065,8.0897,8.1242,8.1397,8.1223,8.1219,8.0989,8.0261,8.0693,8.0804,8.0225,8.0209,8.0423,8.0996,8.0498,8.0209,8.0209,8.0209,8.0209,8.0209,8.0804,8.1077,8.1089,8.2244,8.3081,8.3631,8.4181,8.504,8.611,8.611,8.6464,8.6982,8.6982,8.6982,8.6982,8.6982,8.6982,8.6982,8.6982,8.6982,8.6982,8.6982,8.6982,8.6982,8.6982,8.6982,8.6982,8.6982,8.6982,8.6982,8.6982,8.6982,8.6982,8.6982,8.6982,8.6982,8.6982,8.6982,8.6982,8.6982,8.6982,8.6982,8.6982,8.6982,8.6982,8.6982,8.6982,8.6982,8.6982,8.6982,8.6982,8.6982,8.6982,8.6982,8.6982,8.6982,8.6982,8.6982,8.6982,8.6982,8.6982,8.6982,8.6982,8.6982,8.6982,8.6982,8.6982,8.6982,8.6982,8.6982,8.6982,8.6982,8.6982,8.6982,8.6982,7.327,7.3567,7.3678,7.3494,7.3567,7.3494,7.2676,7.2642,7.2936,7.3567,7.3971,7.4592,7.5873,7.6236,7.6835,7.8267,7.9048,7.9718,8.0468,8.0754,8.0875,8.0875,8.0473,8.0209,8.0209,8.0209,8.0209,8.0209,8.0209,8.0209,8.0209,8.0209,8.0209,8.0209,8.0209,8.0209,8.0209,8.1077,8.1557,8.1563,8.2425,8.3005,8.325,8.325,8.388,8.4967,8.5191,8.5811,8.667,8.6904,8.6982,8.6982,8.6982,8.6982,8.6982,8.6982,8.6982,8.6982,8.6982,8.6982,8.6982,8.6982,8.6982,8.6982,8.6982,8.6982,8.6982,8.6982,8.6982,8.6982,8.6982,8.6982,8.6982,8.6982,8.6982,8.6982,8.6982,8.6982,8.6982,8.6982,8.6982,8.6982,8.6982,8.6982,8.6982,8.6982,8.6982,8.6982,8.6982,8.6982,8.6982,8.6982,8.6982,8.6982,8.6982,8.6982,8.6982,8.6982,8.6982,8.6982,8.6982,8.6982,8.6982,8.6982,8.6982,8.6982,8.6982,8.6982,8.6982,8.6982,8.6982,8.6982,7.2602,7.3123,7.3531,7.2786,7.316,7.3494,7.2676,7.3083,7.3604,7.3678,7.4849,7.5909,7.6056,7.6705,7.7431,7.8107,7.8302,7.8544,7.9089,7.95,7.9753,7.9753,8.0022,8.0209,8.0209,8.0209,8.0209,8.0209,8.0209,8.0209,8.0209,8.0209,8.0209,8.0209,8.0209,8.0209,8.0209,8.0301,8.0364,8.0364,8.0448,8.1035,8.206,8.206,8.2678,8.3797,8.4837,8.5345,8.5534,8.6567,8.6982,8.6982,8.6982,8.6982,8.6982,8.6982,8.6982,8.6982,8.6982,8.6982,8.6982,8.6982,8.6982,8.6982,8.6982,8.6982,8.6982,8.6982,8.6982,8.6982,8.6982,8.6982,8.6982,8.6982,8.6982,8.6982,8.6982,8.6982,8.6982,8.6982,8.6982,8.6982,8.6982,8.6982,8.6982,8.6982,8.6982,8.6982,8.6982,8.6982,8.6982,8.6982,8.6982,8.6982,8.6982,8.6982,8.6982,8.6982,8.6982,8.6982,8.6982,8.6982,8.6982,8.6982,8.6982,8.6982,8.6982,8.6982,8.6982,8.6982,8.6982,8.6982,7.3083,7.3457,7.3604,7.3307,7.3457,7.3494,7.2676,7.312,7.3821,7.4327,7.5322,7.6236,7.6742,7.7065,7.7727,7.897,7.8622,7.8617,7.9798,7.9736,7.959,7.959,7.9955,8.0209,8.0209,8.0209,8.0209,8.0209,8.0209,8.0209,8.0209,8.0209,8.0209,8.0209,8.0209,8.0209,8.0209,8.0209,8.0209,8.0209,8.0209,8.0423,8.0892,8.1576,8.2152,8.2678,8.4517,8.5288,8.5406,8.6527,8.6982,8.6982,8.6982,8.6982,8.6982,8.6982,8.6982,8.6982,8.6982,8.6982,8.6982,8.6982,8.6982,8.6982,8.6982,8.6982,8.6982,8.6982,8.6982,8.6982,8.6982,8.6982,8.6982,8.6982,8.6982,8.6982,8.6982,8.6982,8.6982,8.6982,8.6982,8.6982,8.6982,8.6982,8.6982,8.6982,8.6982,8.6982,8.6982,8.6982,8.6982,8.6982,8.6982,8.6982,8.6982,8.6982,8.6982,8.6982,8.6982,8.6982,8.6982,8.6982,8.6982,8.6982,8.6982,8.6982,8.6982,8.6982,8.6982,8.6982,8.6982,8.6982,7.3197,7.3347,7.3347,7.3347,7.3347,7.3197,7.2642,7.3303,7.4221,7.4797,7.5718,7.6636,7.7212,7.7285,7.7758,7.9093,7.8412,7.8138,7.9438,7.9345,7.9136,7.9136,7.9765,8.0209,8.0209,8.0209,8.0209,8.0209,8.0209,8.0209,8.0209,8.0209,8.0209,8.0209,8.0209,8.0209,8.0209,8.0209,8.0209,8.0209,8.0209,8.0209,8.0247,8.1016,8.1397,8.1505,8.3797,8.4788,8.4891,8.6374,8.6982,8.6982,8.6982,8.6982,8.6982,8.6982,8.6982,8.6982,8.6982,8.6982,8.6982,8.6982,8.6982,8.6982,8.6982,8.6982,8.6982,8.6982,8.6982,8.6982,8.6982,8.6982,8.6982,8.6982,8.6982,8.6982,8.6982,8.6982,8.6982,8.6982,8.6982,8.6982,8.6982,8.6982,8.6982,8.6982,8.6982,8.6982,8.6982,8.6982,8.6982,8.6982,8.6982,8.6982,8.6982,8.6982,8.6982,8.6982,8.6982,8.6982,8.6982,8.6982,8.6982,8.6982,8.6982,8.6982,8.6982,8.6982,8.6982,8.6982,8.6982,8.6982,7.2492,7.2492,7.2492,7.2492,7.2492,7.2492,7.2492,7.3736,7.4903,7.4907,7.6184,7.7281,7.7285,7.7285,7.7512,7.8115,7.7263,7.671,7.7257,7.7743,7.8013,7.8013,7.9314,8.0209,8.0209,8.0209,8.0209,8.0209,8.0209,8.0209,8.0209,8.0209,8.0209,8.0209,8.0209,8.0209,8.0209,8.0209,8.0209,8.0209,8.0209,8.0209,8.0209,8.0228,8.0234,8.0345,8.2616,8.3631,8.3771,8.6055,8.6982,8.6982,8.6982,8.6982,8.6982,8.6982,8.6982,8.6982,8.6982,8.6982,8.6982,8.6982,8.6982,8.6982,8.6982,8.6982,8.6982,8.6982,8.6982,8.6982,8.6982,8.6982,8.6982,8.6982,8.6982,8.6982,8.6982,8.6982,8.6982,8.6982,8.6982,8.6982,8.6982,8.6982,8.6982,8.6982,8.6982,8.6982,8.6982,8.6982,8.6982,8.6982,8.6982,8.6982,8.6982,8.6982,8.6982,8.6982,8.6982,8.6982,8.6982,8.6982,8.6982,8.6982,8.6982,8.6982,8.6982,8.6982,8.6982,8.6982,8.6982,8.6982,7.2492,7.2492,7.2492,7.2492,7.2492,7.2492,7.2492,7.3733,7.4907,7.4907,7.6188,7.7285,7.7285,7.7285,7.775,7.9068,7.7711,7.7121,7.8961,7.8517,7.8191,7.868,7.96,8.0209,8.0209,8.0209,8.0209,8.0209,8.0209,8.0209,8.0209,8.0209,8.0209,8.0209,8.0209,8.0209,8.0209,8.0209,8.0209,8.0209,8.0209,8.0209,8.0247,8.102,8.0941,8.0376,8.342,8.433,8.379,8.6051,8.6982,8.6982,8.6982,8.6982,8.6982,8.6982,8.6982,8.6982,8.6982,8.6982,8.6982,8.6982,8.6982,8.6982,8.6982,8.6982,8.6982,8.6982,8.6982,8.6982,8.6982,8.6982,8.6982,8.6982,8.6982,8.6982,8.6982,8.6982,8.6982,8.6982,8.6982,8.6982,8.6982,8.6982,8.6982,8.6982,8.6982,8.6982,8.6982,8.6982,8.6982,8.6982,8.6982,8.6982,8.6982,8.6982,8.6982,8.6982,8.6982,8.6982,8.6982,8.6982,8.6982,8.6982,8.6982,8.6982,8.6982,8.6982,8.6982,8.6982,8.6982,8.6982,7.2492,7.2492,7.2492,7.2492,7.2492,7.2492,7.2492,7.3733,7.4907,7.4907,7.6188,7.7285,7.7285,7.7285,7.7839,7.9518,7.7955,7.7346,7.9772,7.889,7.8394,7.939,7.9932,8.0209,8.0209,8.0209,8.0209,8.0209,8.0209,8.0209,8.0209,8.0209,8.0209,8.0209,8.0209,8.0209,8.0209,8.0209,8.0209,8.0209,8.0209,8.0209,8.02,8.0935,8.0862,8.0376,8.3345,8.4268,0.0,8.6051,8.6982,8.6982,8.6982,8.6982,8.6982,8.6982,8.6982,8.6982,8.6982,8.6982,8.6982,8.6982,8.6982,8.6982,8.6982,8.6982,8.6982,8.6982,8.6982,8.6982,8.6982,8.6982,8.6982,8.6982,8.6982,8.6982,8.6982,8.6982,8.6982,8.6982,8.6982,8.6982,8.6982,8.6982,8.6982,8.6982,8.6982,8.6982,8.6982,8.6982,8.6982,8.6982,8.6982,8.6982,8.6982,8.6982,8.6982,8.6982,8.6982,8.6982,8.6982,8.6982,8.6982,8.6982,8.6982,8.6982,8.6982,8.6982,8.6982,8.6982,8.6982,8.6982,0.0,7.2492,7.2492,7.2492,7.2492,7.2492,7.2492,0.0,0.0,7.4907,7.6188,7.7285,7.7285,7.7239,7.7777,7.9507,7.7865,7.7262,7.9832,7.8993,7.8665,8.0046,8.0209,8.0209,8.0209,8.0209,8.0209,8.0209,8.0209,8.0209,8.0209,8.0209,8.0209,8.0209,8.0209,8.0209,8.0209,8.0209,8.0209,8.0209,8.0209,8.0209,8.0209,8.0209,8.0209,8.032,8.2504,8.3541,8.3785,8.5977,8.6925,8.6982,8.6982,8.6982,8.6982,8.6982,8.6982,8.6982,8.6982,8.6982,8.6982,8.6982,8.6982,8.6982,8.6982,8.6982,8.6982,8.6982,8.6982,8.6982,8.6982,8.6982,8.6982,8.6982,8.6982,8.6982,8.6982,8.6982,8.6982,8.6982,8.6982,8.6982,8.6982,8.6982,8.6982,8.6982,8.6982,8.6982,8.6982,8.6982,8.6982,8.6982,8.6982,8.6982,8.6982,8.6982,8.6982,8.6982,8.6982,8.6982,8.6982,8.6982,8.6982,8.6982,8.6982,8.6982,8.6982,8.6982,8.6982,8.6982,8.6982,8.6982,7.2492,0.0,7.2492,7.2492,7.2492,7.2492,0.0,0.0,0.0,0.0,0.0,7.7285,7.7285,7.6656,7.6949,7.9415,7.7301,7.6657,8.0416,8.0213,7.9809,8.0175,8.0209,8.0209,8.0209,8.0209,8.0209,8.0209,8.0209,8.0209,8.0209,8.0209,8.0209,8.0209,8.0209,8.0209,8.0209,8.0209,8.0209,8.0209,8.0209,8.0209,8.0209,8.0209,8.0209,8.0269,8.1682,8.2795,8.3727,8.5118,8.6224,8.6982,8.6982,8.6982,8.6982,8.6982,8.6982,8.6982,8.6982,8.6982,8.6982,8.6982,8.6982,8.6982,8.6982,8.6982,8.6982,8.6982,8.6982,8.6982,8.6982,8.6982,8.6982,8.6982,8.6982,8.6982,8.6982,8.6982,8.6982,8.6982,8.6982,8.6982,8.6982,8.6982,8.6982,8.6982,8.6982,8.6982,8.6982,8.6982,8.6982,8.6982,8.6982,8.6982,8.6982,8.6982,8.6982,8.6982,8.6982,8.6982,8.6982,8.6982,8.6982,8.6982,8.6982,8.6982,8.6982,8.6982,8.6982,8.6982,8.6982,8.6982,7.2492,7.2492,7.2492,7.2492,7.2492,7.2492,7.2492,0.0,0.0,0.0,0.0,7.6848,7.7248,7.7181,7.7521,7.8858,7.7775,7.759,7.9897,8.0217,8.0209,8.0209,8.0209,8.0209,8.0209,8.0209,8.0209,8.0209,8.0209,8.0209,8.0209,8.0209,8.0209,8.0209,8.0209,8.0209,8.0209,8.0209,8.0209,8.0209,8.0209,8.0209,8.0209,8.0209,8.0209,8.025,8.1403,8.2543,8.3706,8.4817,8.5986,8.6982,8.6982,8.6982,8.6982,8.6982,8.6982,8.6982,8.6982,8.6982,8.6982,8.6982,8.6982,8.6982,8.6982,8.6982,8.6982,8.6982,8.6982,8.6982,8.6982,8.6982,8.6982,8.6982,8.6982,8.6982,8.6982,8.6982,8.6982,8.6982,8.6982,8.6982,8.6982,8.6982,8.6982,8.6982,8.6982,8.6982,8.6982,8.6982,8.6982,8.6982,8.6982,8.6982,8.6982,8.6982,8.6982,8.6982,8.6982,8.6982,8.6982,8.6982,8.6982,8.6982,8.6982,8.6982,8.6982,8.6982,8.6982,8.6982,8.6982,8.6982,7.2492,7.2492,7.2492,7.2492,7.2492,7.2492,7.2492,0.0,0.0,0.0,0.0,0.0,0.0,7.7889,7.8334,7.8229,7.8639,7.9046,7.9096,7.9729,8.0209,8.0209,8.0209,8.0209,8.0209,8.0209,8.0209,8.0209,8.0209,8.0209,8.0209,8.0209,8.0209,8.0209,8.0209,8.0209,8.0209,8.0209,8.0209,8.0209,8.0209,8.0209,8.0209,8.0209,8.0209,8.0238,8.1228,8.2301,8.3445,8.4573,8.5722,8.6753,8.693,8.6982,8.6982,8.6982,8.6982,8.6982,8.6982,8.6982,8.6982,8.6982,8.6982,8.6982,8.6982,8.6982,8.6982,8.6982,8.6982,8.6982,8.6982,8.6982,8.6982,8.6982,8.6982,8.6982,8.6982,8.6982,8.6982,8.6982,8.6982,8.6982,8.6982,8.6982,8.6982,8.6982,8.6982,8.6982,8.6982,8.6982,8.6982,8.6982,8.6982,8.6982,8.6982,8.6982,8.6982,8.6982,8.6982,8.6982,8.6982,8.6982,8.6982,8.6982,8.6982,8.6982,8.6982,8.6982,8.6982,8.6982,8.6982,8.6982,7.2492,7.2492,7.2492,7.2492,7.2492,7.2492,7.2492,0.0,0.0,0.0,0.0,0.0,0.0,7.7267,7.7448,7.8088,7.8928,7.9408,7.9149,7.9729,8.0209,8.0209,8.0209,8.0209,8.0209,8.0209,8.0209,8.0209,8.0209,8.0209,8.0209,8.0209,8.0209,8.0209,8.0209,8.0209,8.0209,8.0209,8.0209,8.0209,8.0209,8.0209,8.0209,8.0209,8.0209,8.0221,8.0395,8.1101,8.2261,8.3377,8.4532,8.5643,8.6607,8.6982,8.6982,8.6982,8.6982,8.6982,8.6982,8.6982,8.6982,8.6982,8.6982,8.6982,8.6982,8.6982,8.6982,8.6982,8.6982,8.6982,8.6982,8.6982,8.6982,8.6982,8.6982,8.6982,8.6982,8.6982,8.6982,8.6982,8.6982,8.6982,8.6982,8.6982,8.6982,8.6982,8.6982,8.6982,8.6982,8.6982,8.6982,8.6982,8.6982,8.6982,8.6982,8.6982,8.6982,8.6982,8.6982,8.6982,8.6982,8.6982,8.6982,8.6982,8.6982,8.6982,8.6982,8.6982,8.6982,8.6982,8.6982,8.6982,7.2492,7.2492,7.2492,7.2492,7.2492,7.2492,7.2492,0.0,0.0,0.0,0.0,0.0,0.0,7.828,7.8804,7.9699,7.9195,7.8978,7.9607,8.0006,8.0209,8.0209,8.0209,8.0209,8.0209,8.0209,8.0209,8.0209,8.0209,8.0209,8.0209,8.0209,8.0209,8.0209,8.0209,8.0209,8.0209,8.0209,8.0209,8.0209,8.0209,8.0209,8.0209,8.0209,8.0209,8.0209,8.0209,8.0837,8.1985,8.3142,8.4284,8.5425,8.6549,8.6982,8.6982,8.6982,8.6982,8.6982,8.6982,8.6982,8.6982,8.6982,8.6982,8.6982,8.6982,8.6982,8.6982,8.6982,8.6982,8.6982,8.6982,8.6982,8.6982,8.6982,8.6526,8.6067,8.6067,8.6067,8.5899,8.5276,8.5653,8.5899,8.5276,8.5153,8.5358,8.5985,8.5567,8.5608,8.6854,8.6444,8.6317,8.6941,8.6982,8.6982,8.6982,8.6982,8.6982,8.6982,8.6982,8.6982,8.6982,8.6982,8.6982,8.6982,8.6982,8.6982,8.6982,8.6982,8.6982,8.6982,8.6982,8.6982,7.2492,7.2492,7.2492,7.2492,0.0,7.2565,7.2753,0.0,0.0,0.0,0.0,0.0,0.0,7.9348,8.0256,8.1079,7.9768,7.9021,8.005,8.0209,8.0209,8.0209,8.0209,8.0209,8.0209,8.0209,8.0209,8.0209,8.0209,8.0209,8.0209,8.0209,8.0209,8.0209,8.0209,8.0209,8.0209,8.0209,8.0209,8.0209,8.0209,8.0209,8.0209,8.0209,8.0209,8.0209,8.0209,8.0693,8.1599,8.3032,8.4129,8.5026,8.6142,8.6589,8.6615,8.6904,8.6982,8.6982,8.6982,8.6982,8.6982,8.6982,8.6982,8.6982,8.6982,8.6982,8.6982,8.6982,8.6982,8.6982,8.6982,8.6813,8.6608,8.6608,8.5735,8.4899,8.4899,8.4918,8.463,8.3767,8.431,8.4605,8.3754,8.3586,8.4004,8.511,8.4546,8.4715,8.6746,8.6242,8.6026,8.69,8.6982,8.6982,8.6982,8.6982,8.6982,8.6982,8.6982,8.6982,8.6982,8.6982,8.6982,8.6982,8.6982,8.6982,8.6982,8.6982,8.6982,8.6982,8.6982,8.6982,7.2492,7.2492,7.2492,7.2492,7.2492,0.0,7.3457,0.0,0.0,0.0,0.0,0.0,0.0,7.9664,8.0675,8.1144,8.0849,8.052,8.0256,8.0209,8.0209,8.0209,8.0209,8.0209,8.0209,8.0209,8.0209,8.0209,8.0209,8.0209,8.0209,8.0209,8.0209,8.0209,8.0209,8.0209,8.0209,8.0209,8.0209,8.0209,8.0209,8.0209,8.0209,8.0209,8.0209,8.0209,8.0209,8.0265,8.0486,8.2683,8.3663,8.3853,8.4991,8.5434,8.5549,8.6593,8.6982,8.6982,8.6982,8.6982,8.6982,8.6982,8.6982,8.6982,8.6982,8.6982,8.6982,8.6982,8.6982,8.6982,8.6982,8.6231,8.5403,8.5403,8.4563,8.3728,8.3728,8.3731,8.3706,8.3633,8.3681,8.3705,8.3618,8.3618,8.3979,8.5128,8.5233,8.5631,8.6835,8.6936,8.69,8.6982,8.6982,8.6982,8.6982,8.6982,8.6982,8.6982,8.6982,8.6982,8.6982,8.6982,8.6982,8.6982,8.6982,8.6982,8.6982,8.6982,8.6982,8.6982,8.6982,8.6982,7.2492,7.2492,7.2602,7.312,0.0,0.0,0.0,0.0,0.0,0.0,7.7517,0.0,0.0,8.0537,8.065,8.176,8.0724,7.9863,8.0149,8.0209,8.0209,8.0209,8.0209,8.0209,8.0209,8.0209,8.0209,8.0209,8.0209,8.0209,8.0209,8.0209,8.0209,8.0209,8.0209,8.0209,8.0209,8.0209,8.0209,8.0209,8.0209,8.0209,8.0209,8.0209,8.0209,8.0209,8.0209,8.0209,8.032,8.191,8.2538,8.2656,8.3786,8.4253,8.4386,8.552,8.5927,8.6051,8.6749,8.6982,8.6982,8.6982,8.6982,8.6982,8.6982,8.6982,8.6982,8.6982,8.6982,8.6982,8.6982,8.6149,8.5317,8.5317,8.3896,8.2532,8.2535,8.2549,8.2346,8.1617,8.2061,8.2328,8.1607,8.148,8.1874,8.3003,8.3191,8.3842,8.57,8.5944,8.6194,8.6936,8.6982,8.6982,8.6982,8.6982,8.6982,8.6982,8.6982,8.6982,8.6982,8.6982,8.6982,8.6982,8.6982,8.6982,8.6982,8.6982,8.6982,8.6982,8.6982,8.6982,7.2492,7.2492,7.2679,7.3494,0.0,0.0,0.0,0.0,0.0,0.0,7.8585,0.0,8.2186,0.0,8.1287,8.2231,8.1049,8.0044,8.017,8.0209,8.0209,8.0209,8.0209,8.0209,8.0209,8.0209,8.0209,8.0209,8.0209,8.0209,8.0209,8.0209,8.0209,8.0209,8.0209,8.0209,8.0209,8.0209,8.0209,8.0209,8.0209,8.0209,8.0209,8.0209,8.0209,8.0209,8.0209,8.0209,8.0282,8.1433,8.1887,8.2008,8.3134,8.3396,8.3218,8.435,8.4753,8.4857,8.5665,8.594,8.594,8.594,8.594,8.594,8.594,8.6192,8.6473,8.6473,8.6472,8.6444,8.6444,8.5608,8.4687,8.4325,8.2775,8.1348,8.1348,8.1346,8.112,8.0348,8.0841,8.1113,8.0342,8.0209,8.058,8.174,8.2203,8.3131,8.5042,8.5608,8.6149,8.6936,8.6982,8.6982,8.6982,8.6982,8.6982,8.6982,8.6982,8.6982,8.6982,8.6982,8.6982,8.6982,8.6982,8.6982,8.6982,8.6982,8.6982,8.6982,8.6982,8.6982,7.2492,7.2492,7.2712,7.349,7.4327,0.0,7.6955,0.0,0.0,7.8442,7.9906,8.1517,8.3128,8.3128,8.2778,8.2462,8.2127,8.1504,8.037,8.0209,8.0209,8.0209,8.0209,8.0209,8.0209,8.0209,8.0209,8.0209,8.0209,8.0209,8.0209,8.0209,8.0209,8.0209,8.0209,8.0209,8.0209,8.0209,8.0209,8.0209,8.0209,8.0209,8.0209,8.0209,8.0209,8.0209,8.0209,8.0209,8.0282,8.1421,8.1869,8.1991,8.3142,8.2883,8.202,8.3144,8.3564,8.36,8.361,8.3616,8.3616,8.3616,8.3616,8.3616,8.3616,8.4401,8.5288,8.5283,8.5273,8.5276,8.5276,8.4418,8.3301,8.2168,8.1027,8.0209,8.0209,8.0209,8.0209,8.0209,8.0209,8.0209,8.0209,8.0209,8.0574,8.17,8.2863,8.4002,8.5172,8.6313,8.6982,8.6982,8.6982,8.6982,8.6982,8.6982,8.6982,8.6982,8.6982,8.6982,8.6982,8.6982,8.6982,8.6982,8.6982,8.6982,8.6982,8.6982,8.6982,8.6982,8.6982,8.6982,7.2492,7.2899,0.0,7.4327,7.5131,0.0,0.0,7.8218,0.0,0.0,8.1554,8.3018,8.4054,8.3296,8.2699,8.3162,8.1806,8.0598,8.0265,8.0209,8.0209,8.0209,8.0209,8.0209,8.0209,8.0209,8.0209,8.0209,8.0209,8.0209,8.0209,8.0209,8.0209,8.0209,8.0209,8.0209,8.0209,8.0209,8.0209,8.0209,8.0209,8.0209,8.0209,8.0209,8.0209,8.0209,8.0209,8.0209,8.0247,8.0573,8.0706,8.0743,8.1093,8.1008,8.0831,8.1974,8.2391,8.2515,8.3337,8.3616,8.3616,8.3616,8.3616,8.3616,8.3616,8.4401,8.5147,8.4341,8.468,8.494,8.3315,8.2642,8.232,8.1995,8.1027,8.0209,8.0209,8.0209,8.0209,8.0209,8.0209,8.0209,8.0209,8.0209,8.0308,8.0661,8.2368,8.4304,8.626,8.6777,8.6982,8.6982,8.6982,8.6982,8.6982,8.6982,8.6982,8.6982,8.6982,8.6982,8.6982,8.6982,8.6982,8.6982,8.6982,8.6982,8.6982,8.6982,8.6982,8.6982,8.6982,8.6982,7.2492,7.3083,0.0,7.4687,7.5751,7.7113,7.9099,0.0,0.0,0.0,8.2724,8.3603,8.4262,8.3311,8.2531,8.2864,8.1379,8.0209,8.0209,8.0209,8.0209,8.0209,8.0209,8.0209,8.0209,8.0209,8.0209,8.0209,8.0209,8.0209,8.0209,8.0209,8.0209,8.0209,8.0209,8.0209,8.0209,8.0209,8.0209,8.0209,8.0209,8.0209,8.0209,8.0209,8.0209,8.0209,8.0209,8.0209,8.0209,8.0209,8.0209,8.0209,8.0209,8.0209,8.0276,8.0978,8.1234,8.1307,8.1997,8.225,8.225,8.225,8.225,8.225,8.225,8.3051,8.3828,8.3135,8.3426,8.3646,8.2265,8.1564,8.1207,8.1207,8.0707,8.0209,8.0209,8.0209,8.0209,8.0209,8.0209,8.0209,8.0209,8.0209,8.0348,8.08,8.2829,8.4937,8.6743,8.6982,8.6982,8.6982,8.6982,8.6982,8.6982,8.6982,8.6982,8.6982,8.6982,8.6982,8.6982,8.6982,8.6982,8.6982,8.6982,8.6982,8.6982,8.6982,8.6982,8.6982,8.6982,8.6982,7.2492,7.3156,7.3968,7.4727,7.6225,0.0,8.0453,8.1118,8.1628,8.3091,8.3532,8.3726,8.4031,8.3243,8.2372,8.1979,8.0947,8.0209,8.0209,8.0209,8.0209,8.0209,8.0209,8.0209,8.0209,8.0209,8.0209,8.0209,8.0209,8.0209,8.0209,8.0209,8.0209,8.0209,8.0209,8.0209,8.0209,8.0209,8.0209,8.0209,8.0209,8.0209,8.0209,8.0209,8.0209,8.0209,8.0209,8.0209,8.0209,8.0209,8.0209,8.0209,8.0209,8.0209,8.0209,8.0209,8.0209,8.0209,8.0209,8.0209,8.0209,8.0209,8.0209,8.0209,8.0209,8.0988,8.1879,8.1787,8.1819,8.1871,8.1785,8.0978,8.0209,8.0209,8.0209,8.0209,8.0209,8.0209,8.0209,8.0209,8.0209,8.0209,8.0209,8.0209,8.0611,8.1873,8.3917,8.5694,8.6854,8.6982,8.6982,8.6982,8.6982,8.6982,8.6982,8.6982,8.6982,8.6982,8.6982,8.6982,8.6982,8.6982,8.6982,8.6982,8.6982,8.6982,8.6982,8.6982,8.6982,8.6982,8.6982,8.6982,7.2492,7.3553,0.0,7.487,7.7117,7.9584,8.0714,8.199,8.2981,8.3348,8.4384,8.5023,8.4257,8.3671,8.3023,8.2049,8.0947,8.0209,8.0209,8.0209,8.0209,8.0209,8.0209,8.0209,8.0209,8.0209,8.0209,8.0209,8.0209,8.0209,8.0209,8.0209,8.0209,8.0209,8.0209,8.0209,8.0209,8.0209,8.0209,8.0209,8.0209,8.0209,8.0209,8.0209,8.0209,8.0209,8.0209,8.0209,8.0209,8.0209,8.0209,8.0209,8.0209,8.0209,8.0209,8.0209,8.0209,8.0209,8.0209,8.0209,8.0209,8.0209,8.0209,8.0209,8.0209,8.099,8.1706,8.0814,8.1196,8.1681,8.0797,8.0391,8.0209,8.0209,8.0209,8.0209,8.0209,8.0209,8.0209,8.0209,8.0209,8.0209,8.0209,8.0209,8.0905,8.2913,8.4423,8.5694,8.6854,8.6982,8.6982,8.6982,8.6982,8.6982,8.6982,8.6982,8.6982,8.6982,8.6982,8.6982,8.6982,8.6982,8.6982,8.6982,8.6982,8.6982,8.6982,8.6982,8.6982,8.6982,8.6982,8.6982,7.2492,7.3663,7.5274,7.686,7.8523,8.0106,8.1305,8.2806,8.3976,8.3976,8.4506,8.4767,8.3987,8.3279,8.2397,8.1253,8.0598,8.0209,8.0209,8.0209,8.0209,8.0209,8.0209,8.0209,8.0209,8.0209,8.0209,8.0209,8.0209,8.0209,8.0209,8.0209,8.0209,8.0209,8.0209,8.0209,8.0209,8.0209,8.0209,8.0209,8.0209,8.0209,8.0209,8.0209,8.0209,8.0209,8.0209,8.0209,8.0209,8.0209,8.0209,8.0209,8.0209,8.0209,8.0209,8.0209,8.0209,8.0209,8.0209,8.0209,8.0209,8.0209,8.0209,8.0209,8.0209,8.0614,8.0974,8.0354,8.0621,8.094,8.0348,8.0209,8.0209,8.0209,8.0209,8.0209,8.0209,8.0209,8.0209,8.0209,8.0209,8.0209,8.0209,8.1113,8.2435,8.4164,8.5398,8.6317,8.6936,8.6982,8.6982,8.6982,8.6982,8.6982,8.6982,8.6982,8.6982,8.6982,8.6982,8.6982,8.6982,8.6982,8.6982,8.6982,8.6982,8.6982,8.6982,8.6982,8.6982,8.6982,8.6982,8.6982,7.2492,7.3663,7.5682,7.8964,7.9816,8.0216,8.1827,8.3434,8.4605,8.4605,8.4437,8.421,8.3935,8.2811,8.1582,8.0638,8.0332,8.0209,8.0209,8.0209,8.0209,8.0209,8.0209,8.0209,8.0209,8.0209,8.0209,8.0209,8.0209,8.0209,8.0209,8.0209,8.0209,8.0209,8.0209,8.0209,8.0209,8.0209,8.0209,8.0209,8.0209,8.0209,8.0209,8.0209,8.0209,8.0209,8.0209,8.0209,8.0209,8.0209,8.0209,8.0209,8.0209,8.0209,8.0209,8.0209,8.0209,8.0209,8.0209,8.0209,8.0209,8.0209,8.0209,8.0209,8.0209,8.0209,8.0209,8.0209,8.0209,8.0209,8.0209,8.0209,8.0209,8.0209,8.0209,8.0209,8.0209,8.0209,8.0209,8.0209,8.0209,8.0209,8.0209,8.2077,8.3907,8.4854,8.6149,8.6982,8.6982,8.6982,8.6982,8.6982,8.6982,8.6982,8.6982,8.6982,8.6982,8.6982,8.6982,8.6982,8.6982,8.6982,8.6982,8.6982,8.6982,8.6982,8.6982,8.6982,8.6982,8.6982,8.6982,8.6982,7.2492,7.3663,7.5682,7.8964,7.9816,8.0216,8.1827,8.3434,8.4605,8.4605,8.4882,8.5136,8.5068,8.3329,8.1834,8.1699,8.0831,8.0209,8.0209,8.0209,8.0209,8.0209,8.0209,8.0209,8.0209,8.0209,8.0209,8.0209,8.0209,8.0209,8.0209,8.0209,8.0209,8.0209,8.0209,8.0209,8.0209,8.0209,8.0209,8.0209,8.0209,8.0209,8.0209,8.0209,8.0209,8.0209,8.0209,8.0209,8.0209,8.0209,8.0209,8.0209,8.0209,8.0209,8.0209,8.0209,8.0209,8.0209,8.0209,8.0209,8.0209,8.0209,8.0209,8.0209,8.0209,8.0209,8.0209,8.0209,8.0209,8.0209,8.0209,8.0209,8.0209,8.0209,8.0209,8.0209,8.0209,8.0209,8.0209,8.0209,8.0209,8.0209,8.0209,8.2106,8.3647,8.3781,8.5649,8.6982,8.6982,8.6982,8.6982,8.6982,8.6982,8.6982,8.6982,8.6982,8.6982,8.6982,8.6982,8.6982,8.6982,8.6982,8.6982,8.6982,8.6982,8.6982,8.6982,8.6982,8.6982,8.6982,8.6982,8.6982,7.359,7.4357,7.5682,7.8964,7.9816,8.0216,8.1827,8.3434,8.4605,8.4605,8.4468,8.4355,8.4355,8.247,8.0953,8.0953,8.0529,8.0209,8.0209,8.0209,8.0209,8.0209,8.0209,8.0209,8.0209,8.0209,8.0209,8.0209,8.0209,8.0209,8.0209,8.0209,8.0209,8.0209,8.0209,8.0209,8.0209,8.0209,8.0209,8.0209,8.0209,8.0209,8.0209,8.0209,8.0209,8.0209,8.0209,8.0209,8.0209,8.0209,8.0209,8.0209,8.0209,8.0209,8.0209,8.0209,8.0209,8.0209,8.0209,8.0209,8.0209,8.0209,8.0209,8.0209,8.0209,8.0209,8.0209,8.0209,8.0209,8.0209,8.0209,8.0209,8.0209,8.0209,8.0209,8.0209,8.0209,8.0209,8.0209,8.0209,8.0209,8.0614,8.188,8.2923,8.4026,8.5297,8.6358,8.6982,8.6982,8.6982,8.6982,8.6982,8.6982,8.6982,8.6982,8.6982,8.6982,8.6982,8.6982,8.6982,8.6982,8.6982,8.6982,8.6982,8.6982,8.6982,8.6982,8.6982,8.6982,8.6982,8.6982,8.6982,7.4467,7.4907,7.5641,7.8744,7.9665,8.0179,8.1566,8.3136,8.4348,8.4568,8.3886,8.3362,8.3545,8.1723,8.0288,8.0564,8.0401,8.0209,8.0209,8.0209,8.0209,8.0209,8.0209,8.0209,8.0209,8.0209,8.0209,8.0209,8.0209,8.0209,8.0209,8.0209,8.0209,8.0209,8.0209,8.0209,8.0209,8.0209,8.0209,8.0209,8.0209,8.0209,8.0209,8.0209,8.0209,8.0209,8.0209,8.0209,8.0209,8.0209,8.0209,8.0209,8.0209,8.0209,8.0209,8.0209,8.0209,8.0209,8.0209,8.0209,8.0209,8.0209,8.0209,8.0209,8.0209,8.0209,8.0209,8.0209,8.0209,8.0209,8.0209,8.0209,8.0209,8.0209,8.0209,8.0209,8.0209,8.0209,8.0209,8.0209,8.0209,8.0841,8.2823,8.3411,8.4262,8.6277,8.6813,8.6982,8.6982,8.6982,8.6982,8.6982,8.6982,8.6982,8.6982,8.6982,8.6982,8.6982,8.6982,8.6982,8.6982,8.6982,8.6982,8.6982,8.6982,8.6982,8.6982,8.6982,8.6982,8.6982,8.6982,8.6982,7.4467,7.4907,7.5498,7.8038,7.9225,8.0032,8.0865,8.2325,8.3679,8.4458,8.3459,8.2715,8.3469,8.1723,8.056,8.1635,8.0899,8.0209,8.0209,8.0209,8.0209,8.0209,8.0209,8.0209,8.0209,8.0209,8.0209,8.0209,8.0209,8.0209,8.0209,8.0209,8.0209,8.0209,8.0209,8.0209,8.0209,8.0209,8.0209,8.0209,8.0209,8.0209,8.0209,8.0209,8.0209,8.0209,8.0209,8.0209,8.0209,8.0209,8.0209,8.0209,8.0209,8.0209,8.0209,8.0209,8.0209,8.0209,8.0209,8.0209,8.0209,8.0209,8.0209,8.0209,8.0209,8.0209,8.0209,8.0209,8.0209,8.0209,8.0209,8.0209,8.0209,8.0209,8.0209,8.0209,8.0209,8.0209,8.0209,8.0209,8.0209,8.0574,8.1787,8.2893,8.4009,8.5204,8.6317,8.6982,8.6982,8.6982,8.6982,8.6982,8.6982,8.6982,8.6982,8.6982,8.6982,8.6982,8.6982,8.6982,8.6982,8.6982,8.6982,8.6982,8.6982,8.6982,8.6982,8.6982,8.6982,8.6982,8.6982,8.6982,7.4617,7.5274,7.6126,7.8112,7.9184,7.9996,8.0828,8.2247,8.3438,8.3496,8.2923,8.2416,8.2499,8.1252,8.0332,8.0749,8.0461,8.0209,8.0209,8.0209,8.0209,8.0209,8.0209,8.0209,8.0209,8.0209,8.0209,8.0209,8.0209,8.0209,8.0209,8.0209,8.0209,8.0209,8.0209,8.0209,8.0209,8.0209,8.0209,8.0209,8.0209,8.0209,8.0209,8.0209,8.0209,8.0209,8.0209,8.0209,8.0209,8.0209,8.0209,8.0209,8.0209,8.0209,8.0209,8.0209,8.0209,8.0209,8.0209,8.0209,8.0209,8.0209,8.0209,8.0209,8.0209,8.0209,8.0209,8.0209,8.0209,8.0209,8.0209,8.0209,8.0209,8.0209,8.0209,8.0209,8.0209,8.0209,8.0209,8.0209,8.0794,8.1653,8.2776,8.3948,8.5067,8.6231,8.6731,8.6982,8.6982,8.6982,8.6982,8.6982,8.6982,8.6982,8.6982,8.6982,8.6982,8.6982,8.6982,8.6982,8.6982,8.6982,8.6982,8.6982,8.6982,8.6982,8.6982,8.6982,8.6982,8.6982,8.6982,8.6982,7.5021,7.5685,7.6423,7.7814,7.8997,7.9922,8.0465,8.1852,8.2998,8.3065,8.2495,8.2001,8.2064,8.1044,8.0209,8.0209,8.0209,8.0209,8.0209,8.0209,8.0209,8.0209,8.0209,8.0209,8.0209,8.0209,8.0209,8.0209,8.0209,8.0209,8.0209,8.0209,8.0209,8.0209,8.0209,8.0209,8.0209,8.0209,8.0209,8.0209,8.0209,8.0209,8.0209,8.0209,8.0209,8.0209,8.0209,8.0209,8.0209,8.0209,8.0209,8.0209,8.0209,8.0209,8.0209,8.0209,8.0209,8.0209,8.0209,8.0209,8.0209,8.0209,8.0209,8.0209,8.0209,8.0209,8.0209,8.0209,8.0209,8.0209,8.0209,8.0209,8.0209,8.0209,8.0209,8.0209,8.0209,8.0209,8.0308,8.0707,8.138,8.2374,8.3918,8.4818,8.5689,8.6818,8.6982,8.6982,8.6982,8.6982,8.6982,8.6982,8.6982,8.6982,8.6982,8.6982,8.6982,8.6982,8.6982,8.6982,8.6982,8.6982,8.6982,8.6982,8.6982,8.6982,8.6982,8.6982,8.6982,8.6982,8.6982,8.6982,0.0,0.0,0.0,7.7102,7.8548,7.9779,7.9775,8.1024,8.2398,8.3205,8.2177,8.1408,8.2197,8.1158,8.0175,8.0209,8.0209,8.0209,8.0209,8.0209,8.0209,8.0209,8.0209,8.0209,8.0209,8.0209,8.0209,8.0209,8.0209,8.0209,8.0209,8.0209,8.0209,8.0209,8.0209,8.0209,8.0209,8.0209,8.0209,8.0209,8.0209,8.0209,8.0209,8.0209,8.0209,8.0209,8.0209,8.0209,8.0209,8.0209,8.0209,8.0209,8.0209,8.0209,8.0209,8.0209,8.0209,8.0209,8.0209,8.0209,8.0209,8.0209,8.0209,8.0209,8.0209,8.0209,8.0209,8.0209,8.0209,8.0209,8.0209,8.0209,8.0209,8.0209,8.0209,8.0209,8.0209,8.0209,8.0528,8.1647,8.1873,8.2592,8.4814,8.5235,8.5649,8.6731,8.6941,8.6941,8.6941,8.6982,8.6982,8.6982,8.6982,8.6982,8.6982,8.6982,8.6982,8.6982,8.6982,8.6982,8.6982,8.6982,8.6982,8.6982,8.6982,8.6982,8.6982,8.6982,8.6982,8.6982,8.6982,8.6982,7.5983,0.0,0.0,0.0,0.0,0.0,7.9665,8.0575,8.1476,8.2067,8.1219,8.0578,8.1081,8.0211,7.9593,8.0107,8.0209,8.0209,8.0209,8.0209,8.0209,8.0209,8.0209,8.0209,8.0209,8.0209,8.0209,8.0209,8.0209,8.0209,8.0209,8.0209,8.0209,8.0209,8.0209,8.0209,8.0209,8.0209,8.0209,8.0209,8.0209,8.0209,8.0209,8.0209,8.0209,8.0209,8.0209,8.0209,8.0209,8.0209,8.0209,8.0209,8.0209,8.0209,8.0209,8.0209,8.0209,8.0209,8.0209,8.0209,8.0209,8.0209,8.0209,8.0209,8.0209,8.0209,8.0209,8.0209,8.0209,8.0209,8.0209,8.0209,8.0209,8.0209,8.0209,8.0209,8.0209,8.0209,8.0302,8.0614,8.1337,8.2117,8.2716,8.3524,8.419,8.4485,8.5235,8.5776,8.5776,8.6485,8.6982,8.6982,8.6982,8.6982,8.6982,8.6982,8.6982,8.6982,8.6982,8.6982,8.6982,8.6982,8.6982,8.6982,8.6982,8.6982,8.6982,8.6982,8.6982,8.6982,8.6982,8.6982,0.0,0.0,0.0,0.0,0.0,0.0,7.9184,7.9853,8.0407,8.0673,8.0037,7.949,7.9737,7.9163,7.8883,7.9627,7.9729,7.9864,8.0175,8.0209,8.0209,8.0209,8.0209,8.0209,8.0209,8.0209,8.0209,8.0209,8.0209,8.0209,8.0209,8.0209,8.0209,8.0209,8.0209,8.0209,8.0209,8.0209,8.0209,8.0209,8.0209,8.0209,8.0209,8.0209,8.0209,8.0209,8.0209,8.0209,8.0209,8.0209,8.0209,8.0209,8.0209,8.0209,8.0209,8.0209,8.0209,8.0209,8.0209,8.0209,8.0209,8.0209,8.0209,8.0209,8.0209,8.0209,8.0209,8.0209,8.0209,8.0209,8.0209,8.0209,8.0209,8.0209,8.0209,8.0209,8.0209,8.0209,8.0348,8.0807,8.1434,8.2067,8.254,8.3146,8.361,8.361,8.4558,8.5287,8.5289,8.6313,8.6982,8.6982,8.6982,8.6982,8.6982,8.6982,8.6982,8.6982,8.6982,8.6982,8.6982,8.6982,8.6982,8.6982,8.6982,8.6982,8.6982,8.6982,8.6982,8.6982,8.6982,8.6982,0.0,0.0,0.0,0.0,7.788,0.0,7.8593,7.8896,7.9179,7.9355,7.8776,7.8295,7.8468,7.8155,7.8124,7.8849,7.8985,7.9255,8.0073,8.0209,8.0209,8.0209,8.0209,8.0209,8.0209,8.0209,8.0209,8.0209,8.0209,8.0209,8.0209,8.0209,8.0209,8.0209,8.0209,8.0209,8.0209,8.0209,8.0209,8.0209,8.0209,8.0209,8.0209,8.0209,8.0209,8.0209,8.0209,8.0209,8.0209,8.0209,8.0209,8.0209,8.0209,8.0209,8.0209,8.0209,8.0209,8.0209,8.0209,8.0209,8.0209,8.0209,8.0209,8.0209,8.0209,8.0209,8.0209,8.0209,8.0209,8.0209,8.0209,8.0209,8.0209,8.0209,8.0209,8.0209,8.0209,8.0209,8.0487,8.1514,8.17,8.2014,8.3044,8.3224,8.3251,8.3397,8.4384,8.5175,8.5281,8.6276,8.6982,8.6982,8.6982,8.6982,8.6982,8.6982,8.6982,8.6982,8.6982,8.6982,8.6982,8.6982,8.6982,8.6982,8.6982,8.6982,8.6982,8.6982,8.6982,8.6982,8.6982,8.6982,0.0,0.0,0.0,0.0,7.7432,0.0,7.8442,7.8007,7.783,7.9143,7.7923,7.7035,7.826,7.7744,7.7373,7.8084,7.8219,7.8693,8.0006,8.0209,8.0209,8.0209,8.0209,8.0209,8.0209,8.0209,8.0209,8.0209,8.0209,8.0209,8.0209,8.0209,8.0209,8.0209,8.0209,8.0209,8.0209,8.0209,8.0209,8.0209,8.0209,8.0209,8.0209,8.0209,8.0209,8.0209,8.0209,8.0209,8.0209,8.0209,8.0209,8.0209,8.0209,8.0209,8.0209,8.0209,8.0209,8.0209,8.0209,8.0209,8.0209,8.0209,8.0209,8.0209,8.0209,8.0209,8.0209,8.0209,8.0209,8.0209,8.0209,8.0209,8.0209,8.0209,8.0209,8.0209,8.0209,8.0209,8.0261,8.0487,8.0528,8.0614,8.0841,8.0847,8.1167,8.2091,8.3181,8.4274,8.5164,8.6313,8.6982,8.6982,8.6982,8.6982,8.6982,8.6982,8.6982,8.6982,8.6982,8.6982,8.6982,8.6982,8.6982,8.6982,8.6982,8.6982,8.6982,8.6982,8.6982,8.6982,8.6982,8.6982,0.0,0.0,0.0,7.7285,7.6904,0.0,0.0,7.6699,7.63,7.6591,7.6382,7.6233,7.6514,7.6407,7.6555,7.7339,7.7441,7.7847,7.8969,7.9431,7.9796,8.0175,8.0209,8.0209,8.0209,8.0209,8.0209,8.0209,8.0209,8.0209,8.0209,8.0209,8.0209,8.0209,8.0209,8.0209,8.0209,8.0209,8.0209,8.0209,8.0209,8.0209,8.0209,8.0209,8.0209,8.0209,8.0209,8.0209,8.0209,8.0209,8.0209,8.0209,8.0209,8.0209,8.0209,8.0209,8.0209,8.0209,8.0209,8.0209,8.0209,8.0209,8.0209,8.0209,8.0209,8.0209,8.0209,8.0209,8.0209,8.0209,8.0209,8.0209,8.0209,8.0209,8.0209,8.0209,8.0209,8.0209,8.0209,8.0209,8.0209,8.0209,8.0209,8.0674,8.1223,8.1812,8.3358,8.4657,8.5236,8.6276,8.6982,8.6982,8.6982,8.6982,8.6982,8.6982,8.6982,8.6982,8.6982,8.6982,8.6982,8.6982,8.6982,8.6982,8.6982,8.6982,8.6982,8.6982,8.6982,8.6982,8.6982,8.6982,0.0,0.0,0.0,7.7051,7.6388,7.5787,0.0,0.0,0.0,7.4307,7.4847,7.5242,7.4695,7.5095,7.5642,7.6149,7.6487,7.6832,7.7272,7.8111,7.9018,7.9864,8.0006,8.004,8.0181,8.0209,8.0209,8.0209,8.0209,8.0209,8.0209,8.0209,8.0209,8.0209,8.0209,8.0209,8.0209,8.0209,8.0209,8.0209,8.0209,8.0209,8.0209,8.0209,8.0209,8.0209,8.0209,8.0209,8.0209,8.0209,8.0209,8.0209,8.0209,8.0209,8.0209,8.0209,8.0209,8.0209,8.0209,8.0209,8.0209,8.0209,8.0209,8.0209,8.0209,8.0209,8.0209,8.0209,8.0209,8.0209,8.0209,8.0209,8.0209,8.0209,8.0209,8.0209,8.0209,8.0209,8.0209,8.0209,8.0209,8.0209,8.0209,8.1147,8.1985,8.2201,8.397,8.537,8.5586,8.644,8.6982,8.6982,8.6982,8.6982,8.6982,8.6982,8.6982,8.6982,8.6982,8.6982,8.6982,8.6982,8.6982,8.6982,8.6982,8.6982,8.6982,8.6982,8.6982,8.6982,8.6982,8.6982,0.0,7.7285,7.7074,7.6206,7.5896,7.5787,7.5787,0.0,7.349,7.4919,0.0,7.3192,7.4368,0.0,0.0,7.3996,7.4971,7.5642,7.5061,7.6245,7.7665,7.9046,7.9215,7.9486,8.0141,8.0209,8.0209,8.0209,8.0209,8.0209,8.0209,8.0209,8.0209,8.0209,8.0209,8.0209,8.0209,8.0209,8.0209,8.0209,8.0209,8.0209,8.0209,8.0209,8.0209,8.0209,8.0209,8.0209,8.0209,8.0209,8.0209,8.0209,8.0209,8.0209,8.0209,8.0209,8.0209,8.0209,8.0209,8.0209,8.0209,8.0209,8.0209,8.0209,8.0209,8.0209,8.0209,8.0209,8.0209,8.0209,8.0209,8.0209,8.0209,8.0209,8.0209,8.0209,8.0209,8.0209,8.0209,8.0209,8.0209,8.0209,8.0209,8.1146,8.225,8.3269,8.4486,8.5643,8.6673,8.6936,8.6982,8.6982,8.6982,8.6982,8.6982,8.6982,8.6982,8.6982,8.6982,8.6982,8.6982,8.6982,8.6982,8.6982,8.6982,8.6982,8.6982,8.6982,8.6982,8.6982,8.6982,8.6982,7.8181,7.8067,7.7839,7.689,7.6239,7.5645,7.5053,7.4272,7.3567,7.3093,0.0,0.0,0.0,0.0,0.0,0.0,7.439,7.4959,7.4649,7.5534,7.6758,7.828,7.8456,7.8754,7.9492,7.9938,8.0209,8.0209,8.0209,8.0209,8.0209,8.0209,8.0209,8.0209,8.0209,8.0209,8.0209,8.0209,8.0209,8.0209,8.0209,8.0209,8.0209,8.0209,8.0209,8.0209,8.0209,8.0209,8.0209,8.0209,8.0209,8.0209,8.0209,8.0209,8.0209,8.0209,8.0209,8.0209,8.0209,8.0209,8.0209,8.0209,8.0209,8.0209,8.0209,8.0209,8.0209,8.0209,8.0209,8.0209,8.0209,8.0209,8.0209,8.0209,8.0209,8.0209,8.0209,8.0209,8.0209,8.0209,8.0209,8.0209,8.0209,8.1695,8.3058,8.3531,8.5139,8.6468,8.6934,8.6982,8.6982,8.6982,8.6982,8.6982,8.6982,8.6982,8.6982,8.6982,8.6982,8.6982,8.6982,8.6982,8.6982,8.6982,8.6982,8.6982,8.6982,8.6982,8.6982,8.6982,8.6982,8.6982,7.9074,7.8923,7.8722,7.7776,7.6767,7.5792,7.4829,7.4176,7.3389,7.2,7.2483,0.0,0.0,0.0,7.3116,7.2941,0.0,7.4147,7.3736,7.4689,7.598,7.7515,7.7887,7.8225,7.8748,7.9458,7.9898,7.9898,8.0073,8.0209,8.0209,8.0209,8.0209,8.0209,8.0209,8.0209,8.0209,8.0209,8.0209,8.0209,8.0209,8.0209,8.0209,8.0209,8.0209,8.0209,8.0209,8.0209,8.0209,8.0209,8.0209,8.0209,8.0209,8.0209,8.0209,8.0209,8.0209,8.0209,8.0209,8.0209,8.0209,8.0209,8.0209,8.0209,8.0209,8.0209,8.0209,8.0209,8.0209,8.0209,8.0209,8.0209,8.0209,8.0209,8.0209,8.0209,8.0209,8.0209,8.0209,8.0209,8.0209,8.0292,8.0616,8.2294,8.3616,8.3616,8.5525,8.6982,8.6982,8.6982,8.6982,8.6982,8.6982,8.6982,8.6982,8.6982,8.6982,8.6982,8.6982,8.6982,8.6982,8.6982,8.6982,8.6982,8.6982,8.6982,8.6982,8.6982,8.6982,8.6982,8.6982,8.6982,7.9779,7.9775,7.9507,7.8429,7.7361,7.6381,7.5628,7.3916,7.2512,7.2704,7.2025,7.1582,7.2259,7.2428,0.0,0.0,7.2603,0.0,0.0,7.3262,7.5196,7.6752,7.7582,7.8022,7.8022,7.8714,7.9147,7.9147,7.9796,8.0209,8.0209,8.0209,8.0209,8.0209,8.0209,8.0209,8.0209,8.0209,8.0209,8.0209,8.0209,8.0209,8.0209,8.0209,8.0209,8.0209,8.0209,8.0209,8.0209,8.0209,8.0209,8.0209,8.0209,8.0209,8.0209,8.0209,8.0209,8.0209,8.0209,8.0209,8.0209,8.0209,8.0209,8.0209,8.0209,8.0209,8.0209,8.0209,8.0209,8.0209,8.0209,8.0209,8.0209,8.0209,8.0209,8.0209,8.0209,8.0209,8.0209,8.0209,8.0209,8.0564,8.1655,8.2816,8.3616,8.3616,8.5525,8.6982,8.6982,8.6982,8.6982,8.6982,8.6982,8.6982,8.6982,8.6982,8.6982,8.6982,8.6982,8.6982,8.6982,8.6982,8.6982,8.6982,8.6982,8.6982,8.6982,8.6982,8.6982,8.6982,8.6982,8.6982,8.0759,8.0078,7.9322,7.8415,7.7366,7.6305,7.5366,7.4644,7.3945,7.3381,7.2609,7.2084,7.236,0.0,0.0,0.0,0.0,7.2597,0.0,7.3105,7.4261,7.5264,7.6487,7.7272,7.7272,7.8376,7.9114,7.9114,7.9763,8.0209,8.0209,8.0209,8.0209,8.0209,8.0209,8.0209,8.0209,8.0209,8.0209,8.0209,8.0209,8.0209,8.0209,8.0209,8.0209,8.0209,8.0209,8.0209,8.0209,8.0209,8.0209,8.0209,8.0209,8.0209,8.0209,8.0209,8.0209,8.0209,8.0209,8.0209,8.0209,8.0209,8.0209,8.0209,8.0209,8.0209,8.0209,8.0209,8.0209,8.0209,8.0209,8.0209,8.0209,8.0209,8.0209,8.0209,8.0209,8.0209,8.0209,8.0209,8.0807,8.144,8.1829,8.3461,8.4718,8.4718,8.6028,8.6982,8.6982,8.6982,8.6982,8.6982,8.6982,8.6982,8.6982,8.6982,8.6982,8.6982,8.6982,8.6982,8.6982,8.6982,8.6982,8.6982,8.6982,8.6982,8.6982,8.6982,8.6982,8.6982,8.6982,8.6982,8.1995,8.0872,7.9712,7.9193,7.7903,7.6534,7.5628,7.5137,7.459,7.3683,7.3116,7.2806,7.2806,7.2394,0.0,0.0,0.0,0.0,0.0,7.2806,7.3381,7.4114,7.5337,7.6183,7.6454,7.7598,7.8443,7.868,7.939,7.9932,8.0181,8.0209,8.0209,8.0209,8.0209,8.0209,8.0209,8.0209,8.0209,8.0209,8.0209,8.0209,8.0209,8.0209,8.0209,8.0209,8.0209,8.0209,8.0209,8.0209,8.0209,8.0209,8.0209,8.0209,8.0209,8.0209,8.0209,8.0209,8.0209,8.0209,8.0209,8.0209,8.0209,8.0209,8.0209,8.0209,8.0255,8.0528,8.0395,8.0261,8.0528,8.0395,8.0209,8.0209,8.0209,8.0209,8.0209,8.0209,8.0209,8.0209,8.1122,8.2029,8.2424,8.4047,8.5288,8.5288,8.6274,8.6982,8.6982,8.6982,8.6982,8.6982,8.6982,8.6982,8.6982,8.6982,8.6982,8.6982,8.6982,8.6982,8.6982,8.6982,8.6982,8.6982,8.6982,8.6982,8.6982,8.6982,8.6982,8.6982,8.6982,8.6982]},{"header":{"parameterUnit":"m.s-1","parameterCategory":1,"la1":30.6,"la2":29.2853,"lo1":-89.7004,"lo2":-87.6739,"dy":0.0162,"dx":0.0183,"nx":112,"ny":82,"refTime":"2023-10-04T06:00:00:Z","depth":0,"parameterNumber":3,"parameterNumberName":"V-component_of_WINDS"},"data":[0.0,0.0,0.0,0.0,0.0,0.0,0.0,0.0,0.0,0.0,0.0,0.0,0.0,0.0,0.0,0.0,0.0,0.0,0.0,0.0,0.0,0.0,0.0,0.0,0.0,0.0,0.0,0.0,0.0,0.0,0.0,0.0,0.0,0.0,0.0,0.0,0.0,0.0,0.0,0.0,0.0,0.0,0.0,0.0,0.0,0.0,0.0,0.0,0.0,0.0,0.0,0.0,0.0,0.0,0.0,0.0,0.0,0.0,0.0,0.0,0.0,0.0,0.0,0.0,0.0,0.0,0.0,0.0,0.0,0.0,0.0,0.0,0.0,0.0,0.0,0.0,0.0,0.0,0.0,0.0,0.0,0.0,0.0,0.0,0.0,0.0,0.0,0.0,0.0,0.0,1.0948,1.0948,1.1099,1.12,1.12,1.12,1.12,1.12,0.0,0.0,0.0,0.0,0.0,0.0,0.0,0.0,0.0,0.0,0.0,0.0,0.0,0.0,0.0,0.0,0.0,0.0,0.0,0.0,0.0,0.0,0.0,0.0,0.0,0.0,0.0,0.0,0.0,0.0,0.0,0.0,0.0,0.0,0.0,0.0,0.0,0.0,0.0,0.0,0.0,0.0,0.0,0.0,0.0,0.0,0.0,0.0,0.0,0.0,0.0,0.0,0.0,0.0,0.0,0.0,0.0,0.0,0.0,0.0,0.0,0.0,0.0,0.0,0.0,0.0,0.0,0.0,0.0,0.0,0.0,0.0,0.0,0.0,0.0,0.0,0.0,0.0,0.0,0.0,0.0,0.0,0.0,0.0,0.0,0.0,0.0,0.0,0.0,0.0,0.0,0.0,0.0,0.0,0.0,0.0,0.0,0.0,0.0,0.0,0.0,0.0,0.0,0.0,1.1148,1.1148,1.1177,1.12,1.12,1.12,1.12,1.12,0.0,0.0,0.0,0.0,0.0,0.0,0.0,0.0,0.0,0.0,0.0,0.0,0.0,0.0,0.0,0.0,0.0,0.0,0.0,0.0,0.0,0.0,0.0,0.0,0.0,0.0,0.0,0.0,0.0,0.0,0.0,0.0,0.0,0.0,0.0,0.0,0.0,0.0,0.0,0.0,0.0,0.0,0.0,0.0,0.0,0.0,0.0,0.0,0.0,0.0,0.0,0.0,0.0,0.0,0.0,0.0,0.0,0.0,0.0,0.0,0.0,0.0,0.0,0.0,0.0,0.0,0.0,0.0,0.0,0.0,0.0,0.0,0.0,0.0,0.0,0.0,0.0,0.0,0.0,0.0,0.0,0.0,0.0,0.0,0.0,0.0,0.0,0.0,0.0,0.0,0.0,0.0,0.0,0.0,0.0,0.0,0.0,0.0,0.0,0.0,0.0,0.0,0.0,1.1246,1.1339,1.1411,1.1418,1.1418,1.1418,1.1418,1.1418,1.1418,1.1265,0.0,0.0,0.0,0.0,0.0,0.0,0.0,0.0,0.0,0.0,0.0,0.0,0.0,0.0,0.0,0.0,0.0,0.0,0.0,0.0,0.0,0.0,0.0,0.0,0.0,0.0,0.0,0.0,0.0,0.0,0.0,0.0,0.0,0.0,0.0,0.0,0.0,0.0,0.0,0.0,0.0,0.0,0.0,0.0,0.0,0.0,0.0,0.0,0.0,0.0,0.0,0.0,0.0,0.0,0.0,0.0,0.0,0.0,0.0,0.0,0.0,0.0,0.0,0.0,0.0,0.0,0.0,0.0,0.0,0.0,0.0,0.0,0.0,0.0,0.0,0.0,0.0,0.0,0.0,0.0,0.0,0.0,0.0,0.0,0.0,0.0,0.0,0.0,0.0,0.0,0.0,0.0,0.0,0.0,0.0,0.0,0.0,0.0,0.0,0.0,0.0,0.0,1.1452,1.1491,1.1588,1.1602,1.1602,1.1602,1.1602,1.1602,1.1602,1.1502,0.0,0.0,0.0,0.0,0.0,0.0,0.0,0.0,0.0,0.0,0.0,0.0,0.0,0.0,0.0,0.0,0.0,0.0,0.0,0.0,0.0,0.0,0.0,0.0,0.0,0.0,0.0,0.0,0.0,0.0,0.0,0.0,0.0,0.0,0.0,0.0,0.0,0.0,0.0,0.0,0.0,0.0,0.0,0.0,0.0,0.0,0.0,0.0,0.0,0.0,0.0,0.0,0.0,0.0,0.0,0.0,0.0,0.0,0.0,0.0,0.0,0.0,0.0,0.0,0.0,0.0,0.0,0.0,0.0,0.0,0.0,0.0,0.0,0.0,0.0,0.0,0.0,0.0,0.0,0.0,0.0,0.0,0.0,0.0,0.0,0.0,0.0,0.0,0.0,0.0,0.0,0.0,0.0,0.0,0.0,0.0,0.0,0.0,0.0,0.0,0.0,0.0,1.1588,1.1588,1.1602,1.1602,1.1602,1.1602,1.1602,1.1602,1.1602,1.1588,0.0,0.0,0.0,0.0,0.0,0.0,0.0,0.0,0.0,0.0,0.0,0.0,0.0,0.0,0.0,0.0,0.0,0.0,0.0,0.0,0.0,0.0,0.0,0.0,0.0,0.0,0.0,0.0,0.0,0.0,0.0,0.0,0.0,0.0,0.0,0.0,0.0,0.0,0.0,0.0,0.0,0.0,0.0,0.0,0.0,0.0,0.0,0.0,0.0,0.0,0.0,0.0,0.0,0.0,0.0,0.0,0.0,0.0,0.0,0.0,0.0,0.0,0.0,0.0,0.0,0.0,0.0,0.0,0.0,0.0,0.0,0.0,0.0,0.0,0.0,0.0,0.0,0.0,0.0,0.0,0.0,0.0,0.0,0.0,0.0,0.0,0.0,0.0,0.0,0.0,0.0,0.0,0.0,0.0,0.0,0.0,0.0,0.0,0.0,0.0,0.0,0.0,1.1721,1.1771,1.1902,1.1916,1.1916,1.1916,1.1916,1.1916,1.1916,0.0,0.0,0.0,0.0,0.0,0.0,0.0,0.0,0.0,0.0,0.0,0.0,0.0,0.0,0.0,0.0,0.0,0.0,0.0,0.0,0.0,0.0,0.0,0.0,0.0,0.0,0.0,0.0,0.0,0.0,0.0,0.0,0.0,0.0,0.0,0.0,0.0,0.0,0.0,0.0,0.0,0.0,0.0,0.0,0.0,0.0,0.0,0.0,0.0,0.0,0.0,0.0,0.0,0.0,0.0,0.0,0.0,0.0,0.0,0.0,0.0,0.0,0.0,0.0,0.0,0.0,0.0,0.0,0.0,0.0,0.0,0.0,0.0,0.0,0.0,0.0,0.0,0.0,0.0,0.0,0.0,0.0,0.0,0.0,0.0,0.0,0.0,0.0,0.0,0.0,0.0,0.0,0.0,0.0,0.0,0.0,0.0,0.0,0.0,0.0,0.0,0.0,1.1875,1.1904,1.1954,1.2091,1.2098,1.2098,1.2098,1.2098,1.2098,1.2098,0.0,0.0,0.0,0.0,0.0,0.0,0.0,0.0,0.0,0.0,0.0,0.0,0.0,0.0,0.0,0.0,0.0,0.0,0.0,0.0,0.0,0.0,0.0,0.0,0.0,0.0,0.0,0.0,0.0,0.0,0.0,0.0,0.0,0.0,0.0,0.0,0.0,0.0,0.0,0.0,0.0,0.0,0.0,0.0,0.0,0.0,0.0,0.0,0.0,0.0,0.0,0.0,0.0,0.0,0.0,0.0,0.0,0.0,0.0,0.0,0.0,0.0,0.0,0.0,0.0,0.0,0.0,0.0,0.0,0.0,0.0,0.0,0.0,0.0,0.0,0.0,0.0,0.0,0.0,0.0,0.0,0.0,0.0,0.0,0.0,0.0,0.0,0.0,0.0,0.0,0.0,0.0,0.0,0.0,0.0,0.0,0.0,0.0,0.0,0.0,0.0,0.0,1.2084,1.2098,1.2114,1.2142,1.2142,1.2142,1.2142,1.216,1.216,0.0,0.0,0.0,0.0,0.0,0.0,0.0,0.0,0.0,0.0,0.0,0.0,0.0,0.0,0.0,0.0,0.0,0.0,0.0,0.0,0.0,0.0,0.0,0.0,0.0,0.0,0.0,0.0,0.0,0.0,0.0,0.0,0.0,0.0,0.0,0.0,0.0,0.0,0.0,0.0,0.0,0.0,0.0,0.0,0.0,0.0,0.0,0.0,0.0,0.0,0.0,0.0,0.0,0.0,0.0,0.0,0.0,0.0,0.0,0.0,0.0,0.0,0.0,0.0,0.0,0.0,0.0,0.0,0.0,0.0,0.0,0.0,0.0,0.0,0.0,0.0,0.0,0.0,0.0,0.0,0.0,0.0,0.0,0.0,0.0,0.0,0.0,0.0,0.0,0.0,0.0,0.0,0.0,0.0,0.0,0.0,0.0,0.0,0.0,0.0,0.0,0.0,0.0,1.2222,1.2242,1.2818,1.4346,1.4497,1.4497,1.4497,1.5842,1.6059,1.4591,0.0,0.0,0.0,0.0,0.0,0.0,0.0,0.0,0.0,0.0,0.0,0.0,0.0,0.0,0.0,0.0,0.0,0.0,0.0,0.0,0.0,0.0,0.0,0.0,0.0,0.0,0.0,0.0,0.0,0.0,0.0,0.0,0.0,0.0,0.0,0.0,0.0,0.0,0.0,0.0,0.0,0.0,0.0,0.0,0.0,0.0,0.0,0.0,0.0,0.0,0.0,0.0,0.0,0.0,0.0,0.0,0.0,0.0,0.0,0.0,0.0,0.0,0.0,0.0,0.0,0.0,0.0,0.0,0.0,0.0,0.0,0.0,0.0,0.0,0.0,0.0,0.0,0.0,0.0,0.0,0.0,0.0,0.0,0.0,0.0,0.0,0.0,0.0,0.0,0.0,0.0,0.0,0.0,0.0,0.0,0.0,0.0,0.0,0.0,0.0,0.0,0.0,1.3662,1.4305,1.5307,1.66,1.6742,1.6742,1.6742,1.7881,1.8071,1.6818,0.0,0.0,0.0,0.0,0.0,0.0,0.0,0.0,0.0,0.0,0.0,0.0,0.0,0.0,0.0,0.0,0.0,0.0,0.0,0.0,0.0,0.0,0.0,0.0,0.0,0.0,0.0,0.0,0.0,0.0,0.0,0.0,0.0,0.0,0.0,0.0,0.0,0.0,0.0,0.0,0.0,0.0,0.0,0.0,0.0,0.0,0.0,0.0,0.0,0.0,0.0,0.0,0.0,0.0,0.0,0.0,0.0,0.0,0.0,0.0,0.0,0.0,0.0,0.0,0.0,0.0,0.0,0.0,0.0,0.0,0.0,0.0,0.0,0.0,0.0,0.0,0.0,0.0,0.0,0.0,0.0,0.0,0.0,0.0,0.0,0.0,0.0,0.0,0.0,0.0,0.0,0.0,0.0,0.0,0.0,0.0,0.0,0.0,0.0,0.0,0.0,0.0,1.6073,1.7493,1.8726,1.8946,1.8965,1.8965,1.8965,1.9135,1.9153,1.8934,0.0,0.0,0.0,0.0,0.0,0.0,0.0,0.0,0.0,0.0,0.0,0.0,0.0,0.0,0.0,0.0,0.0,0.0,0.0,0.0,0.0,0.0,0.0,0.0,0.0,0.0,0.0,0.0,0.0,0.0,0.0,0.0,0.0,0.0,0.0,0.0,0.0,0.0,0.0,0.0,0.0,0.0,0.0,0.0,0.0,0.0,0.0,0.0,0.0,0.0,0.0,0.0,0.0,0.0,0.0,0.0,0.0,0.0,0.0,0.0,1.3144,1.2351,0.0,0.0,0.0,0.0,0.0,0.0,0.0,0.0,0.0,0.0,0.0,0.0,0.0,0.0,0.0,0.0,0.0,0.0,0.0,0.0,0.0,0.0,0.0,0.0,0.0,0.0,0.0,0.0,0.0,0.0,0.0,0.0,0.0,0.0,0.0,0.0,0.0,0.0,0.0,0.0,1.8572,1.8772,1.9616,2.1476,2.1672,2.1672,2.1672,2.3113,2.3237,2.1395,2.2817,0.0,0.0,0.0,0.0,0.0,0.0,0.0,0.0,0.0,0.0,0.0,0.0,0.0,0.0,0.0,0.0,0.0,0.0,0.0,0.0,0.0,0.0,0.0,0.0,0.0,0.0,0.0,0.0,0.0,0.0,0.0,0.0,0.0,0.0,0.0,0.0,0.0,0.0,0.0,0.0,0.0,0.0,0.0,0.0,0.0,0.0,0.0,0.0,0.0,0.0,0.0,0.0,0.0,0.0,0.0,0.0,0.0,0.0,0.0,1.5893,1.4649,0.0,0.0,0.0,0.0,0.0,0.0,0.0,0.0,0.0,0.0,0.0,0.0,0.0,0.0,0.0,0.0,0.0,0.0,0.0,0.0,0.0,0.0,0.0,0.0,0.0,0.0,0.0,0.0,0.0,0.0,0.0,0.0,0.0,0.0,0.0,0.0,0.0,0.0,0.0,0.0,2.0971,2.161,2.2589,2.3814,2.3945,2.3945,2.3945,2.4898,2.4989,2.376,2.4695,0.0,0.0,0.0,0.0,0.0,0.0,0.0,0.0,0.0,0.0,0.0,0.0,0.0,0.0,0.0,0.0,0.0,0.0,0.0,0.0,0.0,0.0,0.0,0.0,0.0,0.0,0.0,0.0,0.0,0.0,0.0,0.0,0.0,0.0,0.0,0.0,0.0,0.0,0.0,0.0,0.0,0.0,0.0,0.0,0.0,0.0,0.0,0.0,0.0,0.0,0.0,0.0,0.0,1.7708,1.8463,1.9804,1.8362,1.9299,2.1895,1.8789,1.7376,1.7288,1.7582,0.0,0.0,0.0,0.0,0.0,0.0,0.0,0.0,0.0,0.0,0.0,0.0,0.0,0.0,0.0,0.0,0.0,0.0,0.0,0.0,0.0,0.0,1.7259,1.7539,1.7689,1.6848,1.3491,0.0,0.0,0.0,0.0,0.0,0.0,0.0,0.0,0.0,0.0,0.0,2.338,2.4598,2.5611,2.5655,2.5655,2.5655,2.5655,2.5655,2.5638,2.5598,2.5585,2.5562,0.0,0.0,0.0,0.0,0.0,0.0,0.0,0.0,0.0,0.0,0.0,0.0,0.0,0.0,0.0,0.0,0.0,0.0,0.0,0.0,0.0,0.0,0.0,0.0,0.0,0.0,0.0,0.0,0.0,0.0,0.0,0.0,1.5341,1.7242,0.0,0.0,0.0,0.0,0.0,0.0,0.0,0.0,0.0,0.0,0.0,0.0,0.0,2.1416,2.1213,2.1478,2.1509,2.1313,2.1313,2.1428,2.1656,2.1412,2.1688,2.2318,2.1826,0.0,1.9176,2.0688,0.0,0.0,0.0,0.0,0.0,0.0,0.0,0.0,0.0,0.0,0.0,0.0,0.0,0.0,0.0,0.0,0.0,0.0,0.0,0.0,0.0,0.0,1.7975,1.8004,1.8026,1.7933,1.7515,1.7333,1.7326,1.7641,1.7799,1.8621,0.0,0.0,0.0,0.0,0.0,0.0,2.5855,2.5916,2.6028,2.6262,2.6276,2.6276,2.6276,2.6276,2.6182,2.5957,2.5921,2.5804,2.5508,2.5468,0.0,0.0,0.0,0.0,0.0,0.0,0.0,0.0,0.0,0.0,0.0,0.0,0.0,0.0,0.0,0.0,0.0,0.0,0.0,0.0,0.0,0.0,0.0,0.0,0.0,0.0,0.0,0.0,0.0,1.6557,1.7272,1.8995,1.9191,1.9534,0.0,0.0,0.0,0.0,0.0,0.0,0.0,0.0,0.0,2.1994,2.2007,2.2079,2.2223,2.2408,2.2582,2.273,2.2921,2.3019,2.3019,2.3019,2.3077,2.3189,2.3189,2.2692,2.1901,2.2326,2.2067,2.1441,0.0,0.0,0.0,0.0,2.273,2.2655,2.2065,2.1866,2.1745,2.0978,0.0,0.0,0.0,0.0,0.0,0.0,0.0,2.104,2.104,2.1174,2.1333,2.1498,2.1534,2.1642,2.2041,2.2079,2.1688,2.0512,2.0338,2.1115,2.3471,2.4074,0.0,0.0,0.0,2.6092,2.6369,2.6299,2.6272,2.6383,2.6396,2.6396,2.6396,2.6396,2.6353,2.6232,2.6219,2.6165,2.6012,2.5862,2.5778,0.0,0.0,0.0,0.0,0.0,0.0,0.0,0.0,0.0,0.0,0.0,0.0,0.0,0.0,0.0,0.0,0.0,0.0,0.0,0.0,0.0,0.0,0.0,0.0,0.0,0.0,0.0,0.0,1.8359,1.9097,2.0402,2.0567,2.0674,0.0,0.0,0.0,0.0,0.0,0.0,2.2106,2.2181,2.2253,2.2325,2.2422,2.2569,2.2766,2.3005,2.3255,2.3527,2.379,2.3933,2.4004,2.4004,2.4004,2.4004,2.4004,2.3973,2.3852,2.334,2.3134,2.3134,2.3134,2.3134,2.3152,2.3345,2.3438,2.3465,2.3705,2.3794,2.3794,2.3794,2.3794,2.3794,2.3794,0.0,0.0,0.0,0.0,2.3906,2.3906,2.4022,2.4173,2.4382,2.4489,2.4663,2.5113,2.5207,2.4736,2.32,2.2905,2.3477,2.5312,2.5831,0.0,2.6082,2.6272,2.6396,2.6396,2.6396,2.6396,2.6396,2.6396,2.6396,2.6396,2.6396,2.6396,2.6396,2.6396,2.6396,2.6396,2.6215,2.6095,2.6095,0.0,0.0,0.0,0.0,0.0,0.0,0.0,0.0,0.0,0.0,0.0,0.0,0.0,0.0,0.0,0.0,0.0,0.0,0.0,0.0,0.0,0.0,0.0,0.0,0.0,0.0,0.0,0.0,0.0,2.1448,2.1523,0.0,0.0,0.0,0.0,2.1981,2.1986,2.2119,2.237,2.2676,2.297,2.3229,2.3549,2.3723,2.3728,2.375,2.3892,2.4146,2.4168,2.4311,2.4559,2.4559,2.4559,2.4559,2.4559,2.4417,2.4155,2.3866,2.3754,2.3754,2.3754,2.3754,2.3763,2.3768,2.3772,2.3781,2.3794,2.3794,2.3794,2.3794,2.3794,2.3794,2.3794,2.3794,0.0,0.0,2.3977,2.4182,2.4182,2.4614,2.5042,2.5056,2.5251,2.5442,2.5468,2.5482,2.5453,2.5335,2.5329,2.546,2.5898,0.0,2.6091,2.6339,2.6383,2.6396,2.6396,2.6396,2.6396,2.6396,2.6396,2.6396,2.6396,2.6396,2.6396,2.6396,2.6396,2.6396,2.6396,2.6383,2.6383,2.6383,2.6108,0.0,0.0,0.0,0.0,0.0,0.0,0.0,0.0,0.0,0.0,0.0,0.0,0.0,0.0,0.0,0.0,0.0,0.0,0.0,0.0,0.0,0.0,0.0,0.0,0.0,0.0,0.0,0.0,2.1828,2.1863,0.0,2.1994,2.2159,2.2347,2.2564,2.2747,2.2971,2.3282,2.342,2.3598,2.3879,2.4004,2.4142,2.4311,2.4525,2.4681,2.4779,2.4947,2.5094,2.5178,2.5178,2.5178,2.5178,2.5178,2.5125,2.5028,2.4921,2.4458,2.3794,2.3794,2.3794,2.3821,2.399,2.4057,2.4075,2.4253,2.4311,2.4311,2.4311,2.4311,2.4369,2.4574,2.4637,2.4668,2.4846,2.4961,2.5041,2.5041,2.5197,2.5358,2.5358,2.5428,2.5558,2.5778,2.5818,2.5871,2.6049,2.5942,2.5911,2.6215,2.6269,2.6286,2.6383,2.6396,2.6396,2.6396,2.6396,2.6396,2.6396,2.6396,2.6396,2.6396,2.6396,2.6396,2.6396,2.6396,2.6396,2.6396,2.6396,2.6396,2.6396,2.6312,2.6175,0.0,0.0,0.0,0.0,0.0,0.0,0.0,0.0,0.0,0.0,0.0,0.0,0.0,0.0,0.0,0.0,0.0,0.0,0.0,0.0,0.0,0.0,0.0,0.0,0.0,2.1882,2.2026,2.2124,2.2226,2.2342,2.2432,2.2699,2.2953,2.3188,2.3447,2.3705,2.391,2.4129,2.432,2.4498,2.4596,2.4724,2.4902,2.5121,2.5287,2.5413,2.5581,2.5728,2.5802,2.5802,2.5802,2.5802,2.5802,2.5758,2.5674,2.5674,2.5153,2.4365,2.4365,2.4365,2.4401,2.456,2.4649,2.4667,2.4835,2.4902,2.4902,2.4902,2.4902,2.4951,2.517,2.5233,2.5264,2.5455,2.5508,2.5508,2.5508,2.5575,2.5674,2.5674,2.5732,2.5865,2.6095,2.6135,2.6189,2.6379,2.6269,2.6189,2.6369,2.6396,2.6396,2.6396,2.6396,2.6396,2.6396,2.6396,2.6396,2.6396,2.6396,2.6396,2.6396,2.6396,2.6396,2.6396,2.6396,2.6396,2.6396,2.6396,2.6396,2.6396,2.6396,2.6312,2.6135,0.0,0.0,0.0,0.0,0.0,0.0,0.0,0.0,0.0,0.0,0.0,0.0,0.0,0.0,0.0,0.0,0.0,0.0,0.0,0.0,0.0,0.0,0.0,2.2074,2.2034,2.2146,2.2415,2.2729,2.3023,2.3301,2.363,2.3821,2.3835,2.4084,2.4226,2.4249,2.4792,2.5122,2.5132,2.5384,2.5522,2.5535,2.5535,2.5692,2.6011,2.6011,2.6148,2.641,2.641,2.6423,2.6423,2.6423,2.6259,2.6024,2.6021,2.5818,2.5535,2.5508,2.5508,2.5508,2.5508,2.5508,2.5508,2.5508,2.5508,2.5508,2.5508,2.5508,2.5508,2.5508,2.5522,2.5522,2.5535,2.5535,2.5535,2.5535,2.5778,2.6011,2.6011,2.6215,2.6396,2.6396,2.6396,2.6396,2.641,2.641,2.641,2.6396,2.6396,2.6396,2.641,2.641,0.0,2.6423,2.6423,2.6423,2.6423,2.6423,2.6423,2.6423,2.6423,2.6423,2.641,2.641,2.641,2.6396,2.6396,2.6396,2.6396,2.6396,2.6396,2.6396,0.0,0.0,0.0,0.0,0.0,0.0,0.0,0.0,0.0,0.0,0.0,0.0,0.0,0.0,0.0,0.0,0.0,0.0,0.0,0.0,0.0,2.2994,2.2957,2.2684,2.2828,2.3064,2.3384,2.35,2.3652,2.3928,2.4035,2.4271,2.4708,2.4815,2.4939,2.5134,2.5295,2.5501,2.5734,2.5814,2.5951,2.6156,2.6146,2.6196,2.6286,2.6286,2.6436,2.6697,2.6697,2.6827,2.7045,2.68,2.6643,2.655,2.6369,2.6246,2.6115,2.5669,2.5508,2.5508,2.5508,2.5508,2.5508,2.5508,2.5508,2.5508,2.5508,2.5508,2.5558,2.5791,2.5868,2.5898,2.6102,2.6146,2.6146,2.6146,2.6222,2.6286,2.6286,2.6353,2.6396,2.6396,2.6396,2.6463,2.6657,2.6697,2.664,2.6436,2.6396,2.6476,2.6657,2.6697,2.6787,2.7021,2.7058,2.7058,2.7058,2.7058,2.7058,2.7058,2.7058,2.6954,2.671,2.6697,2.6603,2.641,2.6396,2.6396,2.6396,2.6396,2.6396,0.0,0.0,0.0,0.0,0.0,0.0,0.0,0.0,0.0,0.0,0.0,0.0,0.0,0.0,0.0,0.0,0.0,0.0,0.0,0.0,0.0,0.0,2.3514,2.3527,2.3594,2.3554,2.3621,2.3924,2.4071,2.4249,2.4552,2.4676,2.4881,2.5247,2.5399,2.5547,2.5701,2.5821,2.5968,2.6162,2.6272,2.641,2.6573,2.6704,2.678,2.678,2.678,2.6861,2.7001,2.7001,2.7128,2.7285,2.7091,2.7001,2.7001,2.6837,2.678,2.6714,0.0,0.0,0.0,0.0,2.5879,2.5879,2.5879,2.5879,2.5879,2.5879,2.5879,2.5905,2.6108,2.6162,2.6202,2.6366,2.6396,2.6396,2.6396,2.6396,2.6423,2.6547,2.6573,2.66,2.6754,2.678,2.6821,2.6984,2.7001,0.0,2.6797,2.678,2.6834,2.6998,2.7001,2.7078,2.7272,2.7299,2.7299,2.7299,2.7299,2.7299,2.7299,2.7299,0.0,0.0,0.0,2.6881,2.6587,2.6573,0.0,0.0,0.0,2.6396,2.6396,2.6396,0.0,0.0,2.6402,2.6407,0.0,0.0,0.0,0.0,0.0,0.0,0.0,0.0,0.0,0.0,0.0,0.0,0.0,0.0,0.0,0.0,2.3892,2.4084,2.4622,2.4289,2.408,2.4315,2.4564,2.4831,2.5163,2.542,2.5562,2.5602,2.5871,2.6051,2.6091,2.6326,0.0,0.0,0.0,2.6857,2.6857,2.7155,2.7299,2.7299,2.7299,2.7312,2.7352,2.7352,2.7376,2.7392,2.7352,2.7352,2.7339,2.7312,2.7299,2.7245,2.6714,2.6503,2.6503,2.6503,2.6503,2.6503,2.6503,0.0,0.0,2.645,2.645,2.645,2.645,2.6476,2.6503,2.6503,2.6503,2.6503,2.6503,2.6503,2.6557,2.6804,2.6857,2.6947,2.7245,2.7299,2.7312,2.7339,2.7389,2.7406,2.7446,2.7366,2.7312,2.7339,2.7352,2.7366,2.7432,2.7446,2.7459,2.7486,2.7489,0.0,2.7489,2.7462,2.7432,2.7392,2.7349,2.7158,2.684,2.6817,2.6694,2.641,2.641,2.6393,2.6396,2.6396,2.6396,2.6396,2.6396,2.6396,0.0,0.0,0.0,0.0,0.0,0.0,0.0,0.0,0.0,0.0,0.0,0.0,0.0,0.0,0.0,2.4377,2.4457,2.4648,2.5245,2.5241,2.5188,2.5241,2.5285,2.5464,2.5787,2.5868,2.5992,2.6209,2.6299,2.6423,2.663,2.6687,2.6854,2.7125,2.7178,2.7195,2.7195,2.7272,2.7299,2.7299,2.7299,0.0,2.7615,2.7615,2.777,2.8015,2.7743,2.7615,2.7612,2.7392,2.7299,2.7285,2.7178,2.7125,2.7125,2.7125,2.7125,2.7125,2.7125,2.6944,2.6714,2.6714,2.6714,2.6714,2.6714,2.6907,0.0,2.7125,2.7125,2.7125,2.7125,2.7125,2.7138,2.7181,2.7195,2.7222,2.7285,2.7299,2.7366,2.7572,2.7834,2.8098,2.8307,2.777,2.7369,2.7586,2.7615,2.7799,2.8283,2.835,2.842,2.8649,2.8676,2.8676,2.8676,2.8473,2.8264,2.8042,2.7576,2.7197,2.6965,2.6954,2.6781,2.6407,2.6407,2.6401,2.6396,2.6396,2.6396,2.6396,2.6396,2.6396,0.0,0.0,0.0,0.0,0.0,0.0,0.0,0.0,0.0,0.0,0.0,2.4084,2.4387,0.0,2.4578,2.4987,2.5049,2.5205,2.5688,2.5751,2.5751,2.5751,2.5751,2.5871,2.6175,2.6326,2.6463,2.66,2.6767,2.6914,2.7041,2.7051,2.7128,2.7299,2.7422,2.758,2.775,2.7877,2.8013,2.815,2.815,2.8219,2.8342,2.8342,2.8433,2.8588,2.842,2.8342,2.8342,2.8217,2.815,2.815,2.815,2.7799,2.7299,2.7299,2.7299,2.7299,2.7299,2.7195,2.7051,2.7051,2.7051,2.7051,2.7051,2.7168,2.7299,2.7299,2.7299,2.7299,2.7299,2.7299,2.7339,2.7462,2.7633,2.7791,2.793,2.8067,2.8179,2.8316,2.8497,2.8644,2.8783,2.8433,2.8203,2.8329,2.8342,2.8462,2.8756,2.8796,2.8839,2.8999,2.9001,2.9001,2.9001,2.889,2.874,2.8615,2.8222,2.788,2.7613,2.7603,2.7219,2.6418,2.6407,2.6403,2.6402,2.6402,2.6402,2.6402,2.6402,2.64,0.0,0.0,0.0,0.0,0.0,0.0,0.0,2.3928,2.404,2.4325,2.4369,2.4529,2.5073,2.5176,2.5273,2.5545,2.5598,2.5715,2.6028,2.6078,2.6105,2.6148,2.6118,2.6189,2.6453,2.667,2.683,2.6897,2.7155,2.7325,2.7369,2.7432,2.751,2.7553,2.7802,2.808,2.8342,2.8564,2.8783,2.9001,2.9001,2.9001,2.9001,2.9001,2.9001,2.9001,2.9001,2.9001,2.9001,2.9001,2.9001,2.9001,2.9001,2.8446,2.7636,2.7636,2.7606,2.7542,2.7542,2.7486,2.7379,2.7379,2.7379,2.7379,2.7379,2.7419,2.7496,2.7539,2.7542,2.7556,2.7623,2.7636,2.7679,2.7896,2.8158,2.8412,2.862,2.885,2.9001,2.9001,2.9052,2.9103,2.9103,2.9132,2.9132,2.9026,2.9001,2.9015,2.9079,2.9103,2.913,2.9172,2.9161,2.9159,2.9092,2.9103,2.9044,2.8945,2.8785,2.8556,2.8215,2.819,2.7736,2.6776,2.6755,2.6754,2.6752,2.6752,2.6752,2.6752,2.6752,2.6617,2.3781,2.3768,2.3745,2.3794,2.3986,2.4155,0.0,2.4337,2.4595,2.4926,2.5002,2.5086,2.5411,2.5455,2.5558,2.5881,2.5934,2.6041,2.6326,2.6366,2.644,2.6674,2.6493,2.6463,2.6727,2.678,2.6924,2.7222,2.7272,2.7395,2.7642,2.7938,2.8219,2.8444,2.8705,2.8879,2.8906,2.8946,2.8972,2.9001,2.9001,2.9001,2.9001,2.9001,2.9001,2.9001,2.9001,2.9001,2.9001,2.9001,2.9001,2.9001,2.9001,2.8921,2.8812,2.8812,2.8663,2.8446,2.8446,2.8096,2.7666,2.7666,2.7666,2.7666,2.7666,2.786,2.8149,2.8388,2.8446,2.85,2.8756,2.8812,2.8812,2.8852,2.8879,2.8919,2.8946,2.8986,2.9001,2.9001,2.9248,2.9432,2.9432,2.9635,2.9624,2.9081,2.9001,2.9117,2.9417,2.9432,2.955,2.9771,2.9797,2.9702,2.9459,2.9432,2.9235,2.8759,2.8707,2.8545,2.8208,2.8196,2.8146,2.8001,2.799,2.7998,2.8003,2.8003,2.8003,2.8003,2.8003,2.7415,2.3999,2.4142,2.4266,2.4266,2.4489,2.4726,2.4726,2.4934,2.5165,2.5295,2.5331,2.5434,2.5728,2.5791,2.5885,2.6179,2.6232,2.6326,2.66,2.663,2.6747,2.7051,2.6994,2.6968,2.7078,2.7228,2.7455,2.7791,2.797,2.8177,2.8436,2.858,2.8724,2.8836,2.8946,2.9092,2.9299,2.9288,2.9472,2.9806,2.9806,2.99,3.0049,3.0049,3.0049,3.0049,3.0049,3.0049,3.0036,2.9873,2.9806,2.9804,2.9597,2.9519,2.949,2.9132,2.8932,2.8825,2.8825,2.8676,2.8462,2.8462,2.8462,2.8462,2.8462,2.8553,2.8698,2.8796,2.8825,2.8852,2.8972,2.9001,2.9001,2.9001,2.9157,2.9288,2.9288,2.941,2.9519,2.9519,2.9793,3.0016,3.0016,3.0245,3.0341,3.0089,2.9744,2.9637,2.9976,3.0016,3.0123,3.0394,3.041,3.0325,3.0054,3.005,2.9896,2.9431,2.9392,2.9332,2.9198,2.9197,2.8869,2.821,2.8198,2.8199,2.8199,2.8199,2.8199,2.8199,2.8199,2.7928,2.4498,2.4698,2.4849,2.4849,2.5028,2.5207,2.5207,2.5358,2.5522,2.5625,2.5648,2.5732,2.6055,2.6118,2.6202,2.6476,2.6507,2.6613,2.6907,2.6947,2.7091,2.751,2.755,2.7617,2.7746,2.7799,2.797,2.8286,2.8561,2.8796,2.8988,2.9079,2.9159,2.9239,2.9344,2.9542,2.9858,2.9858,3.0083,3.0509,3.0509,3.0618,3.0807,3.0807,3.0807,3.0807,3.0807,3.0807,3.0768,3.0591,3.0509,3.0495,3.0247,3.0143,3.0089,2.9651,2.9333,2.9143,2.9143,2.9079,2.9001,2.9001,2.9001,2.9001,2.9001,2.9001,2.9026,2.9106,2.9143,2.9146,2.9226,2.9252,2.9266,2.9357,2.9566,2.9775,2.9831,3.0007,3.0143,3.0143,3.0339,3.0509,3.0509,3.0671,3.0807,3.0807,3.0434,3.0234,3.0471,3.0463,3.0509,3.0711,3.0772,3.0713,3.0535,3.0393,3.0208,2.9915,2.9898,2.9896,2.9896,2.9906,2.9511,2.8697,2.8661,2.8679,2.8679,2.8679,2.8679,2.8679,2.8679,2.8679,2.5398,2.5468,2.5472,2.5472,2.5482,2.5495,2.5495,2.5485,2.5598,2.5917,2.5984,2.6078,2.6339,2.6383,2.6476,2.674,2.6794,2.6897,2.7245,2.7285,2.751,2.8095,2.8176,2.8382,2.8892,2.8492,2.8299,2.8577,2.8836,2.8988,2.9001,2.9312,2.9593,2.9851,3.019,3.0495,3.0767,3.0767,3.078,3.0793,3.0793,3.0782,3.0807,3.0807,3.0807,3.0807,3.0807,3.0807,3.0807,3.0793,3.0793,3.0793,3.078,3.0768,3.078,3.0742,3.0205,2.9483,2.9483,2.9274,2.9001,2.9001,2.9001,2.9001,2.9001,2.9001,2.9066,2.9392,2.9483,2.955,2.9809,2.9864,2.9956,3.027,3.0373,3.0442,3.07,3.0767,3.0768,3.0768,3.0768,3.0793,3.0793,3.0782,3.0807,3.0807,3.0782,3.078,3.0793,3.0617,3.0488,3.0501,3.0678,3.0807,3.0793,3.0254,2.9915,2.9891,2.9896,2.9899,2.9899,2.9905,2.9877,2.9855,2.9852,2.9847,2.9847,2.9847,2.9847,2.9847,2.9847,2.9847,2.5482,2.5508,2.5508,2.5508,2.5674,2.5831,2.5831,2.5968,2.6129,2.6246,2.6259,2.6299,2.6383,2.6547,2.6687,2.6794,2.6987,2.7225,2.7519,2.7753,2.8045,2.8425,2.8617,2.8796,2.8975,2.8836,2.8858,2.9165,2.9272,2.951,2.9911,3.0029,3.0217,3.0488,3.0606,3.0713,3.0807,3.0807,3.0889,3.1064,3.1288,3.1393,3.1393,3.1393,3.1393,3.1393,3.1393,3.1393,3.138,3.1169,3.1064,3.1051,3.0862,3.0807,3.0807,3.0807,3.0608,3.0366,3.0366,3.0287,3.0196,3.0196,3.0196,3.0196,3.0196,3.0196,3.0221,3.0339,3.0366,3.0379,3.0474,3.0501,3.0539,3.0633,3.0671,3.0686,3.078,3.0807,3.0807,3.0807,3.093,3.1064,3.1064,3.1261,3.1393,3.1393,3.1209,3.1064,3.1064,3.1203,3.1297,3.1297,3.1358,3.1397,3.1397,3.1219,3.0748,2.9953,3.0642,3.0742,2.9937,2.9904,2.9903,2.9901,2.9897,2.99,2.9904,2.9904,2.9904,2.9904,2.9904,2.9904,2.5798,2.5815,2.5815,2.5815,2.5982,2.6135,2.6135,2.6272,2.6396,2.6396,2.6396,2.6436,2.6533,2.6674,2.6874,2.7084,2.7305,2.7583,2.7963,2.8211,2.8489,2.8882,2.9074,2.9601,3.0678,3.0793,3.0846,3.0963,3.026,3.0409,3.1756,3.1015,3.107,3.2229,3.1403,3.1411,3.2397,3.1554,3.1208,3.1371,3.1607,3.1699,3.1699,3.1699,3.1699,3.1699,3.1699,3.1699,3.1674,3.1475,3.1383,3.1358,3.1194,3.1114,3.1114,3.1114,3.1114,3.1087,3.0862,3.0807,3.0807,3.0807,3.0807,3.0807,3.0807,3.0807,3.0807,3.0807,3.0807,3.0807,3.0807,3.0807,3.0822,3.0929,3.093,3.0982,3.1101,3.1114,3.1114,3.1114,3.1263,3.1383,3.1383,3.1555,3.1699,3.1699,3.1515,3.1383,3.1383,3.158,3.1699,3.1699,3.1699,3.1691,3.1707,3.1705,3.1375,3.0583,3.1268,3.1355,3.0578,3.0543,3.0539,3.0537,3.0118,2.9899,2.99,3.0338,3.0546,3.0546,3.0327,3.0257,2.6339,2.6396,2.6396,2.6396,2.6396,2.6396,2.6396,2.6396,2.6396,2.6396,2.6396,2.648,2.6754,2.6807,2.7017,2.7592,2.7733,2.7949,2.8513,2.8631,2.8901,0.0,0.0,0.0,0.0,3.4089,3.4035,3.4042,3.2016,3.1863,3.4295,3.2376,3.2391,3.5032,3.284,3.2853,3.5463,3.3217,3.2078,3.2078,3.1936,3.1877,3.1877,3.1758,3.1699,3.1699,3.1699,3.1699,3.1699,3.1699,3.1699,3.1699,3.1699,3.1699,3.1699,3.1699,3.1699,3.1619,3.1047,3.0847,3.0847,3.0847,3.0847,3.0847,3.0847,3.0847,3.0847,3.0847,3.0847,3.0847,3.0847,3.0847,3.0902,3.1171,3.1226,3.1318,3.1634,3.1699,3.1699,3.1699,3.1699,3.1699,3.1699,3.1699,3.1699,3.1699,3.1699,3.1699,3.1699,3.1699,3.1699,3.1699,3.1699,3.1699,3.1699,3.1699,3.1699,3.1699,3.1695,3.1701,3.1701,3.1703,3.1692,3.1702,3.0574,2.9989,2.9987,3.1147,3.1699,3.1699,3.1087,3.0924,2.6383,2.6396,2.6396,2.6396,2.6396,2.6396,2.6396,2.6396,2.6396,2.6396,2.6396,2.648,2.6754,2.7001,2.7288,2.7642,2.8083,2.842,2.858,2.8989,0.0,3.2288,0.0,3.1983,3.6604,3.5385,3.5895,3.9729,3.7604,3.5738,3.4821,3.5891,3.6978,3.7922,3.7343,3.7352,3.804,3.7447,3.7137,3.7114,3.528,3.4385,3.4327,3.2512,3.1699,3.1699,3.1699,3.1699,3.1699,3.1699,3.1699,3.1699,3.1699,3.1699,3.1699,3.1699,3.1699,3.1686,3.1527,3.1473,3.1473,3.1473,3.1473,3.1473,3.1473,3.1473,3.1473,3.1473,3.1473,3.1473,3.1473,3.1473,3.1487,3.1567,3.1568,3.1607,3.1674,3.1699,3.1699,3.1699,3.1699,3.1699,3.1699,3.1699,3.1699,3.1699,3.1699,3.1699,3.1699,3.1699,3.1699,3.1699,3.1699,3.1699,3.1699,3.1699,3.1699,3.1699,3.1705,3.17,3.17,3.1692,3.17,3.171,3.1399,3.1233,3.1241,3.1545,3.1699,3.1699,3.123,3.1053,2.6396,2.6396,2.6396,2.6396,2.6396,2.6396,2.6396,2.6396,2.6396,2.6396,2.6396,2.653,2.6934,2.7168,2.7432,2.785,2.8297,2.8633,2.8756,3.0224,3.192,0.0,3.3777,0.0,3.9506,3.8636,3.9093,4.2139,3.9823,3.8277,3.8289,3.8566,3.9299,4.0531,3.9562,3.9004,3.9004,3.793,3.7378,3.7355,3.4884,3.372,3.3673,3.2325,3.1699,3.1699,3.1699,3.1699,3.1699,3.1699,3.1699,3.1699,3.1699,3.1699,3.1699,3.1699,3.1699,3.1699,3.1699,3.1699,3.1699,3.1699,3.1699,3.1699,3.1699,3.1699,3.1699,3.1699,3.1699,3.1699,3.1699,3.1699,3.1699,3.1699,3.1699,3.1699,3.1699,3.1699,3.1699,3.1699,3.1699,3.1699,3.1699,3.1699,3.1699,3.1699,3.1699,3.1699,3.1699,3.1699,3.1699,3.1699,3.1699,3.1699,3.1699,3.1699,3.1699,3.1699,3.1699,3.1699,3.1699,3.1699,3.1691,3.1711,3.1697,3.17,3.1704,3.1704,3.1704,3.1692,3.1466,3.1359,2.6396,2.6423,2.644,2.641,2.6423,2.644,2.641,2.6396,2.6396,2.6396,2.6423,2.6623,2.7202,2.7325,2.7553,2.8162,2.8481,2.8754,2.9026,3.1712,3.3869,3.4479,3.6681,3.9351,4.2451,4.2454,4.25,4.3056,4.0877,4.044,4.2481,4.0932,4.0921,4.3019,4.1056,3.9971,3.9971,3.7822,3.6768,3.6733,3.4303,3.2984,3.2654,3.2325,3.2007,3.1699,3.1699,3.1699,3.1699,3.1699,3.1699,3.1699,3.1699,3.1699,3.1699,3.1699,3.1699,3.1699,3.1699,3.1699,3.1699,3.1699,3.1699,3.1699,3.1699,3.1699,3.1699,3.1699,3.1699,3.1699,3.1699,3.1699,3.1699,3.1699,3.1699,3.1699,3.1699,3.1699,3.1699,3.1699,3.1699,3.1699,3.1699,3.1699,3.1699,3.1699,3.1699,3.1699,3.1699,3.1699,3.1699,3.1699,3.1699,3.1699,3.1699,3.1699,3.1699,3.1699,3.1699,3.1699,3.1699,3.1699,3.1699,3.1699,3.1699,3.1699,3.1699,3.1699,3.1699,3.1699,3.1699,3.1699,2.6396,2.655,2.6684,2.6463,2.6573,2.667,2.645,2.6396,2.6396,2.6396,2.6587,2.6854,2.7232,2.7476,2.784,2.843,2.8767,2.905,2.9366,3.203,3.479,0.0,3.8012,4.0323,4.511,4.3734,4.3409,4.5513,4.5228,4.4257,4.2677,4.4155,4.5219,4.5645,4.5241,4.5032,4.5032,4.4605,4.4387,4.4354,4.1894,3.9659,3.7666,3.5602,3.3591,3.1699,3.1699,3.1699,3.1699,3.1699,3.1699,3.1699,3.1699,3.1699,3.1699,3.1699,3.1699,3.1699,3.1699,3.1699,3.1699,3.1699,3.1699,3.1699,3.1699,3.1699,3.1699,3.1699,3.1699,3.1699,3.1699,3.1699,3.1699,3.1699,3.1699,3.1699,3.1699,3.1699,3.1699,3.1699,3.1699,3.1699,3.1699,3.1699,3.1699,3.1699,3.1699,3.1699,3.1699,3.1699,3.1699,3.1699,3.1699,3.1699,3.1699,3.1699,3.1699,3.1699,3.1699,3.1699,3.1699,3.1699,3.1699,3.1699,3.1699,3.1699,3.1699,3.1699,3.1699,3.1699,3.1699,3.1699,2.6573,2.67,2.6767,2.6643,2.67,2.6727,2.6463,2.6396,2.6436,2.6587,2.671,2.6951,2.7425,2.7612,2.7896,2.85,2.8836,2.9117,2.9457,3.3328,3.6626,3.7942,4.073,4.3545,4.6062,4.5219,4.5021,4.6201,4.6308,4.5777,4.4594,4.5645,4.6308,4.6308,4.6308,4.6308,4.6308,4.5021,4.4365,4.4343,4.1905,4.013,3.897,3.7769,3.5892,3.3568,3.3568,3.2866,3.1699,3.1699,3.1699,3.1699,3.1699,3.1699,3.1699,3.1699,3.1699,3.1699,3.1699,3.1699,3.1699,3.1699,3.1699,3.1699,3.1699,3.1699,3.1699,3.1699,3.1699,3.1699,3.1699,3.1699,3.1699,3.1699,3.1699,3.1699,3.1699,3.1699,3.1699,3.1699,3.1699,3.1699,3.1699,3.1699,3.1699,3.1699,3.1699,3.1699,3.1699,3.1699,3.1699,3.1699,3.1699,3.1699,3.1699,3.1699,3.1699,3.1699,3.1699,3.1699,3.1699,3.1699,3.1699,3.1699,3.1699,3.1699,3.1699,3.1699,3.1699,3.1699,3.1699,3.1699,2.6657,2.6754,2.6794,2.6727,2.6754,2.6727,2.6463,2.644,2.6547,2.6754,2.69,2.7138,2.7615,2.7759,2.8168,2.9251,2.9616,3.0053,3.0939,3.5572,3.886,3.886,4.3268,4.6308,4.6308,4.6308,4.6308,4.6308,4.6308,4.6308,4.6308,4.6308,4.6308,4.6308,4.6308,4.6308,4.6308,4.4365,4.3393,4.3382,4.1461,4.0288,3.9778,3.9778,3.8433,3.6066,3.5533,3.4221,3.2431,3.1912,3.1699,3.1699,3.1699,3.1699,3.1699,3.1699,3.1699,3.1699,3.1699,3.1699,3.1699,3.1699,3.1699,3.1699,3.1699,3.1699,3.1699,3.1699,3.1699,3.1699,3.1699,3.1699,3.1699,3.1699,3.1699,3.1699,3.1699,3.1699,3.1699,3.1699,3.1699,3.1699,3.1699,3.1699,3.1699,3.1699,3.1699,3.1699,3.1699,3.1699,3.1699,3.1699,3.1699,3.1699,3.1699,3.1699,3.1699,3.1699,3.1699,3.1699,3.1699,3.1699,3.1699,3.1699,3.1699,3.1699,3.1699,3.1699,3.1699,3.1699,3.1699,3.1699,2.6436,2.6603,2.674,2.6503,2.6617,2.6727,2.6463,2.66,2.6767,2.6794,2.7231,2.7629,2.7682,2.7954,2.9034,3.1706,3.2159,3.31,3.5757,3.9097,4.1282,4.1282,4.4257,4.6308,4.6308,4.6308,4.6308,4.6308,4.6308,4.6308,4.6308,4.6308,4.6308,4.6308,4.6308,4.6308,4.6308,4.607,4.5961,4.5961,4.5733,4.4443,4.2264,4.2264,4.0955,3.852,3.6271,3.5161,3.4803,3.2595,3.1699,3.1699,3.1699,3.1699,3.1699,3.1699,3.1699,3.1699,3.1699,3.1699,3.1699,3.1699,3.1699,3.1699,3.1699,3.1699,3.1699,3.1699,3.1699,3.1699,3.1699,3.1699,3.1699,3.1699,3.1699,3.1699,3.1699,3.1699,3.1699,3.1699,3.1699,3.1699,3.1699,3.1699,3.1699,3.1699,3.1699,3.1699,3.1699,3.1699,3.1699,3.1699,3.1699,3.1699,3.1699,3.1699,3.1699,3.1699,3.1699,3.1699,3.1699,3.1699,3.1699,3.1699,3.1699,3.1699,3.1699,3.1699,3.1699,3.1699,3.1699,3.1699,2.66,2.6714,2.6767,2.667,2.6714,2.6727,2.6463,2.6613,2.6857,2.7064,2.7415,2.7759,2.7967,2.8109,2.8687,3.0153,3.1578,3.303,3.4542,3.8702,4.1597,4.1597,4.4377,4.6308,4.6308,4.6308,4.6308,4.6308,4.6308,4.6308,4.6308,4.6308,4.6308,4.6308,4.6308,4.6308,4.6308,4.6308,4.6308,4.6308,4.6308,4.5777,4.4782,4.3275,4.2085,4.0955,3.701,3.53,3.5117,3.2701,3.1699,3.1699,3.1699,3.1699,3.1699,3.1699,3.1699,3.1699,3.1699,3.1699,3.1699,3.1699,3.1699,3.1699,3.1699,3.1699,3.1699,3.1699,3.1699,3.1699,3.1699,3.1699,3.1699,3.1699,3.1699,3.1699,3.1699,3.1699,3.1699,3.1699,3.1699,3.1699,3.1699,3.1699,3.1699,3.1699,3.1699,3.1699,3.1699,3.1699,3.1699,3.1699,3.1699,3.1699,3.1699,3.1699,3.1699,3.1699,3.1699,3.1699,3.1699,3.1699,3.1699,3.1699,3.1699,3.1699,3.1699,3.1699,3.1699,3.1699,3.1699,3.1699,2.663,2.6674,2.6674,2.6674,2.6674,2.663,2.644,2.668,2.7014,2.7259,2.7583,2.7917,2.8162,2.8189,2.8602,2.983,3.1992,3.395,3.5264,3.9587,4.2619,4.2619,4.4799,4.6308,4.6308,4.6308,4.6308,4.6308,4.6308,4.6308,4.6308,4.6308,4.6308,4.6308,4.6308,4.6308,4.6308,4.6308,4.6308,4.6308,4.6308,4.6308,4.6243,4.4476,4.3693,4.3408,3.852,3.6387,3.6144,3.2994,3.1699,3.1699,3.1699,3.1699,3.1699,3.1699,3.1699,3.1699,3.1699,3.1699,3.1699,3.1699,3.1699,3.1699,3.1699,3.1699,3.1699,3.1699,3.1699,3.1699,3.1699,3.1699,3.1699,3.1699,3.1699,3.1699,3.1699,3.1699,3.1699,3.1699,3.1699,3.1699,3.1699,3.1699,3.1699,3.1699,3.1699,3.1699,3.1699,3.1699,3.1699,3.1699,3.1699,3.1699,3.1699,3.1699,3.1699,3.1699,3.1699,3.1699,3.1699,3.1699,3.1699,3.1699,3.1699,3.1699,3.1699,3.1699,3.1699,3.1699,3.1699,3.1699,2.6396,2.6396,2.6396,2.6396,2.6396,2.6396,2.6396,2.6861,2.7309,2.7299,2.7788,2.82,2.8189,2.8189,2.915,3.1995,3.4387,3.6885,3.9817,4.2969,4.4956,4.4956,4.5749,4.6308,4.6308,4.6308,4.6308,4.6308,4.6308,4.6308,4.6308,4.6308,4.6308,4.6308,4.6308,4.6308,4.6308,4.6308,4.6308,4.6308,4.6308,4.6308,4.6308,4.6276,4.6265,4.5993,4.1079,3.897,3.8577,3.3708,3.1699,3.1699,3.1699,3.1699,3.1699,3.1699,3.1699,3.1699,3.1699,3.1699,3.1699,3.1699,3.1699,3.1699,3.1699,3.1699,3.1699,3.1699,3.1699,3.1699,3.1699,3.1699,3.1699,3.1699,3.1699,3.1699,3.1699,3.1699,3.1699,3.1699,3.1699,3.1699,3.1699,3.1699,3.1699,3.1699,3.1699,3.1699,3.1699,3.1699,3.1699,3.1699,3.1699,3.1699,3.1699,3.1699,3.1699,3.1699,3.1699,3.1699,3.1699,3.1699,3.1699,3.1699,3.1699,3.1699,3.1699,3.1699,3.1699,3.1699,3.1699,3.1699,2.6396,2.6396,2.6396,2.6396,2.6396,2.6396,2.6396,2.6871,2.7299,2.7299,2.7777,2.8189,2.8189,2.8189,2.8623,2.9895,3.3362,3.6476,3.8153,4.2203,4.5115,4.544,4.5957,4.6308,4.6308,4.6308,4.6308,4.6308,4.6308,4.6308,4.6308,4.6308,4.6308,4.6308,4.6308,4.6308,4.6308,4.6308,4.6308,4.6308,4.6308,4.6308,4.6243,4.455,4.4693,4.5939,3.933,3.7436,3.8628,3.372,3.1699,3.1699,3.1699,3.1699,3.1699,3.1699,3.1699,3.1699,3.1699,3.1699,3.1699,3.1699,3.1699,3.1699,3.1699,3.1699,3.1699,3.1699,3.1699,3.1699,3.1699,3.1699,3.1699,3.1699,3.1699,3.1699,3.1699,3.1699,3.1699,3.1699,3.1699,3.1699,3.1699,3.1699,3.1699,3.1699,3.1699,3.1699,3.1699,3.1699,3.1699,3.1699,3.1699,3.1699,3.1699,3.1699,3.1699,3.1699,3.1699,3.1699,3.1699,3.1699,3.1699,3.1699,3.1699,3.1699,3.1699,3.1699,3.1699,3.1699,3.1699,3.1699,2.6396,2.6396,2.6396,2.6396,2.6396,2.6396,2.6396,2.6871,2.7299,2.7299,2.7777,2.8189,2.8189,2.8189,2.8379,2.8906,3.2889,3.6273,3.7357,4.1836,4.5232,4.5851,4.6163,4.6308,4.6308,4.6308,4.6308,4.6308,4.6308,4.6308,4.6308,4.6308,4.6308,4.6308,4.6308,4.6308,4.6308,4.6308,4.6308,4.6308,4.6308,4.6308,4.6245,4.4705,4.4837,4.5939,3.9489,3.7574,0.0,3.372,3.1699,3.1699,3.1699,3.1699,3.1699,3.1699,3.1699,3.1699,3.1699,3.1699,3.1699,3.1699,3.1699,3.1699,3.1699,3.1699,3.1699,3.1699,3.1699,3.1699,3.1699,3.1699,3.1699,3.1699,3.1699,3.1699,3.1699,3.1699,3.1699,3.1699,3.1699,3.1699,3.1699,3.1699,3.1699,3.1699,3.1699,3.1699,3.1699,3.1699,3.1699,3.1699,3.1699,3.1699,3.1699,3.1699,3.1699,3.1699,3.1699,3.1699,3.1699,3.1699,3.1699,3.1699,3.1699,3.1699,3.1699,3.1699,3.1699,3.1699,3.1699,3.1699,0.0,2.6396,2.6396,2.6396,2.6396,2.6396,2.6396,0.0,0.0,2.7299,2.7777,2.8189,2.8189,2.8316,2.8549,2.8938,3.3002,3.6452,3.7412,4.1891,4.5389,4.62,4.6308,4.6308,4.6308,4.6308,4.6308,4.6308,4.6308,4.6308,4.6308,4.6308,4.6308,4.6308,4.6308,4.6308,4.6308,4.6308,4.6308,4.6308,4.6308,4.6308,4.6308,4.6308,4.6308,4.6037,4.1304,3.9164,3.8639,3.3908,3.1853,3.1699,3.1699,3.1699,3.1699,3.1699,3.1699,3.1699,3.1699,3.1699,3.1699,3.1699,3.1699,3.1699,3.1699,3.1699,3.1699,3.1699,3.1699,3.1699,3.1699,3.1699,3.1699,3.1699,3.1699,3.1699,3.1699,3.1699,3.1699,3.1699,3.1699,3.1699,3.1699,3.1699,3.1699,3.1699,3.1699,3.1699,3.1699,3.1699,3.1699,3.1699,3.1699,3.1699,3.1699,3.1699,3.1699,3.1699,3.1699,3.1699,3.1699,3.1699,3.1699,3.1699,3.1699,3.1699,3.1699,3.1699,3.1699,3.1699,3.1699,3.1699,2.6396,0.0,2.6396,2.6396,2.6396,2.6396,0.0,0.0,0.0,0.0,0.0,2.8189,2.8189,2.9533,3.0287,2.9187,3.4303,3.8324,3.8007,4.2594,4.6063,4.6289,4.6308,4.6308,4.6308,4.6308,4.6308,4.6308,4.6308,4.6308,4.6308,4.6308,4.6308,4.6308,4.6308,4.6308,4.6308,4.6308,4.6308,4.6308,4.6308,4.6308,4.6308,4.6308,4.6308,4.6125,4.3074,4.0718,3.8765,3.5707,3.3382,3.1699,3.1699,3.1699,3.1699,3.1699,3.1699,3.1699,3.1699,3.1699,3.1699,3.1699,3.1699,3.1699,3.1699,3.1699,3.1699,3.1699,3.1699,3.1699,3.1699,3.1699,3.1699,3.1699,3.1699,3.1699,3.1699,3.1699,3.1699,3.1699,3.1699,3.1699,3.1699,3.1699,3.1699,3.1699,3.1699,3.1699,3.1699,3.1699,3.1699,3.1699,3.1699,3.1699,3.1699,3.1699,3.1699,3.1699,3.1699,3.1699,3.1699,3.1699,3.1699,3.1699,3.1699,3.1699,3.1699,3.1699,3.1699,3.1699,3.1699,3.1699,2.6396,2.6396,2.6396,2.6396,2.6396,2.6396,2.6396,0.0,0.0,0.0,0.0,2.8018,2.8176,2.9253,3.0219,3.0555,3.4869,3.8989,4.126,4.4308,4.6308,4.6308,4.6308,4.6308,4.6308,4.6308,4.6308,4.6308,4.6308,4.6308,4.6308,4.6308,4.6308,4.6308,4.6308,4.6308,4.6308,4.6308,4.6308,4.6308,4.6308,4.6308,4.6308,4.6308,4.6308,4.6158,4.3682,4.1225,3.8811,3.6317,3.3884,3.1699,3.1699,3.1699,3.1699,3.1699,3.1699,3.1699,3.1699,3.1699,3.1699,3.1699,3.1699,3.1699,3.1699,3.1699,3.1699,3.1699,3.1699,3.1699,3.1699,3.1699,3.1699,3.1699,3.1699,3.1699,3.1699,3.1699,3.1699,3.1699,3.1699,3.1699,3.1699,3.1699,3.1699,3.1699,3.1699,3.1699,3.1699,3.1699,3.1699,3.1699,3.1699,3.1699,3.1699,3.1699,3.1699,3.1699,3.1699,3.1699,3.1699,3.1699,3.1699,3.1699,3.1699,3.1699,3.1699,3.1699,3.1699,3.1699,3.1699,3.1699,2.6396,2.6396,2.6396,2.6396,2.6396,2.6396,2.6396,0.0,0.0,0.0,0.0,0.0,0.0,2.8698,2.9849,3.2129,3.5424,3.9572,4.495,4.6046,4.6308,4.6308,4.6308,4.6308,4.6308,4.6308,4.6308,4.6308,4.6308,4.6308,4.6308,4.6308,4.6308,4.6308,4.6308,4.6308,4.6308,4.6308,4.6308,4.6308,4.6308,4.6308,4.6308,4.6308,4.6308,4.618,4.4089,4.1793,3.9369,3.6883,3.4444,3.2207,3.1841,3.1699,3.1699,3.1699,3.1699,3.1699,3.1699,3.1699,3.1699,3.1699,3.1699,3.1699,3.1699,3.1699,3.1699,3.1699,3.1699,3.1699,3.1699,3.1699,3.1699,3.1699,3.1699,3.1699,3.1699,3.1699,3.1699,3.1699,3.1699,3.1699,3.1699,3.1699,3.1699,3.1699,3.1699,3.1699,3.1699,3.1699,3.1699,3.1699,3.1699,3.1699,3.1699,3.1699,3.1699,3.1699,3.1699,3.1699,3.1699,3.1699,3.1699,3.1699,3.1699,3.1699,3.1699,3.1699,3.1699,3.1699,3.1699,3.1699,2.6396,2.6396,2.6396,2.6396,2.6396,2.6396,2.6396,0.0,0.0,0.0,0.0,0.0,0.0,2.9902,3.1562,3.237,3.7225,4.2027,4.5252,4.6046,4.6308,4.6308,4.6308,4.6308,4.6308,4.6308,4.6308,4.6308,4.6308,4.6308,4.6308,4.6308,4.6308,4.6308,4.6308,4.6308,4.6308,4.6308,4.6308,4.6308,4.6308,4.6308,4.6308,4.6308,4.6308,4.6287,4.5906,4.4321,4.1872,3.942,3.6975,3.4534,3.2489,3.1699,3.1699,3.1699,3.1699,3.1699,3.1699,3.1699,3.1699,3.1699,3.1699,3.1699,3.1699,3.1699,3.1699,3.1699,3.1699,3.1699,3.1699,3.1699,3.1699,3.1699,3.1699,3.1699,3.1699,3.1699,3.1699,3.1699,3.1699,3.1699,3.1699,3.1699,3.1699,3.1699,3.1699,3.1699,3.1699,3.1699,3.1699,3.1699,3.1699,3.1699,3.1699,3.1699,3.1699,3.1699,3.1699,3.1699,3.1699,3.1699,3.1699,3.1699,3.1699,3.1699,3.1699,3.1699,3.1699,3.1699,3.1699,3.1699,2.6396,2.6396,2.6396,2.6396,2.6396,2.6396,2.6396,0.0,0.0,0.0,0.0,0.0,0.0,2.9438,3.1439,3.4965,3.9972,4.4046,4.5788,4.6191,4.6308,4.6308,4.6308,4.6308,4.6308,4.6308,4.6308,4.6308,4.6308,4.6308,4.6308,4.6308,4.6308,4.6308,4.6308,4.6308,4.6308,4.6308,4.6308,4.6308,4.6308,4.6308,4.6308,4.6308,4.6308,4.6308,4.6308,4.4881,4.2409,4.0005,3.7539,3.5071,3.2642,3.1699,3.1699,3.1699,3.1699,3.1699,3.1699,3.1699,3.1699,3.1699,3.1699,3.1699,3.1699,3.1699,3.1699,3.1699,3.1699,3.1699,3.1699,3.1699,3.1699,3.1699,3.1694,3.1698,3.1698,3.1698,3.1703,3.1698,3.1692,3.1703,3.1698,3.1692,3.1702,3.1695,3.17,3.1702,3.1706,3.169,3.1697,3.1698,3.1699,3.1699,3.1699,3.1699,3.1699,3.1699,3.1699,3.1699,3.1699,3.1699,3.1699,3.1699,3.1699,3.1699,3.1699,3.1699,3.1699,3.1699,3.1699,3.1699,2.6396,2.6396,2.6396,2.6396,0.0,2.6423,2.648,0.0,0.0,0.0,0.0,0.0,0.0,2.9371,3.1804,3.7231,4.1594,4.4765,4.6115,4.6308,4.6308,4.6308,4.6308,4.6308,4.6308,4.6308,4.6308,4.6308,4.6308,4.6308,4.6308,4.6308,4.6308,4.6308,4.6308,4.6308,4.6308,4.6308,4.6308,4.6308,4.6308,4.6308,4.6308,4.6308,4.6308,4.6308,4.6308,4.5219,4.323,4.0232,3.7884,3.5927,3.3485,3.2536,3.2465,3.1912,3.1699,3.1699,3.1699,3.1699,3.1699,3.1699,3.1699,3.1699,3.1699,3.1699,3.1699,3.1699,3.1699,3.1699,3.1699,3.1705,3.1697,3.1697,3.1696,3.1703,3.1703,3.3504,3.4434,3.2155,3.3556,3.5112,3.5121,3.5118,3.5132,3.5118,3.317,3.2519,3.4828,3.3119,3.1697,3.1696,3.1699,3.1699,3.1699,3.1699,3.1699,3.1699,3.1699,3.1699,3.1699,3.1699,3.1699,3.1699,3.1699,3.1699,3.1699,3.1699,3.1699,3.1699,3.1699,3.1699,2.6396,2.6396,2.6396,2.6396,2.6396,0.0,2.6714,0.0,0.0,0.0,0.0,0.0,0.0,3.1067,3.418,3.7556,4.042,4.318,4.5913,4.6308,4.6308,4.6308,4.6308,4.6308,4.6308,4.6308,4.6308,4.6308,4.6308,4.6308,4.6308,4.6308,4.6308,4.6308,4.6308,4.6308,4.6308,4.6308,4.6308,4.6308,4.6308,4.6308,4.6308,4.6308,4.6308,4.6308,4.6308,4.621,4.5667,4.0943,3.8902,3.8491,3.6008,3.5047,3.4768,3.2524,3.1699,3.1699,3.1699,3.1699,3.1699,3.1699,3.1699,3.1699,3.1699,3.1699,3.1699,3.1699,3.1699,3.1699,3.1699,3.1705,3.1692,3.1692,3.1709,3.1709,3.1709,3.885,4.2564,3.3459,3.9049,4.5256,4.5253,4.5253,4.5242,4.5248,3.7517,3.4978,4.4081,3.7323,3.1696,3.1699,3.1699,3.1699,3.1699,3.1699,3.1699,3.1699,3.1699,3.1699,3.1699,3.1699,3.1699,3.1699,3.1699,3.1699,3.1699,3.1699,3.1699,3.1699,3.1699,3.1699,2.6396,2.6396,2.6436,2.6613,0.0,0.0,0.0,0.0,0.0,0.0,2.8238,0.0,0.0,3.2987,3.6476,3.8085,4.1701,4.4783,4.6099,4.6308,4.6308,4.6308,4.6308,4.6308,4.6308,4.6308,4.6308,4.6308,4.6308,4.6308,4.6308,4.6308,4.6308,4.6308,4.6308,4.6308,4.6308,4.6308,4.6308,4.6308,4.6308,4.6308,4.6308,4.6308,4.6308,4.6308,4.6308,4.6308,4.6037,4.264,4.1236,4.1,3.8543,3.7608,3.7309,3.4838,3.3929,3.372,3.2219,3.1699,3.1699,3.1699,3.1699,3.1699,3.1699,3.1699,3.1699,3.1699,3.1699,3.1699,3.1699,3.1702,3.17,3.17,3.1707,3.3371,3.9464,4.369,4.522,4.1502,4.3776,4.6298,4.6303,4.629,4.6307,4.6291,3.7967,3.3039,3.6737,3.399,3.1692,3.1709,3.1699,3.1699,3.1699,3.1699,3.1699,3.1699,3.1699,3.1699,3.1699,3.1699,3.1699,3.1699,3.1699,3.1699,3.1699,3.1699,3.1699,3.1699,3.1699,3.1699,2.6396,2.6396,2.6453,2.6727,0.0,0.0,0.0,0.0,0.0,0.0,2.8615,0.0,2.9913,0.0,3.6964,3.8277,4.2009,4.5099,4.6141,4.6308,4.6308,4.6308,4.6308,4.6308,4.6308,4.6308,4.6308,4.6308,4.6308,4.6308,4.6308,4.6308,4.6308,4.6308,4.6308,4.6308,4.6308,4.6308,4.6308,4.6308,4.6308,4.6308,4.6308,4.6308,4.6308,4.6308,4.6308,4.6308,4.6103,4.3627,4.2599,4.2364,3.9931,3.9471,3.9846,3.739,3.6467,3.6225,3.4584,3.4002,3.4002,3.4002,3.4002,3.4002,3.4002,3.3464,3.2843,3.2843,3.229,3.169,3.169,3.1702,3.2482,3.5577,3.6314,3.8136,4.4846,4.6287,4.629,4.6301,4.6307,4.6302,4.6312,4.6308,4.6289,4.6305,4.0594,3.5193,3.21,3.1702,3.1702,3.1709,3.1699,3.1699,3.1699,3.1699,3.1699,3.1699,3.1699,3.1699,3.1699,3.1699,3.1699,3.1699,3.1699,3.1699,3.1699,3.1699,3.1699,3.1699,3.1699,3.1699,2.6396,2.6396,2.6476,2.6737,2.7064,0.0,2.8069,0.0,0.0,2.8551,2.9096,2.9695,3.0295,3.2614,3.5324,3.8056,4.0835,4.3493,4.595,4.6308,4.6308,4.6308,4.6308,4.6308,4.6308,4.6308,4.6308,4.6308,4.6308,4.6308,4.6308,4.6308,4.6308,4.6308,4.6308,4.6308,4.6308,4.6308,4.6308,4.6308,4.6308,4.6308,4.6308,4.6308,4.6308,4.6308,4.6308,4.6308,4.6103,4.3649,4.2633,4.2398,4.0005,4.0537,4.2342,3.9909,3.9022,3.9039,3.9016,3.9004,3.9004,3.9004,3.9004,3.9004,3.9004,3.7275,3.53,3.5312,3.3563,3.1698,3.1698,3.176,3.4278,4.3992,4.6296,4.6308,4.6308,4.6308,4.6308,4.6308,4.6308,4.6308,4.6308,4.6308,4.63,4.6297,4.6302,4.2758,3.2961,3.1709,3.1699,3.1699,3.1699,3.1699,3.1699,3.1699,3.1699,3.1699,3.1699,3.1699,3.1699,3.1699,3.1699,3.1699,3.1699,3.1699,3.1699,3.1699,3.1699,3.1699,3.1699,3.1699,2.6396,2.6533,0.0,2.7064,2.7369,0.0,0.0,2.8481,0.0,0.0,2.9708,3.0255,3.0606,3.429,3.7634,3.8683,4.2416,4.5469,4.621,4.6308,4.6308,4.6308,4.6308,4.6308,4.6308,4.6308,4.6308,4.6308,4.6308,4.6308,4.6308,4.6308,4.6308,4.6308,4.6308,4.6308,4.6308,4.6308,4.6308,4.6308,4.6308,4.6308,4.6308,4.6308,4.6308,4.6308,4.6308,4.6308,4.6243,4.5513,4.5197,4.5131,4.4417,4.4572,4.4892,4.2432,4.1529,4.1281,3.9596,3.9004,3.9004,3.9004,3.9004,3.9004,3.9004,3.766,3.6143,3.614,3.3998,3.1705,3.1695,3.6808,4.2696,4.5612,4.6296,4.6308,4.6308,4.6308,4.6308,4.6308,4.6308,4.6308,4.6308,4.6308,4.6293,4.6306,4.6306,4.2767,3.2964,3.1691,3.1699,3.1699,3.1699,3.1699,3.1699,3.1699,3.1699,3.1699,3.1699,3.1699,3.1699,3.1699,3.1699,3.1699,3.1699,3.1699,3.1699,3.1699,3.1699,3.1699,3.1699,3.1699,2.6396,2.66,0.0,2.7218,2.7606,2.8091,2.8802,0.0,0.0,0.0,3.0148,3.0817,3.2174,3.5766,3.8924,4.022,4.3727,4.6308,4.6308,4.6308,4.6308,4.6308,4.6308,4.6308,4.6308,4.6308,4.6308,4.6308,4.6308,4.6308,4.6308,4.6308,4.6308,4.6308,4.6308,4.6308,4.6308,4.6308,4.6308,4.6308,4.6308,4.6308,4.6308,4.6308,4.6308,4.6308,4.6308,4.6308,4.6308,4.6308,4.6308,4.6308,4.6308,4.6308,4.6114,4.4627,4.4078,4.386,4.2387,4.1894,4.1894,4.1894,4.1894,4.1894,4.1894,4.0283,3.8452,3.8463,3.5197,3.1704,3.1707,3.8959,4.6296,4.6296,4.6303,4.6308,4.6308,4.6308,4.6308,4.6308,4.6308,4.6308,4.6308,4.6308,4.6301,4.6298,4.2989,3.8373,3.2459,3.1699,3.1699,3.1699,3.1699,3.1699,3.1699,3.1699,3.1699,3.1699,3.1699,3.1699,3.1699,3.1699,3.1699,3.1699,3.1699,3.1699,3.1699,3.1699,3.1699,3.1699,3.1699,3.1699,2.6396,2.6627,2.6911,2.7222,2.7791,0.0,2.9307,2.9537,2.9735,3.0281,3.0442,3.1382,3.4351,3.6899,3.9441,4.2165,4.4682,4.6308,4.6308,4.6308,4.6308,4.6308,4.6308,4.6308,4.6308,4.6308,4.6308,4.6308,4.6308,4.6308,4.6308,4.6308,4.6308,4.6308,4.6308,4.6308,4.6308,4.6308,4.6308,4.6308,4.6308,4.6308,4.6308,4.6308,4.6308,4.6308,4.6308,4.6308,4.6308,4.6308,4.6308,4.6308,4.6308,4.6308,4.6308,4.6308,4.6308,4.6308,4.6308,4.6308,4.6308,4.6308,4.6308,4.6308,4.6308,4.4202,4.1846,4.1855,3.7584,3.3026,3.303,3.9632,4.6308,4.6308,4.6308,4.6308,4.6308,4.6308,4.6308,4.6308,4.6308,4.6308,4.6308,4.6308,4.6,4.5106,3.7403,3.1694,3.1706,3.1699,3.1699,3.1699,3.1699,3.1699,3.1699,3.1699,3.1699,3.1699,3.1699,3.1699,3.1699,3.1699,3.1699,3.1699,3.1699,3.1699,3.1699,3.1699,3.1699,3.1699,3.1699,3.1699,2.6396,2.6794,0.0,2.7285,2.808,2.8954,2.939,2.988,3.0241,3.0375,3.0726,3.1815,3.4417,3.7089,3.9711,4.2201,4.4682,4.6308,4.6308,4.6308,4.6308,4.6308,4.6308,4.6308,4.6308,4.6308,4.6308,4.6308,4.6308,4.6308,4.6308,4.6308,4.6308,4.6308,4.6308,4.6308,4.6308,4.6308,4.6308,4.6308,4.6308,4.6308,4.6308,4.6308,4.6308,4.6308,4.6308,4.6308,4.6308,4.6308,4.6308,4.6308,4.6308,4.6308,4.6308,4.6308,4.6308,4.6308,4.6308,4.6308,4.6308,4.6308,4.6308,4.6308,4.6308,4.5807,4.5247,4.5244,4.4229,4.316,4.3159,4.4719,4.6308,4.6308,4.6308,4.6308,4.6308,4.6308,4.6308,4.6308,4.6308,4.6308,4.6308,4.6308,4.37,3.5998,3.3056,3.1694,3.1706,3.1699,3.1699,3.1699,3.1699,3.1699,3.1699,3.1699,3.1699,3.1699,3.1699,3.1699,3.1699,3.1699,3.1699,3.1699,3.1699,3.1699,3.1699,3.1699,3.1699,3.1699,3.1699,3.1699,2.6396,2.6834,2.7432,2.7987,2.8556,2.9119,2.9593,3.0152,3.0591,3.0591,3.1859,3.3779,3.6369,3.8986,4.1517,4.3959,4.5469,4.6308,4.6308,4.6308,4.6308,4.6308,4.6308,4.6308,4.6308,4.6308,4.6308,4.6308,4.6308,4.6308,4.6308,4.6308,4.6308,4.6308,4.6308,4.6308,4.6308,4.6308,4.6308,4.6308,4.6308,4.6308,4.6308,4.6308,4.6308,4.6308,4.6308,4.6308,4.6308,4.6308,4.6308,4.6308,4.6308,4.6308,4.6308,4.6308,4.6308,4.6308,4.6308,4.6308,4.6308,4.6308,4.6308,4.6308,4.6308,4.6309,4.631,4.629,4.6298,4.629,4.6301,4.6308,4.6308,4.6308,4.6308,4.6308,4.6308,4.6308,4.6308,4.6308,4.6308,4.6308,4.6308,4.6302,4.2984,3.318,3.1704,3.1697,3.1709,3.1699,3.1699,3.1699,3.1699,3.1699,3.1699,3.1699,3.1699,3.1699,3.1699,3.1699,3.1699,3.1699,3.1699,3.1699,3.1699,3.1699,3.1699,3.1699,3.1699,3.1699,3.1699,3.1699,2.6396,2.6834,2.7569,2.8716,2.9001,2.9159,2.9757,3.0368,3.0807,3.0807,3.3021,3.565,3.7934,4.0684,4.3264,4.5318,4.6015,4.6308,4.6308,4.6308,4.6308,4.6308,4.6308,4.6308,4.6308,4.6308,4.6308,4.6308,4.6308,4.6308,4.6308,4.6308,4.6308,4.6308,4.6308,4.6308,4.6308,4.6308,4.6308,4.6308,4.6308,4.6308,4.6308,4.6308,4.6308,4.6308,4.6308,4.6308,4.6308,4.6308,4.6308,4.6308,4.6308,4.6308,4.6308,4.6308,4.6308,4.6308,4.6308,4.6308,4.6308,4.6308,4.6308,4.6308,4.6308,4.6308,4.6308,4.6308,4.6308,4.6308,4.6308,4.6308,4.6308,4.6308,4.6308,4.6308,4.6308,4.6308,4.6308,4.6308,4.6308,4.6308,4.6308,4.4898,4.1023,3.2918,3.1702,3.1699,3.1699,3.1699,3.1699,3.1699,3.1699,3.1699,3.1699,3.1699,3.1699,3.1699,3.1699,3.1699,3.1699,3.1699,3.1699,3.1699,3.1699,3.1699,3.1699,3.1699,3.1699,3.1699,3.1699,3.1699,2.6396,2.6834,2.7569,2.8716,2.9001,2.9159,2.9757,3.0368,3.0807,3.0807,3.3169,3.536,3.5726,3.9523,4.27,4.3041,4.4892,4.6308,4.6308,4.6308,4.6308,4.6308,4.6308,4.6308,4.6308,4.6308,4.6308,4.6308,4.6308,4.6308,4.6308,4.6308,4.6308,4.6308,4.6308,4.6308,4.6308,4.6308,4.6308,4.6308,4.6308,4.6308,4.6308,4.6308,4.6308,4.6308,4.6308,4.6308,4.6308,4.6308,4.6308,4.6308,4.6308,4.6308,4.6308,4.6308,4.6308,4.6308,4.6308,4.6308,4.6308,4.6308,4.6308,4.6308,4.6308,4.6308,4.6308,4.6308,4.6308,4.6308,4.6308,4.6308,4.6308,4.6308,4.6308,4.6308,4.6308,4.6308,4.6308,4.6308,4.6308,4.6308,4.6308,3.9273,3.3213,3.1899,3.1704,3.1699,3.1699,3.1699,3.1699,3.1699,3.1699,3.1699,3.1699,3.1699,3.1699,3.1699,3.1699,3.1699,3.1699,3.1699,3.1699,3.1699,3.1699,3.1699,3.1699,3.1699,3.1699,3.1699,3.1699,3.1699,2.6807,2.7098,2.7569,2.8716,2.9001,2.9159,2.9757,3.0368,3.0807,3.0807,3.4315,3.7378,3.7378,4.1371,4.4671,4.4671,4.559,4.6308,4.6308,4.6308,4.6308,4.6308,4.6308,4.6308,4.6308,4.6308,4.6308,4.6308,4.6308,4.6308,4.6308,4.6308,4.6308,4.6308,4.6308,4.6308,4.6308,4.6308,4.6308,4.6308,4.6308,4.6308,4.6308,4.6308,4.6308,4.6308,4.6308,4.6308,4.6308,4.6308,4.6308,4.6308,4.6308,4.6308,4.6308,4.6308,4.6308,4.6308,4.6308,4.6308,4.6308,4.6308,4.6308,4.6308,4.6308,4.6308,4.6308,4.6308,4.6308,4.6308,4.6308,4.6308,4.6308,4.6308,4.6308,4.6308,4.6308,4.6308,4.6308,4.6308,4.6308,4.6309,4.6296,4.2722,3.8017,3.2529,3.1699,3.1699,3.1699,3.1699,3.1699,3.1699,3.1699,3.1699,3.1699,3.1699,3.1699,3.1699,3.1699,3.1699,3.1699,3.1699,3.1699,3.1699,3.1699,3.1699,3.1699,3.1699,3.1699,3.1699,3.1699,3.1699,2.7138,2.7299,2.7566,2.8636,2.8959,2.9146,2.9675,3.0272,3.0713,3.0793,3.5109,3.89,3.8971,4.2996,4.6092,4.545,4.5895,4.6308,4.6308,4.6308,4.6308,4.6308,4.6308,4.6308,4.6308,4.6308,4.6308,4.6308,4.6308,4.6308,4.6308,4.6308,4.6308,4.6308,4.6308,4.6308,4.6308,4.6308,4.6308,4.6308,4.6308,4.6308,4.6308,4.6308,4.6308,4.6308,4.6308,4.6308,4.6308,4.6308,4.6308,4.6308,4.6308,4.6308,4.6308,4.6308,4.6308,4.6308,4.6308,4.6308,4.6308,4.6308,4.6308,4.6308,4.6308,4.6308,4.6308,4.6308,4.6308,4.6308,4.6308,4.6308,4.6308,4.6308,4.6308,4.6308,4.6308,4.6308,4.6308,4.6308,4.6308,4.6307,4.6294,4.4234,4.0106,3.2809,3.1705,3.1699,3.1699,3.1699,3.1699,3.1699,3.1699,3.1699,3.1699,3.1699,3.1699,3.1699,3.1699,3.1699,3.1699,3.1699,3.1699,3.1699,3.1699,3.1699,3.1699,3.1699,3.1699,3.1699,3.1699,3.1699,2.7138,2.7299,2.7502,2.8404,2.8799,2.9092,2.9432,2.9989,3.0495,3.0753,3.4917,3.8625,3.895,4.2996,4.5535,4.3164,4.4771,4.6308,4.6308,4.6308,4.6308,4.6308,4.6308,4.6308,4.6308,4.6308,4.6308,4.6308,4.6308,4.6308,4.6308,4.6308,4.6308,4.6308,4.6308,4.6308,4.6308,4.6308,4.6308,4.6308,4.6308,4.6308,4.6308,4.6308,4.6308,4.6308,4.6308,4.6308,4.6308,4.6308,4.6308,4.6308,4.6308,4.6308,4.6308,4.6308,4.6308,4.6308,4.6308,4.6308,4.6308,4.6308,4.6308,4.6308,4.6308,4.6308,4.6308,4.6308,4.6308,4.6308,4.6308,4.6308,4.6308,4.6308,4.6308,4.6308,4.6308,4.6308,4.6308,4.6308,4.6308,4.63,4.6302,3.8612,3.2287,3.1777,3.1697,3.1699,3.1699,3.1699,3.1699,3.1699,3.1699,3.1699,3.1699,3.1699,3.1699,3.1699,3.1699,3.1699,3.1699,3.1699,3.1699,3.1699,3.1699,3.1699,3.1699,3.1699,3.1699,3.1699,3.1699,3.1699,2.7181,2.7432,2.7719,2.843,2.8796,2.9079,2.9419,2.9974,3.0924,3.2745,3.5975,3.9076,4.0964,4.4044,4.6015,4.512,4.5711,4.6308,4.6308,4.6308,4.6308,4.6308,4.6308,4.6308,4.6308,4.6308,4.6308,4.6308,4.6308,4.6308,4.6308,4.6308,4.6308,4.6308,4.6308,4.6308,4.6308,4.6308,4.6308,4.6308,4.6308,4.6308,4.6308,4.6308,4.6308,4.6308,4.6308,4.6308,4.6308,4.6308,4.6308,4.6308,4.6308,4.6308,4.6308,4.6308,4.6308,4.6308,4.6308,4.6308,4.6308,4.6308,4.6308,4.6308,4.6308,4.6308,4.6308,4.6308,4.6308,4.6308,4.6308,4.6308,4.6308,4.6308,4.6308,4.6308,4.6308,4.6308,4.6308,4.6308,4.6309,4.63,4.6297,3.8188,3.1699,3.1705,3.1702,3.1699,3.1699,3.1699,3.1699,3.1699,3.1699,3.1699,3.1699,3.1699,3.1699,3.1699,3.1699,3.1699,3.1699,3.1699,3.1699,3.1699,3.1699,3.1699,3.1699,3.1699,3.1699,3.1699,3.1699,3.1699,2.7329,2.7559,2.7816,2.8334,2.874,2.9052,2.9274,2.9804,3.0761,3.2668,3.5883,3.8948,4.0874,4.4018,4.6308,4.6308,4.6308,4.6308,4.6308,4.6308,4.6308,4.6308,4.6308,4.6308,4.6308,4.6308,4.6308,4.6308,4.6308,4.6308,4.6308,4.6308,4.6308,4.6308,4.6308,4.6308,4.6308,4.6308,4.6308,4.6308,4.6308,4.6308,4.6308,4.6308,4.6308,4.6308,4.6308,4.6308,4.6308,4.6308,4.6308,4.6308,4.6308,4.6308,4.6308,4.6308,4.6308,4.6308,4.6308,4.6308,4.6308,4.6308,4.6308,4.6308,4.6308,4.6308,4.6308,4.6308,4.6308,4.6308,4.6308,4.6308,4.6308,4.6308,4.6308,4.6308,4.6308,4.6308,4.6293,4.6303,4.6307,4.525,4.1969,3.6017,3.1705,3.1693,3.1699,3.1699,3.1699,3.1699,3.1699,3.1699,3.1699,3.1699,3.1699,3.1699,3.1699,3.1699,3.1699,3.1699,3.1699,3.1699,3.1699,3.1699,3.1699,3.1699,3.1699,3.1699,3.1699,3.1699,3.1699,3.1699,0.0,0.0,0.0,2.8122,2.8601,2.8988,2.8999,2.9453,3.0016,3.0426,3.4539,3.8191,3.8534,4.2812,4.6289,4.6308,4.6308,4.6308,4.6308,4.6308,4.6308,4.6308,4.6308,4.6308,4.6308,4.6308,4.6308,4.6308,4.6308,4.6308,4.6308,4.6308,4.6308,4.6308,4.6308,4.6308,4.6308,4.6308,4.6308,4.6308,4.6308,4.6308,4.6308,4.6308,4.6308,4.6308,4.6308,4.6308,4.6308,4.6308,4.6308,4.6308,4.6308,4.6308,4.6308,4.6308,4.6308,4.6308,4.6308,4.6308,4.6308,4.6308,4.6308,4.6308,4.6308,4.6308,4.6308,4.6308,4.6308,4.6308,4.6308,4.6308,4.6308,4.6308,4.6308,4.6308,4.6308,4.6308,4.6303,4.6311,4.6071,4.2852,3.3342,3.1696,3.1704,3.1702,3.1698,3.1698,3.1698,3.1699,3.1699,3.1699,3.1699,3.1699,3.1699,3.1699,3.1699,3.1699,3.1699,3.1699,3.1699,3.1699,3.1699,3.1699,3.1699,3.1699,3.1699,3.1699,3.1699,3.1699,3.1699,3.1699,2.7655,0.0,0.0,0.0,0.0,0.0,2.8959,2.9315,3.026,3.2534,3.5486,3.8393,4.0743,4.375,4.5968,4.625,4.6308,4.6308,4.6308,4.6308,4.6308,4.6308,4.6308,4.6308,4.6308,4.6308,4.6308,4.6308,4.6308,4.6308,4.6308,4.6308,4.6308,4.6308,4.6308,4.6308,4.6308,4.6308,4.6308,4.6308,4.6308,4.6308,4.6308,4.6308,4.6308,4.6308,4.6308,4.6308,4.6308,4.6308,4.6308,4.6308,4.6308,4.6308,4.6308,4.6308,4.6308,4.6308,4.6308,4.6308,4.6308,4.6308,4.6308,4.6308,4.6308,4.6308,4.6308,4.6308,4.6308,4.6308,4.6308,4.6308,4.6308,4.6308,4.6308,4.6308,4.6308,4.6308,4.6304,4.6309,4.0581,3.4883,3.2166,3.1696,3.17,3.1693,3.1696,3.1697,3.1697,3.1692,3.1699,3.1699,3.1699,3.1699,3.1699,3.1699,3.1699,3.1699,3.1699,3.1699,3.1699,3.1699,3.1699,3.1699,3.1699,3.1699,3.1699,3.1699,3.1699,3.1699,3.1699,3.1699,0.0,0.0,0.0,0.0,0.0,0.0,2.8796,2.9918,3.142,3.3171,3.6409,3.947,4.1315,4.3712,4.5558,4.5987,4.6046,4.6124,4.6289,4.6308,4.6308,4.6308,4.6308,4.6308,4.6308,4.6308,4.6308,4.6308,4.6308,4.6308,4.6308,4.6308,4.6308,4.6308,4.6308,4.6308,4.6308,4.6308,4.6308,4.6308,4.6308,4.6308,4.6308,4.6308,4.6308,4.6308,4.6308,4.6308,4.6308,4.6308,4.6308,4.6308,4.6308,4.6308,4.6308,4.6308,4.6308,4.6308,4.6308,4.6308,4.6308,4.6308,4.6308,4.6308,4.6308,4.6308,4.6308,4.6308,4.6308,4.6308,4.6308,4.6308,4.6308,4.6308,4.6308,4.6308,4.6308,4.6308,4.6301,4.6287,4.1688,3.7793,3.7793,3.7782,3.7801,3.7801,3.7786,3.6312,3.222,3.1709,3.1699,3.1699,3.1699,3.1699,3.1699,3.1699,3.1699,3.1699,3.1699,3.1699,3.1699,3.1699,3.1699,3.1699,3.1699,3.1699,3.1699,3.1699,3.1699,3.1699,3.1699,3.1699,0.0,0.0,0.0,0.0,2.8382,0.0,2.8593,3.078,3.2797,3.2883,3.7088,4.0785,4.0875,4.3113,4.5076,4.5538,4.5616,4.5772,4.623,4.6308,4.6308,4.6308,4.6308,4.6308,4.6308,4.6308,4.6308,4.6308,4.6308,4.6308,4.6308,4.6308,4.6308,4.6308,4.6308,4.6308,4.6308,4.6308,4.6308,4.6308,4.6308,4.6308,4.6308,4.6308,4.6308,4.6308,4.6308,4.6308,4.6308,4.6308,4.6308,4.6308,4.6308,4.6308,4.6308,4.6308,4.6308,4.6308,4.6308,4.6308,4.6308,4.6308,4.6308,4.6308,4.6308,4.6308,4.6308,4.6308,4.6308,4.6308,4.6308,4.6308,4.6308,4.6308,4.6308,4.6308,4.6308,4.6308,4.6294,4.6309,4.6297,4.6298,4.6299,4.6295,4.5925,4.484,4.5149,4.2162,3.2897,3.1695,3.1699,3.1699,3.1699,3.1699,3.1699,3.1699,3.1699,3.1699,3.1699,3.1699,3.1699,3.1699,3.1699,3.1699,3.1699,3.1699,3.1699,3.1699,3.1699,3.1699,3.1699,3.1699,0.0,0.0,0.0,0.0,2.8243,0.0,2.8551,3.0372,3.2176,3.2782,3.6608,4.0075,4.0767,4.2887,4.4657,4.5067,4.5145,4.5419,4.6191,4.6308,4.6308,4.6308,4.6308,4.6308,4.6308,4.6308,4.6308,4.6308,4.6308,4.6308,4.6308,4.6308,4.6308,4.6308,4.6308,4.6308,4.6308,4.6308,4.6308,4.6308,4.6308,4.6308,4.6308,4.6308,4.6308,4.6308,4.6308,4.6308,4.6308,4.6308,4.6308,4.6308,4.6308,4.6308,4.6308,4.6308,4.6308,4.6308,4.6308,4.6308,4.6308,4.6308,4.6308,4.6308,4.6308,4.6308,4.6308,4.6308,4.6308,4.6308,4.6308,4.6308,4.6308,4.6308,4.6308,4.6308,4.6308,4.6308,4.6295,4.6294,4.6303,4.6309,4.6307,4.6296,4.3627,3.5734,3.7894,3.8323,3.2438,3.1709,3.1699,3.1699,3.1699,3.1699,3.1699,3.1699,3.1699,3.1699,3.1699,3.1699,3.1699,3.1699,3.1699,3.1699,3.1699,3.1699,3.1699,3.1699,3.1699,3.1699,3.1699,3.1699,0.0,0.0,0.0,2.8189,2.8992,0.0,0.0,3.1843,3.3958,3.5397,3.7823,4.0175,4.1719,4.3119,4.4199,4.4638,4.4696,4.4931,4.5564,4.5859,4.6085,4.6289,4.6308,4.6308,4.6308,4.6308,4.6308,4.6308,4.6308,4.6308,4.6308,4.6308,4.6308,4.6308,4.6308,4.6308,4.6308,4.6308,4.6308,4.6308,4.6308,4.6308,4.6308,4.6308,4.6308,4.6308,4.6308,4.6308,4.6308,4.6308,4.6308,4.6308,4.6308,4.6308,4.6308,4.6308,4.6308,4.6308,4.6308,4.6308,4.6308,4.6308,4.6308,4.6308,4.6308,4.6308,4.6308,4.6308,4.6308,4.6308,4.6308,4.6308,4.6308,4.6308,4.6308,4.6308,4.6308,4.6308,4.6308,4.6308,4.6308,4.6308,4.6308,4.4288,4.0982,3.6078,3.5357,3.4472,3.2027,3.1695,3.1699,3.1699,3.1699,3.1699,3.1699,3.1699,3.1699,3.1699,3.1699,3.1699,3.1699,3.1699,3.1699,3.1699,3.1699,3.1699,3.1699,3.1699,3.1699,3.1699,3.1699,3.1699,0.0,0.0,0.0,2.8712,3.0114,3.1392,0.0,0.0,0.0,3.7606,3.9119,4.0787,4.2732,4.337,4.3672,4.3965,4.416,4.4345,4.4599,4.5098,4.5636,4.6124,4.6191,4.6211,4.6278,4.6308,4.6308,4.6308,4.6308,4.6308,4.6308,4.6308,4.6308,4.6308,4.6308,4.6308,4.6308,4.6308,4.6308,4.6308,4.6308,4.6308,4.6308,4.6308,4.6308,4.6308,4.6308,4.6308,4.6308,4.6308,4.6308,4.6308,4.6308,4.6308,4.6308,4.6308,4.6308,4.6308,4.6308,4.6308,4.6308,4.6308,4.6308,4.6308,4.6308,4.6308,4.6308,4.6308,4.6308,4.6308,4.6308,4.6308,4.6308,4.6308,4.6308,4.6308,4.6308,4.6308,4.6308,4.6308,4.6308,4.6308,4.6308,4.2496,3.9256,3.8618,3.501,3.2224,3.176,3.1702,3.1699,3.1699,3.1699,3.1699,3.1699,3.1699,3.1699,3.1699,3.1699,3.1699,3.1699,3.1699,3.1699,3.1699,3.1699,3.1699,3.1699,3.1699,3.1699,3.1699,3.1699,3.1699,0.0,2.8189,2.8649,3.0572,3.1231,3.1392,3.1392,0.0,3.7231,3.5923,0.0,4.1899,4.2909,0.0,0.0,4.2695,4.3271,4.3672,4.335,4.4034,4.4854,4.5666,4.5764,4.592,4.6269,4.6308,4.6308,4.6308,4.6308,4.6308,4.6308,4.6308,4.6308,4.6308,4.6308,4.6308,4.6308,4.6308,4.6308,4.6308,4.6308,4.6308,4.6308,4.6308,4.6308,4.6308,4.6308,4.6308,4.6308,4.6308,4.6308,4.6308,4.6308,4.6308,4.6308,4.6308,4.6308,4.6308,4.6308,4.6308,4.6308,4.6308,4.6308,4.6308,4.6308,4.6308,4.6308,4.6308,4.6308,4.6308,4.6308,4.6308,4.6308,4.6308,4.6308,4.6308,4.6308,4.6308,4.6308,4.6308,4.6308,4.6308,4.6308,4.3416,4.0144,3.7224,3.5699,3.4114,3.1975,3.1709,3.1699,3.1699,3.1699,3.1699,3.1699,3.1699,3.1699,3.1699,3.1699,3.1699,3.1699,3.1699,3.1699,3.1699,3.1699,3.1699,3.1699,3.1699,3.1699,3.1699,3.1699,3.1699,2.8468,2.8438,2.8608,2.9359,3.0489,3.1733,3.3012,3.4732,3.6554,3.8342,0.0,0.0,0.0,0.0,0.0,0.0,4.2949,4.3291,4.3126,4.3623,4.4316,4.5195,4.5282,4.5469,4.5909,4.6152,4.6308,4.6308,4.6308,4.6308,4.6308,4.6308,4.6308,4.6308,4.6308,4.6308,4.6308,4.6308,4.6308,4.6308,4.6308,4.6308,4.6308,4.6308,4.6308,4.6308,4.6308,4.6308,4.6308,4.6308,4.6308,4.6308,4.6308,4.6308,4.6308,4.6308,4.6308,4.6308,4.6308,4.6308,4.6308,4.6308,4.6308,4.6308,4.6308,4.6308,4.6308,4.6308,4.6308,4.6308,4.6308,4.6308,4.6308,4.6308,4.6308,4.6308,4.6308,4.6308,4.6308,4.6308,4.6308,4.6308,4.6308,4.2797,3.9547,3.8163,3.5252,3.2854,3.183,3.1699,3.1699,3.1699,3.1699,3.1699,3.1699,3.1699,3.1699,3.1699,3.1699,3.1699,3.1699,3.1699,3.1699,3.1699,3.1699,3.1699,3.1699,3.1699,3.1699,3.1699,3.1699,3.1699,2.8756,2.8714,2.881,2.9225,3.0955,3.298,3.446,3.5754,3.7343,3.9795,3.9727,0.0,0.0,0.0,4.2187,4.2099,0.0,4.2823,4.2598,4.3135,4.3867,4.4725,4.494,4.5135,4.5479,4.589,4.6144,4.6144,4.623,4.6308,4.6308,4.6308,4.6308,4.6308,4.6308,4.6308,4.6308,4.6308,4.6308,4.6308,4.6308,4.6308,4.6308,4.6308,4.6308,4.6308,4.6308,4.6308,4.6308,4.6308,4.6308,4.6308,4.6308,4.6308,4.6308,4.6308,4.6308,4.6308,4.6308,4.6308,4.6308,4.6308,4.6308,4.6308,4.6308,4.6308,4.6308,4.6308,4.6308,4.6308,4.6308,4.6308,4.6308,4.6308,4.6308,4.6308,4.6308,4.6308,4.6308,4.6308,4.6308,4.6007,4.5118,4.1634,3.9004,3.9004,3.4826,3.1699,3.1699,3.1699,3.1699,3.1699,3.1699,3.1699,3.1699,3.1699,3.1699,3.1699,3.1699,3.1699,3.1699,3.1699,3.1699,3.1699,3.1699,3.1699,3.1699,3.1699,3.1699,3.1699,3.1699,3.1699,2.8988,2.8999,2.9504,3.1638,3.3876,3.5478,3.5153,3.8453,4.0882,3.8492,3.9668,4.125,4.1719,4.1816,0.0,0.0,4.1904,0.0,0.0,4.2325,4.3428,4.4327,4.4764,4.5018,4.5018,4.546,4.5725,4.5725,4.6085,4.6308,4.6308,4.6308,4.6308,4.6308,4.6308,4.6308,4.6308,4.6308,4.6308,4.6308,4.6308,4.6308,4.6308,4.6308,4.6308,4.6308,4.6308,4.6308,4.6308,4.6308,4.6308,4.6308,4.6308,4.6308,4.6308,4.6308,4.6308,4.6308,4.6308,4.6308,4.6308,4.6308,4.6308,4.6308,4.6308,4.6308,4.6308,4.6308,4.6308,4.6308,4.6308,4.6308,4.6308,4.6308,4.6308,4.6308,4.6308,4.6308,4.6308,4.6308,4.6308,4.5291,4.2112,4.0141,3.9004,3.9004,3.4826,3.1699,3.1699,3.1699,3.1699,3.1699,3.1699,3.1699,3.1699,3.1699,3.1699,3.1699,3.1699,3.1699,3.1699,3.1699,3.1699,3.1699,3.1699,3.1699,3.1699,3.1699,3.1699,3.1699,3.1699,3.1699,2.9381,3.0426,3.1721,3.2293,3.4155,3.6192,3.7499,3.9,4.0227,4.0767,4.1264,4.1631,4.1777,0.0,0.0,0.0,0.0,4.1914,0.0,4.2207,4.2861,4.3467,4.416,4.4599,4.4599,4.5264,4.5705,4.5705,4.6065,4.6308,4.6308,4.6308,4.6308,4.6308,4.6308,4.6308,4.6308,4.6308,4.6308,4.6308,4.6308,4.6308,4.6308,4.6308,4.6308,4.6308,4.6308,4.6308,4.6308,4.6308,4.6308,4.6308,4.6308,4.6308,4.6308,4.6308,4.6308,4.6308,4.6308,4.6308,4.6308,4.6308,4.6308,4.6308,4.6308,4.6308,4.6308,4.6308,4.6308,4.6308,4.6308,4.6308,4.6308,4.6308,4.6308,4.6308,4.6308,4.6308,4.6308,4.6308,4.4533,4.2862,4.2286,3.9057,3.6548,3.6548,3.3779,3.1699,3.1699,3.1699,3.1699,3.1699,3.1699,3.1699,3.1699,3.1699,3.1699,3.1699,3.1699,3.1699,3.1699,3.1699,3.1699,3.1699,3.1699,3.1699,3.1699,3.1699,3.1699,3.1699,3.1699,3.1699,2.9869,3.1411,3.3043,3.2866,3.5157,3.7781,3.9055,3.9991,4.0922,4.214,4.2187,4.2021,4.2021,4.1797,0.0,0.0,0.0,0.0,0.0,4.2021,4.2353,4.2803,4.3496,4.3984,4.4141,4.4815,4.5304,4.544,4.5851,4.6163,4.6278,4.6308,4.6308,4.6308,4.6308,4.6308,4.6308,4.6308,4.6308,4.6308,4.6308,4.6308,4.6308,4.6308,4.6308,4.6308,4.6308,4.6308,4.6308,4.6308,4.6308,4.6308,4.6308,4.6308,4.6308,4.6308,4.6308,4.6308,4.6308,4.6308,4.6308,4.6308,4.6308,4.6308,4.6308,4.6308,4.6306,4.6303,4.6299,4.6295,4.6303,4.6299,4.6308,4.6308,4.6308,4.6308,4.6308,4.6308,4.6308,4.6308,4.3874,4.1725,4.1376,3.7971,3.53,3.53,3.3253,3.1699,3.1699,3.1699,3.1699,3.1699,3.1699,3.1699,3.1699,3.1699,3.1699,3.1699,3.1699,3.1699,3.1699,3.1699,3.1699,3.1699,3.1699,3.1699,3.1699,3.1699,3.1699,3.1699,3.1699,3.1699]}]]